[[{"header":{"parameterUnit":"m.s-1","parameterCategory":1,"la1":30.6,"la2":29.2853,"lo1":-89.7004,"lo2":-87.6739,"dy":0.0162,"dx":0.0183,"nx":112,"ny":82,"refTime":"2026-03-20T12:00:00:Z","depth":0,"parameterNumber":2,"parameterNumberName":"U-component_of_WINDS"},"data":[0.0,0.0,0.0,0.0,0.0,0.0,0.0,0.0,0.0,0.0,0.0,0.0,0.0,0.0,0.0,0.0,0.0,0.0,0.0,0.0,0.0,0.0,0.0,0.0,0.0,0.0,0.0,0.0,0.0,0.0,0.0,0.0,0.0,0.0,0.0,0.0,0.0,0.0,0.0,0.0,0.0,0.0,0.0,0.0,0.0,0.0,0.0,0.0,0.0,0.0,0.0,0.0,0.0,0.0,0.0,0.0,0.0,0.0,0.0,0.0,0.0,0.0,0.0,0.0,0.0,0.0,0.0,0.0,0.0,0.0,0.0,0.0,0.0,0.0,0.0,0.0,0.0,0.0,0.0,0.0,0.0,0.0,0.0,0.0,0.0,0.0,0.0,0.0,0.0,0.0,0.0,-0.8698,-0.9762,-1.0084,-0.9347,-0.8888,-0.8214,-0.7266,0.0,0.0,0.0,0.0,0.0,0.0,0.0,0.0,0.0,0.0,0.0,0.0,0.0,0.0,0.0,0.0,0.0,0.0,0.0,0.0,0.0,0.0,0.0,0.0,0.0,0.0,0.0,0.0,0.0,0.0,0.0,0.0,0.0,0.0,0.0,0.0,0.0,0.0,0.0,0.0,0.0,0.0,0.0,0.0,0.0,0.0,0.0,0.0,0.0,0.0,0.0,0.0,0.0,0.0,0.0,0.0,0.0,0.0,0.0,0.0,0.0,0.0,0.0,0.0,0.0,0.0,0.0,0.0,0.0,0.0,0.0,0.0,0.0,0.0,0.0,0.0,0.0,0.0,0.0,0.0,0.0,0.0,0.0,0.0,0.0,0.0,0.0,0.0,0.0,0.0,0.0,0.0,0.0,0.0,0.0,0.0,0.0,0.0,0.0,0.0,0.0,0.0,0.0,0.0,-0.8263,-1.0612,-1.1314,-1.1467,-1.1049,-1.0177,-0.9098,-0.7779,0.0,0.0,0.0,0.0,0.0,0.0,0.0,0.0,0.0,0.0,0.0,0.0,0.0,0.0,0.0,0.0,0.0,0.0,0.0,0.0,0.0,0.0,0.0,0.0,0.0,0.0,0.0,0.0,0.0,0.0,0.0,0.0,0.0,0.0,0.0,0.0,0.0,0.0,0.0,0.0,0.0,0.0,0.0,0.0,0.0,0.0,0.0,0.0,0.0,0.0,0.0,0.0,0.0,0.0,0.0,0.0,0.0,0.0,0.0,0.0,0.0,0.0,0.0,0.0,0.0,0.0,0.0,0.0,0.0,0.0,0.0,0.0,0.0,0.0,0.0,0.0,0.0,0.0,0.0,0.0,0.0,0.0,0.0,0.0,0.0,0.0,0.0,0.0,0.0,0.0,0.0,0.0,0.0,0.0,0.0,0.0,0.0,0.0,0.0,0.0,0.0,0.0,0.0,-0.7504,-0.9343,-1.0582,-1.1958,-1.2397,-1.139,-1.0631,-0.9531,-0.7912,-0.6289,0.0,0.0,0.0,0.0,0.0,0.0,0.0,0.0,0.0,0.0,0.0,0.0,0.0,0.0,0.0,0.0,0.0,0.0,0.0,0.0,0.0,0.0,0.0,0.0,0.0,0.0,0.0,0.0,0.0,0.0,0.0,0.0,0.0,0.0,0.0,0.0,0.0,0.0,0.0,0.0,0.0,0.0,0.0,0.0,0.0,0.0,0.0,0.0,0.0,0.0,0.0,0.0,0.0,0.0,0.0,0.0,0.0,0.0,0.0,0.0,0.0,0.0,0.0,0.0,0.0,0.0,0.0,0.0,0.0,0.0,0.0,0.0,0.0,0.0,0.0,0.0,0.0,0.0,0.0,0.0,0.0,0.0,0.0,0.0,0.0,0.0,0.0,0.0,0.0,0.0,0.0,0.0,0.0,0.0,0.0,0.0,0.0,0.0,0.0,0.0,0.0,0.0,-0.8566,-1.0095,-1.051,-1.2551,-1.3248,-1.1685,-1.1097,-0.9998,-0.8087,-0.6344,0.0,0.0,0.0,0.0,0.0,0.0,0.0,0.0,0.0,0.0,0.0,0.0,0.0,0.0,0.0,0.0,0.0,0.0,0.0,0.0,0.0,0.0,0.0,0.0,0.0,0.0,0.0,0.0,0.0,0.0,0.0,0.0,0.0,0.0,0.0,0.0,0.0,0.0,0.0,0.0,0.0,0.0,0.0,0.0,0.0,0.0,0.0,0.0,0.0,0.0,0.0,0.0,0.0,0.0,0.0,0.0,0.0,0.0,0.0,0.0,0.0,0.0,0.0,0.0,0.0,0.0,0.0,0.0,0.0,0.0,0.0,0.0,0.0,0.0,0.0,0.0,0.0,0.0,0.0,0.0,0.0,0.0,0.0,0.0,0.0,0.0,0.0,0.0,0.0,0.0,0.0,0.0,0.0,0.0,0.0,0.0,0.0,0.0,0.0,0.0,0.0,0.0,-0.8611,-1.02,-1.1463,-1.3411,-1.4056,-1.2722,-1.2056,-1.0787,-0.8594,-0.6525,0.0,0.0,0.0,0.0,0.0,0.0,0.0,0.0,0.0,0.0,0.0,0.0,0.0,0.0,0.0,0.0,0.0,0.0,0.0,0.0,0.0,0.0,0.0,0.0,0.0,0.0,0.0,0.0,0.0,0.0,0.0,0.0,0.0,0.0,0.0,0.0,0.0,0.0,0.0,0.0,0.0,0.0,0.0,0.0,0.0,0.0,0.0,0.0,0.0,0.0,0.0,0.0,0.0,0.0,0.0,0.0,0.0,0.0,0.0,0.0,0.0,0.0,0.0,0.0,0.0,0.0,0.0,0.0,0.0,0.0,0.0,0.0,0.0,0.0,0.0,0.0,0.0,0.0,0.0,0.0,0.0,0.0,0.0,0.0,0.0,0.0,0.0,0.0,0.0,0.0,0.0,0.0,0.0,0.0,0.0,0.0,0.0,0.0,0.0,0.0,0.0,0.0,-0.9059,-1.0754,0.0,-1.3806,-1.4622,-1.3141,-1.2267,-1.0855,-0.8634,0.0,0.0,0.0,0.0,0.0,0.0,0.0,0.0,0.0,0.0,0.0,0.0,0.0,0.0,0.0,0.0,0.0,0.0,0.0,0.0,0.0,0.0,0.0,0.0,0.0,0.0,0.0,0.0,0.0,0.0,0.0,0.0,0.0,0.0,0.0,0.0,0.0,0.0,0.0,0.0,0.0,0.0,0.0,0.0,0.0,0.0,0.0,0.0,0.0,0.0,0.0,0.0,0.0,0.0,0.0,0.0,0.0,0.0,0.0,0.0,0.0,0.0,0.0,0.0,0.0,0.0,0.0,0.0,0.0,0.0,0.0,0.0,0.0,0.0,0.0,0.0,0.0,0.0,0.0,0.0,0.0,0.0,0.0,0.0,0.0,0.0,0.0,0.0,0.0,0.0,0.0,0.0,0.0,0.0,0.0,0.0,0.0,0.0,0.0,0.0,0.0,0.0,-0.7017,-0.9335,-1.1115,0.0,-1.4144,-1.4926,-1.3282,-1.2312,-1.0855,-0.8634,0.0,0.0,0.0,0.0,0.0,0.0,0.0,0.0,0.0,0.0,0.0,0.0,0.0,0.0,0.0,0.0,0.0,0.0,0.0,0.0,0.0,0.0,0.0,0.0,0.0,0.0,0.0,0.0,0.0,0.0,0.0,0.0,0.0,0.0,0.0,0.0,0.0,0.0,0.0,0.0,0.0,0.0,0.0,0.0,0.0,0.0,0.0,0.0,0.0,0.0,0.0,0.0,0.0,0.0,0.0,0.0,0.0,0.0,0.0,0.0,0.0,0.0,0.0,0.0,0.0,0.0,0.0,0.0,0.0,0.0,0.0,0.0,0.0,0.0,0.0,0.0,0.0,0.0,0.0,0.0,0.0,0.0,0.0,0.0,0.0,0.0,0.0,0.0,0.0,0.0,0.0,0.0,0.0,0.0,0.0,0.0,0.0,0.0,0.0,0.0,0.0,0.0,-0.7085,-0.9415,-1.1214,-1.212,-1.4329,-1.5026,-1.3172,-1.225,-1.0855,0.0,0.0,0.0,0.0,0.0,0.0,0.0,0.0,0.0,0.0,0.0,0.0,0.0,0.0,0.0,0.0,0.0,0.0,0.0,0.0,0.0,0.0,0.0,0.0,0.0,0.0,0.0,0.0,0.0,0.0,0.0,0.0,0.0,0.0,0.0,0.0,0.0,0.0,0.0,0.0,0.0,0.0,0.0,0.0,0.0,0.0,0.0,0.0,0.0,0.0,0.0,0.0,0.0,0.0,0.0,0.0,0.0,0.0,0.0,0.0,0.0,0.0,0.0,0.0,0.0,0.0,0.0,0.0,0.0,0.0,0.0,0.0,0.0,0.0,0.0,0.0,0.0,0.0,0.0,0.0,0.0,0.0,0.0,0.0,0.0,0.0,0.0,0.0,0.0,0.0,0.0,0.0,0.0,0.0,0.0,0.0,0.0,0.0,0.0,0.0,0.0,0.0,0.0,0.0,-0.9405,-1.1012,-1.2024,-1.3622,-1.4161,-1.3103,-1.2065,-1.0592,-0.8618,0.0,0.0,0.0,0.0,0.0,0.0,0.0,0.0,0.0,0.0,0.0,0.0,0.0,0.0,0.0,0.0,0.0,0.0,0.0,0.0,0.0,0.0,0.0,0.0,0.0,0.0,0.0,0.0,0.0,0.0,0.0,0.0,0.0,0.0,0.0,0.0,0.0,0.0,0.0,0.0,0.0,0.0,0.0,0.0,0.0,0.0,0.0,0.0,0.0,0.0,0.0,0.0,0.0,0.0,0.0,0.0,0.0,0.0,0.0,0.0,0.0,0.0,0.0,0.0,0.0,0.0,0.0,0.0,0.0,0.0,0.0,0.0,0.0,0.0,0.0,0.0,0.0,0.0,0.0,0.0,0.0,0.0,0.0,0.0,0.0,0.0,0.0,0.0,0.0,0.0,0.0,0.0,0.0,0.0,0.0,0.0,0.0,0.0,0.0,0.0,0.0,0.0,-0.7638,-0.9566,-1.1032,-1.1676,-1.3007,-1.3434,-1.2417,-1.1559,-1.0263,-0.8407,0.0,0.0,0.0,0.0,0.0,0.0,0.0,0.0,0.0,0.0,0.0,0.0,0.0,0.0,0.0,0.0,0.0,0.0,0.0,0.0,0.0,0.0,0.0,0.0,0.0,0.0,0.0,0.0,0.0,0.0,0.0,0.0,0.0,0.0,0.0,0.0,0.0,0.0,0.0,0.0,0.0,0.0,0.0,0.0,0.0,0.0,0.0,0.0,0.0,0.0,0.0,0.0,0.0,0.0,0.0,0.0,0.0,0.0,0.0,0.0,0.0,0.0,0.0,0.0,0.0,0.0,0.0,0.0,0.0,0.0,0.0,0.0,0.0,0.0,0.0,0.0,0.0,0.0,0.0,0.0,0.0,0.0,0.0,0.0,0.0,0.0,0.0,0.0,0.0,0.0,0.0,0.0,0.0,0.0,0.0,0.0,0.0,0.0,0.0,0.0,0.0,0.0,-0.765,-0.9747,-1.1131,-1.1223,-1.2512,-1.28,-1.1464,-1.0901,-0.9911,-0.8197,0.0,0.0,0.0,0.0,0.0,0.0,0.0,0.0,0.0,0.0,0.0,0.0,0.0,0.0,0.0,0.0,0.0,0.0,0.0,0.0,0.0,0.0,0.0,0.0,0.0,0.0,0.0,0.0,0.0,0.0,0.0,0.0,0.0,0.0,0.0,0.0,0.0,0.0,0.0,0.0,0.0,0.0,0.0,0.0,0.0,0.0,0.0,0.0,0.0,0.0,0.0,0.0,0.0,0.0,0.0,0.0,0.0,0.0,0.0,0.0,-0.7914,0.0,0.0,0.0,0.0,0.0,0.0,0.0,0.0,0.0,0.0,0.0,0.0,0.0,0.0,0.0,0.0,0.0,0.0,0.0,0.0,0.0,0.0,0.0,0.0,0.0,0.0,0.0,0.0,0.0,0.0,0.0,0.0,0.0,0.0,0.0,0.0,0.0,0.0,0.0,0.0,0.0,-0.7908,-0.946,-1.0696,-1.1429,-1.1885,-1.2045,-1.1721,-1.0798,-0.9813,-0.8848,0.0,0.0,0.0,0.0,0.0,0.0,0.0,0.0,0.0,0.0,0.0,0.0,0.0,0.0,0.0,0.0,0.0,0.0,0.0,0.0,0.0,0.0,0.0,0.0,0.0,0.0,0.0,0.0,0.0,0.0,0.0,0.0,0.0,0.0,0.0,0.0,0.0,0.0,0.0,0.0,0.0,0.0,0.0,0.0,0.0,0.0,0.0,0.0,0.0,0.0,0.0,0.0,0.0,0.0,0.0,0.0,0.0,0.0,0.0,0.0,0.0,-1.0048,0.0,0.0,0.0,0.0,0.0,0.0,0.0,0.0,0.0,0.0,0.0,0.0,0.0,0.0,0.0,0.0,0.0,0.0,0.0,0.0,0.0,0.0,0.0,0.0,0.0,0.0,0.0,0.0,0.0,0.0,0.0,0.0,0.0,0.0,0.0,0.0,0.0,0.0,0.0,0.0,-0.805,-0.9544,-1.0688,-1.1378,-1.1651,-1.1669,-1.1311,-1.0738,-0.9922,-0.8789,-0.7517,0.0,0.0,0.0,0.0,0.0,0.0,0.0,0.0,0.0,0.0,0.0,0.0,0.0,0.0,0.0,0.0,0.0,0.0,0.0,0.0,0.0,0.0,0.0,0.0,0.0,0.0,0.0,0.0,0.0,0.0,0.0,0.0,0.0,0.0,0.0,0.0,0.0,0.0,0.0,0.0,0.0,0.0,0.0,0.0,0.0,0.0,0.0,0.0,0.0,0.0,0.0,0.0,0.0,0.0,-1.6317,-1.7276,-1.7822,-1.8249,-1.8488,-1.6136,-1.4544,-1.3523,0.0,0.0,0.0,0.0,0.0,0.0,0.0,0.0,0.0,0.0,0.0,0.0,0.0,0.0,0.0,0.0,0.0,0.0,0.0,0.0,0.0,0.0,0.0,0.0,0.0,-1.115,-1.0919,0.0,0.0,0.0,0.0,0.0,0.0,0.0,0.0,0.0,0.0,0.0,0.0,-0.8245,-0.9758,-1.0841,-1.1258,-1.1593,-1.1515,-1.0833,-1.075,-1.0104,-0.8619,-0.7805,-0.6746,0.0,0.0,0.0,0.0,0.0,0.0,0.0,0.0,0.0,0.0,0.0,0.0,0.0,0.0,0.0,0.0,0.0,0.0,0.0,0.0,0.0,0.0,0.0,0.0,0.0,0.0,0.0,0.0,0.0,0.0,0.0,0.0,-0.742,-0.8451,0.0,0.0,0.0,0.0,0.0,0.0,0.0,0.0,0.0,0.0,0.0,0.0,0.0,0.0,-1.7352,-1.7812,-1.8412,-1.9073,-1.9469,-2.0052,-2.0785,-2.1534,-2.2323,-2.3071,-2.316,0.0,-1.6213,-1.5212,0.0,0.0,0.0,0.0,0.0,0.0,0.0,0.0,0.0,0.0,0.0,0.0,0.0,0.0,0.0,0.0,0.0,0.0,0.0,0.0,0.0,0.0,-1.2659,-1.3341,-1.4112,-1.447,0.0,-1.1573,-0.9682,-0.9126,0.0,0.0,0.0,0.0,0.0,0.0,0.0,0.0,-0.8779,-0.9962,-1.0841,-1.1258,-1.1593,-1.1592,-1.1082,-1.0931,-1.0344,-0.9074,-0.7946,-0.6929,-0.6097,-0.5198,0.0,0.0,0.0,0.0,0.0,0.0,0.0,0.0,0.0,0.0,0.0,0.0,0.0,0.0,0.0,0.0,0.0,0.0,0.0,0.0,0.0,0.0,0.0,0.0,0.0,0.0,0.0,0.0,0.0,-0.7093,-0.8517,-0.975,-1.0206,-1.0682,0.0,0.0,0.0,0.0,0.0,0.0,0.0,0.0,0.0,-1.8233,-1.8772,-1.9803,-2.1375,-2.2348,-2.3285,-2.4315,-2.4397,-2.4998,-2.595,-2.6445,-2.6846,-2.725,-2.7557,-2.6209,-2.3457,-2.0106,-1.779,-1.6119,0.0,0.0,0.0,0.0,0.0,-1.2202,-1.2861,-1.2615,0.0,0.0,0.0,0.0,0.0,0.0,0.0,0.0,0.0,0.0,0.0,0.0,0.0,-1.5568,-1.6342,-1.6742,-1.604,-1.4757,-1.3224,0.0,-1.0665,-0.9852,-0.8922,0.0,0.0,0.0,0.0,0.0,-0.934,-1.0176,-1.0926,-1.1533,-1.1712,-1.1667,-1.1297,-1.109,-1.0446,-0.9188,-0.8358,-0.7443,-0.635,-0.5803,-0.5045,0.0,0.0,0.0,0.0,0.0,0.0,0.0,0.0,0.0,0.0,0.0,0.0,0.0,0.0,0.0,0.0,0.0,0.0,0.0,0.0,0.0,0.0,0.0,0.0,0.0,0.0,0.0,0.0,-0.8688,-0.9997,-1.1417,-1.2157,-1.292,0.0,0.0,0.0,0.0,0.0,0.0,-1.8578,-1.8924,-1.9811,-2.1364,-2.2339,-2.345,-2.4773,-2.6099,-2.7237,-2.8222,-2.8186,-2.8704,-2.9756,-2.9969,-3.018,-3.0385,-3.0646,-3.0403,-2.9451,-2.4617,-2.1653,-1.9962,-1.7843,-1.6467,-1.5715,-1.5723,-1.5437,-1.5056,-1.5566,-1.5204,-1.4317,-1.33,0.0,-1.1851,-1.1197,0.0,0.0,0.0,0.0,-1.3427,-1.431,-1.5667,-1.7009,-1.7794,-1.8544,-1.8883,-1.8085,-1.7587,-1.6499,0.0,-1.2817,-1.2048,-1.1106,0.0,0.0,0.0,0.0,-0.9575,-1.0136,-1.0805,-1.1378,-1.1829,-1.2055,-1.195,-1.1438,-1.1186,-1.0497,-0.9148,-0.8584,-0.7767,-0.6547,-0.6253,-0.5543,-0.432,0.0,0.0,0.0,0.0,0.0,0.0,0.0,0.0,0.0,0.0,0.0,0.0,0.0,0.0,0.0,0.0,0.0,0.0,0.0,0.0,0.0,0.0,0.0,0.0,0.0,0.0,0.0,0.0,0.0,-1.4115,-1.5283,0.0,0.0,0.0,0.0,-1.9525,-1.9837,-2.0594,-2.2168,-2.2126,-2.2893,-2.47,-2.5179,-2.5967,-2.7139,-2.8392,-2.9126,-2.9303,-2.9567,-2.9951,-3.0442,-3.0702,-3.1226,-3.1904,-3.2352,-3.2258,-3.1459,-2.7618,-2.5405,-2.4124,-2.1341,-2.0075,-1.9697,-1.8819,-1.8397,-1.8271,-1.8302,-1.7678,-1.667,-1.5659,-1.4253,-1.3011,-1.3389,-1.3636,0.0,0.0,-1.5452,-1.6235,-1.7298,-1.8403,-1.9426,-2.0139,-2.0933,-2.1281,-2.0499,-1.9948,-1.8744,0.0,-1.474,-1.4145,-1.3532,0.0,-1.2031,-1.1516,-1.1275,-1.1204,-1.1307,-1.2064,-1.2464,-1.2126,-1.2721,-1.2671,-1.1502,-1.1271,-1.0566,-0.9095,-0.8389,-0.7652,-0.6811,-0.6353,-0.5698,-0.4873,-0.4021,0.0,0.0,0.0,0.0,0.0,0.0,0.0,0.0,0.0,0.0,0.0,0.0,0.0,0.0,0.0,0.0,0.0,0.0,0.0,0.0,0.0,0.0,0.0,0.0,0.0,0.0,0.0,0.0,-1.6998,-1.8385,0.0,0.0,-2.1433,-2.1812,-2.2655,-2.339,-2.3872,-2.4092,-2.4387,-2.5179,-2.6569,-2.7503,-2.8512,-2.9673,-3.0864,-3.1511,-3.1645,-3.1156,-3.1168,-3.1746,-3.1796,-3.2099,-3.2686,-3.3458,-3.3694,-3.3386,-3.1557,-2.9457,-2.713,-2.4921,-2.3552,-2.2712,-2.1579,-2.0876,-2.0453,-2.0181,-1.9721,-1.9035,-1.797,-1.698,-1.6306,-1.679,-1.6965,-1.7115,-1.7609,-1.8,-1.8413,-1.9041,-1.9678,-2.028,-2.0908,-2.1417,-2.1424,-2.051,-1.9853,-1.9099,-1.7764,-1.7071,-1.6585,-1.6054,-1.5313,-1.4565,-1.3887,-1.3296,-1.2918,-1.2957,-1.3099,-1.3292,-1.3488,-1.337,-1.2947,-1.2169,-1.1259,-1.0282,-0.9193,-0.8375,-0.7698,-0.7211,-0.7013,-0.6424,-0.5313,-0.4649,-0.3925,0.0,0.0,0.0,0.0,0.0,0.0,0.0,0.0,0.0,0.0,0.0,0.0,0.0,0.0,0.0,0.0,0.0,0.0,0.0,0.0,0.0,0.0,0.0,0.0,0.0,0.0,-1.7705,-2.027,-2.2059,-2.3494,-2.4557,-2.4812,-2.4981,-2.5122,-2.5655,-2.5888,-2.5766,-2.6077,-2.6795,-2.7986,-2.9227,-3.0332,-3.1296,-3.2735,-3.3461,-3.3478,-3.2751,-3.2711,-3.3314,-3.31,-3.3308,-3.39,-3.4438,-3.4698,-3.4659,-3.396,-3.2384,-3.012,-2.7871,-2.6418,-2.5445,-2.4008,-2.3191,-2.2761,-2.2152,-2.1549,-2.0945,-2.0226,-1.9662,-1.9264,-1.9773,-1.9896,-2.0013,-2.0415,-2.0537,-2.0627,-2.086,-2.1049,-2.1235,-2.1632,-2.1785,-2.1646,-2.0793,-2.006,-1.9479,-1.9313,-1.873,-1.8104,-1.7755,-1.7153,-1.6459,-1.5693,-1.4778,-1.4167,-1.4184,-1.4043,-1.4077,-1.4413,-1.411,-1.3563,-1.2774,-1.1519,-1.0371,-0.9428,-0.8438,-0.7781,-0.7486,-0.7429,-0.6878,-0.5732,-0.4911,-0.4048,-0.3158,0.0,0.0,0.0,0.0,0.0,0.0,0.0,0.0,0.0,0.0,0.0,0.0,0.0,0.0,0.0,0.0,0.0,0.0,0.0,0.0,0.0,0.0,0.0,-1.719,-1.9126,-2.1485,-2.3992,-2.6237,-2.7474,-2.7088,-2.7497,-2.7525,-2.6941,-2.6576,-2.6632,-2.7223,-2.7205,-2.7784,-2.8999,-3.0323,-3.1343,-3.1963,-3.3987,-3.4928,-3.4743,-3.438,-3.452,-3.5092,-3.4585,-3.4765,-3.548,-3.5375,-3.5299,-3.5247,-3.4646,-3.3979,-3.3101,-3.0179,-2.8671,-2.7878,-2.6093,-2.538,-2.5138,-2.4088,-2.3184,-2.2474,-2.2474,-2.2075,-2.1674,-2.2215,-2.2342,-2.2428,-2.2947,-2.2923,-2.2765,-2.2775,-2.2608,-2.2397,-2.2407,-2.2293,-2.1994,-2.1618,-2.0671,-2.0003,-2.0429,-1.9552,-1.8674,-1.8485,-1.8147,-1.7633,-1.6854,-1.5703,0.0,-1.4959,-1.4933,-1.488,-1.476,-1.4916,-1.4494,-1.3251,-1.2007,-1.087,-0.9764,-0.8558,-0.7808,-0.7607,-0.748,-0.6995,-0.6126,-0.4805,-0.3747,-0.2924,0.0,0.0,0.0,0.0,0.0,0.0,0.0,0.0,0.0,0.0,0.0,0.0,0.0,0.0,0.0,0.0,0.0,0.0,0.0,0.0,0.0,0.0,-2.0722,-2.0631,-2.2953,-2.5583,-2.8006,-2.9414,-3.0283,-3.0485,-2.9838,-2.931,-2.919,-2.8384,-2.798,-2.8201,-2.775,-2.8314,-3.0093,-3.1089,-3.2341,-3.3988,-3.6045,-3.6792,-3.6279,-3.6005,-3.5757,-3.56,-3.5124,-3.5092,-3.548,-3.5375,-3.5299,-3.5247,-3.4646,-3.3979,-3.3232,-3.1351,-3.0194,-2.9352,-2.727,-2.5972,-2.5246,-2.4943,-2.4426,-2.3901,-2.3901,-2.3681,-2.3389,-2.3455,-2.3159,-2.2845,-2.2875,-2.2404,-2.1924,-2.2274,-2.2398,-2.2473,-2.282,-2.2715,-2.2423,-2.2013,-2.0874,-1.9921,-2.0031,-1.9793,-1.957,-1.9502,-1.8702,-1.7934,-1.7551,-1.6489,0.0,-1.6046,-1.5716,-1.5572,-1.5839,-1.5687,-1.5101,-1.3918,-1.2686,-1.1303,0.0,-0.8558,-0.7808,-0.7607,-0.7711,-0.7367,-0.6555,-0.5506,-0.4496,0.0,0.0,0.0,0.0,0.0,0.0,0.0,0.0,0.0,0.0,0.0,0.0,0.0,0.0,0.0,0.0,0.0,0.0,0.0,0.0,0.0,0.0,-2.3818,-2.5893,-2.6803,-2.7761,-2.9223,-3.1559,-3.3137,-3.3734,-3.3069,-3.2386,-3.1634,-3.0713,-2.9826,-2.9345,-2.9404,-2.9024,-2.9603,-3.1283,-3.2419,-3.3895,-3.5796,-3.7643,-3.8436,-3.8227,-3.758,-3.72,-3.7069,-3.629,-3.6134,0.0,-3.6178,-3.6018,-3.5966,-3.5365,-3.4817,0.0,0.0,0.0,0.0,0.0,-2.6764,-2.6129,-2.6129,-2.58,-2.5323,-2.5323,-2.5079,-2.4709,-2.4487,-2.3792,-2.3028,-2.2737,-2.1919,-2.1262,-2.1932,-2.2269,-2.26,-2.3239,-2.3112,-2.2772,-2.2368,-2.1,-1.9939,-2.0104,0.0,0.0,-1.9802,-1.9043,-1.8314,-1.7857,-1.6857,-1.6155,-1.6254,-1.5913,-1.5789,-1.597,-1.5874,-1.5399,-1.4342,-1.3244,0.0,0.0,0.0,-0.8084,-0.7731,-0.7709,0.0,0.0,0.0,0.0,0.0,0.0,0.0,0.0,-0.126,-0.0769,0.0,0.0,0.0,0.0,0.0,0.0,0.0,0.0,0.0,0.0,0.0,0.0,0.0,0.0,0.0,0.0,-2.8442,-3.1548,-3.3853,-3.3046,-3.2907,-3.4797,-3.6688,-3.7096,-3.5068,-3.4838,-3.397,-3.194,-3.1145,-3.0778,-3.0866,0.0,0.0,0.0,0.0,-3.5683,-3.7543,-3.9,-3.9911,-4.0287,-3.9127,-3.8708,-3.8953,-3.7743,-3.7459,-3.7874,-3.726,-3.6998,-3.6959,-3.6358,-3.5934,-3.5434,-3.2855,-3.1201,-3.0102,-2.8535,-2.7836,-2.7646,-2.7598,0.0,0.0,-2.6695,-2.6308,-2.5742,-2.5293,-2.4323,-2.3247,-2.2715,-2.168,-2.0948,-2.1738,-2.2305,-2.2861,-2.3662,-2.3534,-2.3159,-2.2789,-2.1379,-2.025,-2.0552,-2.0332,-1.9998,-1.9688,-1.9295,-1.8701,-1.787,-1.6861,-1.612,-1.5922,-1.5692,-1.559,-1.5582,0.0,0.0,-1.4552,-1.3652,-1.2541,-1.1067,-0.955,-0.8499,-0.8009,-0.7711,-0.7425,-0.7191,-0.6686,-0.5959,-0.503,-0.4845,-0.431,-0.3443,-0.2496,-0.2033,0.0,0.0,0.0,0.0,0.0,0.0,0.0,0.0,0.0,0.0,0.0,0.0,0.0,0.0,0.0,-2.8185,-3.0597,-3.3177,-3.5994,-3.7631,-3.8429,-3.8161,-3.7856,-3.7524,-3.7194,-3.5837,-3.4734,-3.4175,-3.302,-3.2578,-3.3064,-3.3194,0.0,-3.5799,-3.6044,-3.7292,-3.9672,-4.0738,-4.1311,-4.1397,0.0,0.0,-3.9428,-3.8272,-3.7808,-3.7874,-3.726,-3.6998,-3.6959,-3.6358,-3.5758,-3.5111,-3.3748,-3.2252,-3.0827,-3.0493,-3.0108,-2.9672,-2.9488,-2.888,-2.8169,-2.7931,-2.7352,-2.6621,-2.5801,-2.4932,0.0,-2.3188,-2.2344,-2.1748,-2.2266,-2.2969,-2.3672,-2.418,-2.4151,-2.4061,-2.3985,-2.2824,-2.1751,-2.1504,-2.1394,-2.1028,-2.0008,-1.9385,-1.8633,-1.7648,-1.6447,-1.5686,-1.5817,-1.5212,-1.4967,-1.5335,-1.5605,-1.5358,-1.4276,-1.386,-1.2887,-1.1038,-0.9512,-0.8662,-0.856,-0.8477,-0.8424,-0.8361,-0.7951,-0.7325,-0.648,-0.6299,-0.5791,-0.5016,-0.3663,-0.2827,0.0,0.0,0.0,0.0,0.0,0.0,0.0,0.0,0.0,0.0,0.0,-2.3957,-2.5593,0.0,-2.9284,-3.1249,-3.3387,-3.5739,-3.8428,-3.997,-4.0666,-4.0159,-3.9967,-3.9697,-3.916,-3.7677,-3.6614,-3.6233,-3.4931,-3.4599,-3.5604,-3.5657,-3.6497,-3.8332,-3.8466,-3.9442,-4.1372,-4.2043,-4.2284,-4.2176,-4.1097,-4.0346,-3.9911,-3.8769,-3.8253,-3.8239,-3.7936,-3.7701,-3.7584,-3.7161,-3.6638,-3.6034,-3.5563,-3.395,-3.1934,-3.1839,-3.1458,-3.0979,-3.0603,-2.9802,-2.8943,-2.8526,-2.7743,-2.6894,-2.626,-2.5293,-2.4287,-2.3643,-2.2705,-2.2031,-2.2656,-2.331,-2.3955,-2.459,-2.4544,-2.4278,-2.4278,-2.3401,-2.2474,-2.2062,-2.1989,-2.1604,-2.0271,-1.9643,-1.8923,-1.7787,-1.636,-1.5389,-1.5301,-1.4725,-1.4449,-1.4702,-1.5047,-1.5001,-1.4405,-1.3668,-1.2671,-1.1285,-1.0117,-0.9444,-0.9312,-0.9185,-0.9047,-0.8903,-0.8713,-0.8139,-0.7207,-0.7016,-0.6513,-0.58,-0.5032,-0.4502,0.0,0.0,0.0,0.0,0.0,0.0,0.0,0.0,-2.0202,-2.4331,-2.5918,-2.7263,-2.9631,-3.0994,-3.2347,-3.4151,-3.6058,-3.816,-4.0565,-4.153,-4.1937,-4.1778,-4.2001,-4.1832,-4.0943,-3.975,-3.8802,-3.8235,-3.7164,-3.7019,-3.8107,-3.8416,-3.9254,-4.0714,-4.0943,-4.1626,-4.286,-4.2908,-4.2881,-4.2729,-4.1281,-4.0532,-4.0358,-3.9234,-3.8756,-3.8769,-3.8679,-3.8453,-3.8122,-3.7979,-3.7657,-3.7261,-3.7261,-3.5793,-3.3675,-3.3301,-3.283,-3.2319,-3.1695,-3.0798,-2.9803,-2.9187,-2.8208,-2.7239,-2.6818,-2.583,-2.4834,-2.4414,-2.3428,-2.2656,-2.334,-2.3769,-2.4219,-2.4865,-2.4708,-2.4391,-2.4343,-2.3706,-2.3014,-2.2546,-2.2354,-2.1862,-2.053,-1.974,-1.8979,-1.7895,-1.6368,-1.5222,-1.4914,-1.4365,-1.4001,-1.4148,-1.4337,-1.4429,-1.4389,-1.3343,-1.2396,-1.1715,-1.0942,-1.0382,-1.0069,-0.9853,-0.9612,-0.9336,-0.9269,-0.8734,-0.7728,-0.7504,-0.6987,-0.6236,-0.6281,-0.608,-1.9601,-2.0032,-2.1431,-2.2313,-2.187,-2.1695,0.0,0.0,-2.4474,-2.8003,-2.9933,-3.1518,-3.3224,-3.3613,-3.4443,-3.6784,-3.7916,-3.9323,-4.1694,-4.3254,-4.4055,-4.3801,-4.2735,-4.2158,-4.2498,-4.1597,-4.0793,-4.0299,-4.0222,-4.0206,-4.0184,-4.1803,-4.2892,-4.3198,-4.3022,-4.3315,-4.4183,-4.3159,-4.2734,-4.2941,-4.1365,-4.0631,-4.0602,-3.959,-3.9268,-3.9472,-3.9042,-3.853,-3.7946,-3.79,-3.7854,-3.7808,-3.7808,-3.7335,-3.6531,-3.5625,-3.4908,-3.4352,-3.3569,-3.2592,-3.1563,-3.0522,-2.9411,-2.8404,-2.7761,-2.7148,-2.6641,-2.6211,-2.543,-2.4783,-2.4824,-2.494,-2.4904,-2.4784,-2.4803,-2.4767,-2.4513,-2.4239,-2.3846,-2.3145,-2.2584,-2.1839,-2.0744,-1.9376,-1.8211,-1.7554,-1.6285,-1.5323,-1.5092,-1.4195,-1.3654,-1.3896,-1.3771,-1.3647,-1.3607,-1.305,-1.2578,-1.2246,-1.1663,-1.1128,-1.0617,-1.0569,-1.043,-1.0166,-0.9868,-0.9302,-0.8488,-0.823,-0.7602,-0.6712,-0.6855,-0.6558,-2.2029,-2.2364,0.0,0.0,-2.51,-2.5407,-2.7577,-2.7968,-2.8834,-3.2207,-3.375,-3.4844,-3.5983,-3.6173,-3.682,0.0,-3.9824,-4.0982,-4.2876,-4.4461,-4.4974,-4.3723,-4.246,-4.1885,-4.234,-4.1397,-4.0947,-4.1374,-4.1141,-4.1643,-4.3143,-4.379,-4.4539,-4.5433,-4.4805,-4.461,-4.4799,-4.3762,-4.3099,-4.2795,-4.1323,-4.0631,-4.0659,-3.9823,-3.9502,-3.956,-3.8966,-3.8408,-3.79,-3.79,-3.79,-3.79,-3.7703,-3.7413,-3.7062,-3.6628,-3.6156,-3.5596,-3.4823,-3.3598,-3.2314,-3.1381,-3.0005,-2.8644,-2.8361,-2.7891,-2.7363,-2.7178,-2.6504,-2.584,-2.584,-2.5548,-2.5218,-2.5073,-2.4857,-2.4637,-2.4529,-2.4341,-2.3934,-2.3037,-2.2417,-2.1617,-2.0386,-1.9019,-1.7889,-1.7195,-1.5802,-1.4754,-1.4642,-1.3652,-1.317,-1.3634,-1.3698,-1.3803,-1.396,-1.3622,-1.3357,-1.3248,-1.2747,-1.2313,-1.2131,-1.1698,-1.1251,-1.084,-1.0423,-0.9694,-0.8649,-0.8366,-0.7841,-0.701,-0.6911,-0.6791,-2.4029,0.0,0.0,-2.7327,-2.8049,-2.8936,-3.0967,-3.1666,-3.2721,-3.5618,-3.6576,-3.7217,-3.8253,-3.8078,0.0,-4.0329,-4.1332,-4.2391,-4.3912,-4.5247,-4.5475,-4.4013,-4.2425,-4.1542,-4.1797,-4.1032,-4.0959,-4.2047,-4.1947,-4.2822,-4.5127,-4.5211,-4.5698,-4.6775,-4.6039,-4.5463,-4.5095,-4.4097,-4.3305,-4.2688,-4.1254,-4.0631,-4.0645,-3.9924,-3.9546,-3.9458,-3.8935,-3.8376,-3.79,-3.79,-3.7854,-3.7762,-3.7564,-3.7307,-3.7015,-3.7015,-3.6734,-3.6263,-3.5464,-3.4201,-3.2778,-3.188,-3.0307,-2.8781,-2.8727,-2.8298,-2.7894,-2.7894,-2.7314,-2.6738,-2.6738,-2.6206,-2.563,-2.558,-2.5088,-2.4647,-2.4507,-2.4225,-2.3656,-2.2728,-2.1981,-2.1138,-2.003,-1.8699,-1.7598,-1.7004,-1.5518,-1.4431,-1.4305,-1.3423,-1.2945,-1.3312,-1.3689,-1.3999,-1.4165,-1.4014,-1.3906,-1.3906,-1.355,-1.3308,-1.3191,-1.2618,-1.1989,-1.1397,-1.0809,-0.9949,-0.8761,-0.8543,-0.8029,-0.7272,-0.7096,-0.7056,0.0,0.0,-2.8382,-2.9212,-3.0681,-3.2162,-3.3025,-3.4378,-3.5947,-3.7675,-3.794,-3.8358,-4.0013,-3.8988,-3.8689,-4.1158,-4.2231,-4.3287,-4.4756,-4.5515,-4.5781,-4.547,-4.2987,-4.1264,0.0,-4.0928,-4.127,-4.2408,-4.3182,-4.4136,-4.5337,-4.6255,-4.6757,-4.6808,-4.6392,-4.5818,-4.511,-4.3927,-4.309,-4.2688,-4.1254,-4.0631,-4.0645,-3.9924,-3.9458,-3.921,-3.897,-3.853,-3.79,-3.79,-3.7749,-3.7505,-3.7505,-3.7168,-3.6709,-3.6709,-3.6581,-3.6263,-3.5464,-3.4311,-3.3001,-3.1931,-3.0463,-2.9036,-2.8781,-2.8504,-2.8271,-2.8271,-2.7959,-2.7679,-2.7679,-2.7088,-2.6503,-2.6237,-2.5618,-2.4974,-2.4494,-2.3824,-2.3079,-2.2266,-2.1219,-2.0285,-1.9695,-1.8327,-1.7217,-1.6936,-1.5636,-1.4608,-1.4321,-1.3716,-1.3217,-1.3039,-1.3566,-1.3915,-1.3894,-1.3912,-1.3906,-1.3906,-1.3888,-1.3767,-1.3513,-1.313,-1.262,-1.1807,-1.1017,-1.004,-0.8905,-0.8775,-0.8223,-0.7411,-0.7538,-0.7429,0.0,0.0,-3.1168,-3.2597,-3.4655,-3.6543,-3.7315,-3.8267,-3.9133,-3.9709,-3.833,-3.7408,-3.8644,-3.7865,-3.8038,-4.1157,-4.3245,-4.4764,-4.562,-4.6663,-4.6847,-4.5469,-4.3335,0.0,0.0,0.0,0.0,-4.2116,-4.3024,-4.4402,-4.6494,-4.7073,-4.7297,-4.721,-4.6408,-4.5649,-4.4924,-4.3849,-4.309,-4.2688,-4.171,-4.1002,-4.0562,-3.9996,-3.9465,-3.897,-3.8594,-3.8226,-3.79,-3.7703,-3.7564,-3.7459,-3.7108,-3.7104,-3.7207,-3.6508,-3.631,-3.6305,-3.5683,-3.4458,-3.3101,-3.2348,-3.0774,-2.9079,-2.8983,-2.8664,-2.8291,-2.8291,-2.7988,-2.7718,-2.7718,-2.7023,-2.6326,-2.6224,-2.5503,-2.4766,-2.4206,-2.3368,-2.2476,-2.1505,-2.0381,-1.9434,-1.8882,-1.7936,-1.6931,-1.6033,-1.5092,-1.4289,-1.3715,-1.3436,-1.3365,-1.3579,-1.377,-1.3976,-1.4129,-1.4165,-1.4165,-1.4165,-1.3981,-1.3831,-1.3715,-1.2967,-1.2228,-1.156,-1.0762,-0.9799,-0.8745,-0.8484,-0.8062,-0.7543,-0.7415,-0.7201,-3.0274,-3.2601,-3.4653,-3.5773,-3.7963,-3.9906,-4.0068,-4.0456,-4.0585,-3.9973,-3.768,-3.6115,-3.7074,-3.6681,-3.7315,-4.0712,-4.3541,-4.5603,-4.6436,-4.7457,-4.7582,-4.6197,-4.4053,0.0,0.0,0.0,0.0,-4.1499,-4.2392,-4.4001,-4.655,-4.7083,-4.7301,-4.7304,-4.6202,-4.5337,-4.4715,-4.3786,-4.3129,-4.2823,-4.2181,-4.1435,-4.0718,-4.0289,-3.9779,-3.9142,-3.8609,-3.8254,-3.8035,-3.7642,-3.74,-3.7168,-3.6815,-3.7017,-3.7341,-3.6474,-3.6051,-3.588,-3.5345,-3.4164,-3.2812,-3.2308,-3.0733,-2.9079,-2.9079,-2.8708,-2.8291,-2.8291,-2.8096,-2.7891,-2.7891,-2.7256,-2.6617,-2.6617,-2.5899,-2.5042,-2.4358,-2.3358,-2.2252,-2.1154,-1.9964,-1.8945,-1.8485,-1.7639,-1.666,-1.5698,-1.5105,-1.4491,-1.3695,-1.368,-1.3788,-1.4,-1.4112,-1.4211,-1.431,-1.4298,-1.4298,-1.4298,-1.4056,-1.3834,-1.3668,-1.2762,-1.1868,-1.114,-1.0433,-0.9606,-0.8645,-0.8415,-0.8072,-0.7607,-0.7368,-0.7094,-3.3236,-3.6189,-3.8758,-3.8759,-4.064,-4.225,-4.1295,-4.0982,-4.0383,-3.8611,-3.6091,-3.449,0.0,0.0,-3.6417,-3.9822,-4.31,-4.5726,-4.7138,-4.7815,-4.8,0.0,0.0,0.0,0.0,0.0,0.0,-4.0718,0.0,-4.3126,-4.5716,-4.6483,-4.6897,-4.7051,-4.5789,-4.4902,-4.4572,-4.3714,-4.3205,-4.3076,-4.261,-4.1966,-4.1162,-4.0883,-4.0334,-3.9573,-3.8998,-3.8608,-3.8355,-3.7764,-3.7193,-3.6722,-3.67,-3.6912,-3.7175,-3.6603,-3.5939,-3.5134,-3.4572,-3.3469,-3.2258,-3.1721,-3.0422,-2.9079,-2.9079,-2.8708,-2.8291,-2.8291,-2.8291,-2.8291,-2.8291,-2.7862,-2.7377,-2.7377,-2.6682,-2.5745,-2.4842,-2.36,-2.2301,-2.1186,-1.9798,-1.8784,-1.8501,-1.7509,-1.6533,-1.5911,-1.5625,-1.5124,-1.4242,-1.4376,-1.4436,-1.4237,-1.4471,-1.4556,-1.4346,-1.4328,-1.4286,-1.4292,-1.4042,-1.368,-1.3351,-1.2478,-1.1621,-1.0668,-1.0084,-0.9372,-0.8484,-0.8484,-0.8159,-0.7563,-0.7398,-0.7117,-3.7354,-4.019,-4.2302,-4.2299,-4.376,-4.463,-4.2455,-4.1404,-4.0241,-3.789,-3.4298,-3.2069,0.0,0.0,0.0,-3.8041,-4.1869,0.0,-4.6234,-4.7914,0.0,0.0,0.0,-4.4421,-4.3447,-4.1782,0.0,0.0,-4.266,-4.4194,-4.6199,-4.7,-4.7175,-4.674,-4.5499,-4.4624,-4.4082,-4.3567,-4.3541,-4.396,-4.379,-4.3229,-4.2287,-4.1848,-4.0924,-3.9599,-3.9455,-3.9081,-3.8556,-3.8063,-3.7505,-3.7007,-3.7048,-3.736,-3.7703,-3.6959,-3.627,-3.5515,-3.4134,-3.2705,-3.1483,-3.1341,-3.0318,-2.9079,-2.9079,-2.8708,-2.8291,-2.8291,-2.8291,-2.8291,-2.8291,-2.7862,-2.7377,-2.7377,-2.6682,-2.5692,-2.4626,-2.3216,-2.1756,-2.0659,-1.9217,-1.8131,-1.7902,-1.7439,-1.6958,-1.654,-1.6233,-1.5779,-1.4901,-1.4847,-1.4784,-1.4523,-1.4756,-1.4844,-1.4637,-1.4588,-1.4489,-1.4232,-1.3594,-1.2962,-1.2388,-1.1566,-1.0779,-1.0025,-0.9706,-0.9154,-0.8484,-0.8266,-0.7874,-0.735,-0.7039,-0.6739,-3.9595,-4.2214,-4.4088,-4.3692,-4.46,-4.4904,-4.2326,-4.0438,-3.853,-3.6007,-3.2017,0.0,0.0,0.0,0.0,0.0,0.0,0.0,-4.5286,-4.6746,-4.7423,0.0,-4.524,0.0,-4.3807,-4.2694,-4.2331,0.0,-4.3761,-4.4677,-4.5857,-4.6764,-4.6999,-4.6477,-4.5163,-4.4141,-4.3407,-4.3346,-4.3712,-4.4516,-4.4513,-4.4129,-4.3375,-4.2934,-4.1833,-4.0344,0.0,-3.9721,-3.9251,-3.8729,-3.8207,-3.7652,-3.7716,-3.7988,-3.8279,-3.7321,-3.6282,-3.5127,-3.3863,-3.2212,-3.0713,-3.0979,-3.0259,-2.937,-2.9273,-2.8823,-2.8291,-2.8291,-2.8291,-2.8291,-2.8291,-2.7862,-2.7368,-2.726,-2.6542,-2.5568,-2.4369,-2.297,-2.1515,-1.9911,-1.8981,-1.8337,-1.8029,-1.7675,-1.7293,-1.6947,-1.6589,-1.614,-1.5645,-1.5424,-1.5319,-1.5177,-1.5303,-1.532,-1.5053,-1.4865,-1.4485,-1.3857,-1.2946,-1.2058,-1.1305,-1.058,-0.9969,-0.943,-0.9268,-0.8878,-0.8263,-0.7989,-0.7558,-0.7054,-0.6647,-0.6406,-4.0816,-4.3144,-4.4867,-4.3989,-4.418,-4.3895,-4.1119,-3.8468,-3.5846,-3.3258,0.0,-2.6889,-2.7929,0.0,-3.0331,-3.4589,0.0,-4.1742,-4.3978,-4.4782,-4.5201,-4.5385,-4.3667,-4.2806,-4.3724,-4.3558,-4.3804,-4.4765,-4.4976,-4.5122,-4.538,-4.6241,-4.6499,-4.5949,-4.4541,-4.3424,-4.2635,-4.2979,-4.366,-4.4573,-4.4774,-4.4626,-4.4219,-4.3729,-4.2701,-4.1285,0.0,0.0,-4.0102,-3.956,-3.8974,-3.847,-3.8497,-3.8691,-3.878,-3.7691,-3.6192,-3.4542,-3.3726,-3.2003,-3.024,-3.0611,-3.0308,-2.9788,-2.9525,-2.8947,-2.8379,-2.8379,-2.834,-2.8291,-2.8291,-2.7862,-2.7323,-2.6989,-2.6227,-2.5229,-2.4047,-2.2749,-2.125,-1.9312,-1.8925,-1.8831,-1.8544,-1.8023,-1.7528,-1.7253,-1.673,-1.6319,-1.6279,-1.5997,-1.5903,-1.595,-1.596,-1.5849,-1.5631,-1.508,-1.439,-1.3527,-1.2387,-1.1314,-1.0351,-0.9818,-0.9348,-0.8994,-0.8942,-0.8651,-0.8017,-0.7759,-0.7319,-0.6737,-0.6325,-0.6127,-4.2373,-4.442,-4.574,-4.4826,-4.4115,-4.2605,-3.8675,-3.5741,0.0,0.0,0.0,-2.5317,-2.6866,-2.7148,0.0,-3.2834,0.0,0.0,0.0,0.0,-4.3163,0.0,0.0,0.0,0.0,0.0,0.0,0.0,0.0,0.0,-4.6383,-4.6463,-4.5809,-4.4105,-4.3111,-4.2266,-4.1579,-4.2278,-4.2961,-4.3557,-4.4194,-4.4317,-4.3937,-4.3252,-4.236,-4.1311,0.0,0.0,-4.0311,-4.0073,-3.9468,-3.8741,-3.9041,-3.9045,-3.8817,-3.8105,-3.6717,-3.5001,-3.3948,-3.2452,-3.0978,-3.0579,-3.0244,-2.9972,-2.9917,-2.938,-2.8809,-2.8809,-2.8564,-2.8291,-2.8291,-2.7862,-2.726,-2.6699,-2.5771,-2.4612,-2.3424,-2.1794,-2.0294,-1.9092,-1.8925,-1.8831,-1.8544,-1.8196,-1.7782,-1.7286,-1.6854,-1.6447,-1.6026,-1.6087,-1.6215,-1.6214,-1.6246,-1.6182,-1.6156,-1.5367,-1.4538,-1.3882,-1.2665,-1.1503,-1.0341,-0.9945,-0.9617,-0.9303,-0.9306,-0.8956,-0.8276,-0.8039,-0.7464,-0.6558,-0.6305,-0.6103,-4.2077,-4.369,-4.446,-4.3106,-4.2063,-4.0388,-3.66,0.0,0.0,0.0,0.0,-2.3428,-2.469,0.0,0.0,0.0,0.0,0.0,0.0,0.0,0.0,0.0,0.0,0.0,0.0,0.0,0.0,0.0,0.0,0.0,-4.6503,-4.5939,-4.484,-4.3135,-4.233,-4.1537,-4.0703,-4.1182,-4.1838,-4.26,-4.3088,-4.3344,-4.3307,-4.2867,-4.2177,-4.1311,-4.1311,0.0,-4.083,-4.0731,-4.0327,-3.9709,-3.9853,-3.9601,-3.9013,-3.8089,-3.663,-3.4914,-3.373,-3.2342,-3.1033,-3.0734,-3.0561,-3.0317,-3.0138,-2.9711,-2.9209,-2.8984,-2.8779,-2.8564,-2.835,-2.7862,-2.7206,-2.6472,-2.4825,-2.3046,-2.1858,-2.078,-1.989,-1.9293,-1.9152,-1.9112,-1.8971,-1.8571,-1.813,-1.7682,-1.7073,-1.659,-1.6358,-1.6332,-1.6276,-1.6317,-1.6426,-1.6489,-1.651,-1.5623,-1.4639,-1.3492,-1.2307,-1.1105,-0.9899,-0.9668,-0.9555,-0.9381,-0.9381,-0.9055,-0.835,-0.7953,-0.7373,-0.6605,-0.6177,-0.595,-4.0894,-4.2304,-4.2741,-4.0806,-3.9486,-3.7724,-3.4184,-3.0824,0.0,0.0,-2.352,-2.1783,-2.2657,0.0,0.0,0.0,0.0,0.0,0.0,0.0,0.0,0.0,0.0,0.0,0.0,0.0,0.0,0.0,0.0,0.0,-4.6018,-4.495,-4.3789,-4.2423,-4.1672,-4.0813,-3.9852,-4.0124,-4.0721,-4.1673,-4.1964,-4.2345,-4.2695,-4.2444,-4.1931,-4.1311,-4.1311,0.0,0.0,-4.1311,-4.0959,-4.0504,-4.0504,-3.9993,-3.9154,-3.8015,-3.6468,-3.4759,-3.3618,-3.217,-3.0889,-3.0889,-3.0828,-3.0715,-3.0409,-3.0049,-2.9629,-2.9287,-2.9062,-2.8848,-2.8516,-2.793,-2.7098,-2.5753,-2.3648,-2.1596,-2.0392,-1.9873,-1.9642,-1.9424,-1.9424,-1.9424,-1.9424,-1.8885,-1.839,-1.7981,-1.7219,-1.662,-1.6452,-1.6285,-1.6187,-1.6191,-1.6442,-1.6636,-1.6649,-1.5682,-1.4443,-1.3049,-1.1852,-1.0697,-0.9535,-0.9476,-0.9476,-0.9476,-0.9417,-0.9104,-0.8485,-0.7814,-0.7215,-0.6681,-0.6101,-0.5849,-3.9189,-4.0895,-4.1694,-3.911,-3.7156,-3.4791,-3.0716,0.0,0.0,-2.2754,-2.1399,-2.0896,-2.1758,0.0,0.0,0.0,0.0,0.0,0.0,0.0,0.0,0.0,0.0,0.0,0.0,0.0,0.0,0.0,0.0,0.0,0.0,-4.3743,-4.264,-4.1713,-4.0702,-3.9791,-3.9034,-3.9417,-3.9993,-4.0783,-4.1172,-4.1735,-4.2404,-4.1967,-4.1597,-4.1311,0.0,0.0,0.0,-4.1311,-4.0959,-4.0504,-4.0504,-3.9993,-3.9206,-3.8303,-3.6642,-3.4759,-3.3853,-3.241,-3.0889,-3.0889,-3.0859,-3.0888,-3.083,-3.0508,-3.0127,-3.0088,-2.9521,-2.8906,-2.8867,-2.8141,-2.6699,-2.3927,-2.2248,-2.0952,-1.9764,-1.9482,-1.9424,-1.9424,-1.9424,-1.9424,-1.9424,-1.8885,-1.828,-1.7697,-1.7114,-1.6439,-1.5714,-1.5811,-1.5962,-1.5937,-1.6132,-1.633,-1.6618,-1.5182,-1.382,-1.2815,-1.1819,-1.0804,-0.9781,-0.9781,-0.9781,-0.9781,-0.9479,-0.9112,-0.8688,-0.7848,-0.7188,-0.6683,-0.617,-0.5908,-3.7091,-3.8613,-3.922,-3.7093,-3.5262,-3.3043,-2.94,0.0,-2.4127,-2.2207,-2.1118,-2.06,-2.0948,-2.1306,0.0,0.0,0.0,0.0,0.0,0.0,0.0,0.0,0.0,0.0,0.0,0.0,0.0,0.0,0.0,0.0,0.0,-4.26,-4.156,-4.0347,-3.9678,-3.9011,-3.8317,-3.8477,-3.9057,-4.005,-4.0158,-4.0751,-4.172,-4.1547,-4.1411,-4.1311,0.0,0.0,0.0,-4.1311,-4.0959,-4.0504,-4.0504,-3.9993,-3.9154,-3.8068,-3.6522,-3.4759,-3.3674,-3.2238,-3.0889,-3.0889,-3.0889,-3.0889,-3.0889,-3.0762,-3.0557,-3.0273,-2.9951,-2.9514,-2.8852,-2.7233,-2.5267,-2.2974,-2.168,-2.0608,-1.9591,-1.9424,-1.9424,-1.9424,-1.9424,-1.9424,-1.9424,-1.8739,-1.8028,-1.7461,-1.6537,-1.5713,-1.5024,-1.4924,-1.4925,-1.5115,-1.558,-1.5873,-1.5775,-1.4646,-1.3401,-1.2161,-1.139,-1.0668,-0.9819,-0.9822,-0.97,-0.9518,-0.9396,-0.9067,-0.8533,-0.7792,-0.7182,-0.6778,-0.6206,-0.5916,-3.4624,-3.6186,-3.6812,-3.5111,-3.3471,-3.136,0.0,0.0,-2.3373,-2.1753,-2.0929,-2.0482,-2.0467,-2.0759,-2.1451,0.0,0.0,0.0,0.0,0.0,0.0,0.0,0.0,0.0,0.0,0.0,0.0,0.0,0.0,0.0,0.0,-4.1713,-4.0717,-3.9461,-3.9029,-3.853,-3.79,-3.79,-3.8383,-3.9337,-3.9337,-3.986,-4.0814,-4.0814,-4.0814,-4.0814,0.0,0.0,0.0,-4.0984,-4.07,-4.026,-4.044,-3.9993,-3.9154,-3.8068,-3.6522,-3.4869,-3.3674,-3.2285,-3.1005,-3.0947,-3.0889,-3.0889,-3.0889,-3.0889,-3.082,-3.0488,-3.0198,-2.9612,-2.82,-2.6256,-2.4172,-2.2271,-2.1174,-2.0378,-1.9591,-1.9424,-1.9424,-1.9424,-1.9424,-1.9366,-1.9243,-1.848,-1.7559,-1.6768,-1.5721,-1.4735,-1.3938,-1.3739,-1.3736,-1.3946,-1.4338,-1.4597,-1.4677,-1.3784,-1.2706,-1.1511,-1.097,-1.0425,-0.9822,-0.97,-0.9518,-0.9275,-0.9095,-0.8854,-0.8369,-0.7633,-0.7143,-0.69,-0.6226,-0.5855,-3.1777,-3.3709,-3.4749,-3.3217,-3.1617,-2.9573,0.0,-2.4223,-2.2536,-2.0867,-2.0509,-2.048,-2.041,-2.0073,-2.0101,-2.0997,0.0,0.0,0.0,0.0,0.0,0.0,0.0,0.0,0.0,0.0,0.0,0.0,0.0,0.0,0.0,-4.1099,-4.0187,-3.9336,-3.8872,-3.8389,-3.79,-3.79,-3.8174,-3.8723,-3.8723,-3.9037,-3.9625,-3.9625,-3.9625,0.0,0.0,0.0,0.0,-4.02,-4.0078,-3.9697,-4.0273,-3.9993,-3.9206,-3.8303,-3.6858,-3.5134,-3.4011,-3.2571,-3.1276,-3.1005,-3.0889,-3.0889,-3.0889,-3.0889,-3.0889,-3.0889,-3.0103,-2.8821,-2.6819,-2.5357,-2.3837,-2.1698,-2.0723,-2.0162,-1.954,-1.9424,-1.9424,-1.9424,-1.9424,-1.9301,-1.8939,-1.8116,-1.7029,-1.5614,-1.4643,-1.3506,-1.222,-1.2236,-1.2417,-1.2417,-1.2118,-1.2348,-1.3329,-1.2665,-1.1812,-1.0849,-1.0486,-1.0122,-0.9822,-0.9457,-0.9275,-0.9275,-0.8732,-0.843,-0.8369,-0.7391,-0.69,-0.69,-0.6226,-0.573,-2.8332,-3.0511,-3.2015,-3.0517,-2.9334,-2.7859,-2.5218,-2.3302,-2.1797,-2.0724,-2.0499,-2.048,-2.041,-2.0064,-2.0072,-2.0892,-2.2109,0.0,0.0,0.0,0.0,0.0,0.0,0.0,0.0,0.0,0.0,0.0,0.0,0.0,0.0,-4.1029,-4.0112,-3.8859,-3.8498,-3.8181,-3.79,-3.79,-3.8174,-3.871,-3.871,-3.9024,-3.9612,-3.9612,0.0,0.0,0.0,0.0,0.0,-3.9795,-3.9728,-3.9645,-3.9825,-3.9741,-3.9478,-3.8566,-3.7126,-3.5453,-3.4514,-3.296,-3.1267,-3.1218,-3.1054,-3.0889,-3.0889,-3.0889,-3.0889,-3.0889,-2.9987,-2.8586,-2.6856,-2.5127,-2.3294,-2.1293,-2.0424,-1.9873,-1.9482,-1.9424,-1.9424,-1.9424,-1.9424,-1.9301,-1.8939,-1.7925,-1.6663,-1.5196,-1.394,-1.2632,-1.1428,-1.1219,-1.1232,-1.1232,-1.1065,-1.1265,-1.2038,-1.1481,-1.0793,-1.0176,-1.0004,-0.9822,-0.9457,-0.9335,-0.9095,-0.8671,-0.8491,-0.8305,-0.8058,-0.7266,-0.6655,-0.6226,-0.5978,-0.5638,-2.5402,-2.7482,-2.8866,-2.8013,-2.7204,-2.608,-2.4094,-2.2319,-2.0974,-2.0559,-2.0219,-2.0094,-2.035,-2.0031,-1.9885,-2.0381,0.0,0.0,0.0,0.0,0.0,0.0,0.0,0.0,0.0,0.0,0.0,0.0,0.0,0.0,0.0,0.0,-3.9865,-3.8647,-3.8453,-3.8194,-3.79,-3.79,-3.807,-3.841,-3.841,-3.8606,-3.8972,-3.8972,0.0,0.0,0.0,0.0,0.0,-3.8908,-3.8904,-3.8736,-3.9168,-3.9209,-3.8997,-3.8178,-3.6989,-3.5597,-3.4525,-3.3073,-3.1614,-3.1383,-3.1112,-3.0889,-3.0889,-3.0889,-3.0889,-3.0762,-2.9732,-2.8251,-2.6414,-2.4687,-2.2902,-2.084,-2.0058,-1.9726,-1.945,-1.9424,-1.9424,-1.9424,-1.9424,-1.9249,-1.8765,-1.7642,-1.6253,-1.4549,-1.3138,-1.1759,-1.0428,-1.0193,-1.0101,-1.004,-0.9957,-1.0092,-1.0654,-1.0513,-1.0267,-0.9812,-0.9822,-0.964,-0.9335,-0.9217,-0.8915,-0.843,-0.8305,-0.8058,-0.7689,-0.7018,-0.6407,-0.5919,-0.5953,-0.5623,0.0,-2.4543,-2.5533,-2.5672,-2.5149,-2.4219,-2.2817,-2.1189,0.0,-2.0253,-1.9713,-1.9431,-2.0227,-1.9939,-1.9586,-1.962,0.0,0.0,0.0,0.0,0.0,0.0,0.0,0.0,0.0,0.0,0.0,0.0,0.0,0.0,0.0,0.0,-3.9526,-3.8602,-3.8557,-3.8344,-3.79,-3.79,-3.79,-3.79,-3.79,-3.79,-3.79,-3.79,0.0,0.0,0.0,0.0,0.0,-3.7603,-3.7546,-3.7238,-3.8204,-3.8325,-3.791,-3.7228,-3.6437,-3.5532,-3.4134,-3.3027,-3.219,-3.1498,-3.1112,-3.0947,-3.0898,-3.0889,-3.083,-3.0509,-2.949,-2.7964,-2.5724,-2.4141,-2.2666,-2.0405,-1.9826,-1.9726,-1.9459,-1.9379,-1.9424,-1.9424,-1.9424,-1.9191,-1.8538,-1.7343,-1.5836,-1.3747,-1.2375,-1.0961,-0.9432,-0.9217,-0.9096,-0.8898,-0.8892,-0.9069,-0.9357,-0.9804,-0.9954,-0.9812,-0.9822,-0.964,-0.9275,-0.9037,-0.8732,-0.8369,-0.8058,-0.7689,-0.7324,-0.6709,-0.6226,-0.5929,-0.5952,-0.5617,-1.8562,0.0,-2.3507,-2.2981,-2.2723,-2.2203,0.0,-1.9654,-1.9024,-1.9286,-1.9212,-1.9311,-1.9968,-1.9613,-1.9343,0.0,0.0,0.0,0.0,0.0,0.0,0.0,0.0,0.0,0.0,0.0,0.0,0.0,0.0,0.0,0.0,0.0,-3.9114,-3.8304,-3.8304,-3.8181,-3.79,-3.79,-3.79,-3.79,-3.79,-3.79,-3.79,-3.7703,0.0,0.0,0.0,0.0,-3.5966,-3.6102,-3.6195,-3.6297,-3.6344,-3.6497,-3.6659,-3.6091,-3.5412,-3.4692,-3.4134,-3.3187,-3.219,-3.1498,-3.1276,-3.116,-3.0947,-3.0889,-3.083,-3.0509,-2.949,-2.8026,-2.5971,-2.4313,-2.2715,-2.0931,-2.0127,-1.978,-1.9713,-1.9519,-1.9424,-1.9424,-1.9424,-1.9191,-1.8538,-1.759,-1.6138,-1.3955,-1.2631,-1.129,-0.9582,-0.9282,-0.9096,-0.8898,-0.9035,-0.9178,-0.9364,-0.9531,-0.9603,-0.9805,-0.9822,-0.9579,-0.9037,-0.8915,-0.8607,-0.8058,-0.7691,-0.7202,-0.6648,-0.6464,-0.626,-0.596,-0.598,-0.568,-1.6702,-1.8792,-2.0602,-2.0535,-2.0266,-1.9839,-1.9138,-1.8065,-1.7511,-1.8519,0.0,0.0,0.0,0.0,0.0,0.0,0.0,0.0,0.0,0.0,0.0,0.0,0.0,0.0,0.0,0.0,0.0,0.0,0.0,0.0,0.0,0.0,-3.8575,-3.8103,-3.8044,-3.8011,-3.79,-3.79,-3.7854,-3.7703,-3.7703,-3.7657,-3.7505,-3.7108,0.0,0.0,0.0,0.0,-3.5247,-3.5247,-3.5272,-3.5244,-3.5236,-3.5223,-3.5219,-3.4994,-3.4524,-3.3963,-3.3744,-3.3037,-3.219,-3.1672,-3.1441,-3.1276,-3.1005,-3.0762,-3.0577,-3.0274,-2.9253,-2.7804,-2.5774,-2.4193,-2.2751,-2.1073,-2.0434,-2.0127,-1.986,-1.9679,-1.9526,-1.9392,-1.9424,-1.9243,-1.8706,-1.7701,-1.6279,-1.4192,-1.2857,-1.1453,-0.9641,-0.931,-0.9178,-0.8905,-0.9066,-0.9299,-0.9466,-0.9486,-0.9581,-0.9805,-0.964,-0.9396,-0.8915,-0.8732,-0.8395,-0.7707,-0.74,-0.6991,-0.6538,-0.6411,-0.625,-0.6112,-0.6155,-0.5904,-1.612,-1.7045,-1.7933,-1.8707,-1.8419,-1.7972,-1.8042,0.0,0.0,0.0,0.0,0.0,0.0,0.0,0.0,0.0,0.0,0.0,0.0,0.0,0.0,0.0,0.0,0.0,0.0,0.0,0.0,0.0,0.0,0.0,0.0,0.0,0.0,-3.7769,-3.7769,-3.7808,-3.79,-3.7854,-3.7703,-3.7366,-3.7353,-3.7168,-3.6875,-3.638,-3.5988,0.0,0.0,0.0,-3.458,-3.458,-3.4433,-3.4235,-3.4372,-3.4178,-3.3748,-3.3792,-3.3541,-3.3176,-3.3127,-3.2784,-3.2315,-3.1903,-3.1614,-3.1334,-3.1005,-3.0694,-3.0333,-2.9804,-2.8769,-2.7375,-2.5423,-2.3961,-2.2666,-2.1106,-2.0708,-2.0541,-2.004,-1.99,-1.9793,-1.9546,-1.9499,-1.9434,-1.9076,-1.8006,-1.6493,-1.4535,-1.3167,-1.1667,-0.9745,-0.9453,-0.9276,-0.9001,-0.91,-0.9361,-0.9585,-0.9589,-0.9607,-0.9788,-0.947,-0.9166,-0.8821,-0.8538,-0.8105,-0.7454,-0.72,-0.6927,-0.6635,-0.631,-0.6188,-0.6204,-0.6282,-0.6128,-1.5916,-1.6913,-1.7755,-1.8592,-1.8771,-1.8582,-1.7982,-1.7689,0.0,0.0,0.0,0.0,0.0,0.0,0.0,0.0,0.0,0.0,0.0,0.0,0.0,0.0,0.0,0.0,0.0,0.0,0.0,0.0,0.0,0.0,0.0,0.0,0.0,-3.7129,-3.7142,-3.739,-3.79,-3.7657,-3.7307,-3.6815,-3.6568,-3.6238,-3.581,-3.5511,-3.5114,0.0,0.0,-3.3941,-3.353,-3.353,-3.353,-3.3431,-3.2987,-3.271,-3.2529,-3.2081,-3.2058,-3.2263,-3.2628,-3.2737,-3.2555,-3.1971,-3.1787,-3.1624,-3.1064,-3.0694,-3.0147,-2.9016,-2.7933,-2.6771,-2.5125,-2.3651,-2.2411,-2.1301,-2.0855,-2.0648,-2.0561,-2.0347,-2.0154,-2.0107,-2.01,-1.998,-1.9685,-1.8763,-1.7384,-1.5211,-1.3798,-1.2214,-1.0261,-0.9635,-0.9313,-0.9193,-0.9256,-0.9418,-0.9595,-0.9534,-0.9559,-0.9647,-0.9406,-0.9084,-0.8578,-0.8377,-0.7933,-0.7247,-0.7184,-0.6871,-0.6246,-0.6244,-0.6221,-0.6296,-0.631,-0.6359,-1.5871,-1.6611,-1.7204,-1.844,-1.8806,-1.8753,-1.8422,-1.8024,-1.799,0.0,0.0,0.0,0.0,0.0,0.0,0.0,0.0,0.0,0.0,0.0,0.0,0.0,0.0,0.0,0.0,0.0,0.0,0.0,0.0,0.0,0.0,0.0,0.0,0.0,-3.6828,-3.7142,-3.7416,-3.735,-3.7002,-3.6461,-3.6238,-3.581,-3.515,-3.4763,-3.4409,-3.4164,0.0,-3.3519,-3.3281,-3.3281,-3.3281,-3.3231,-3.2706,-3.2323,-3.2115,-3.1806,-3.1892,-3.2263,-3.2571,-3.2669,-3.2612,-3.2028,-3.1787,-3.1682,-3.1064,-3.0528,-2.9853,-2.8591,-2.7624,-2.6529,-2.4564,-2.334,-2.2362,-2.1355,-2.1009,-2.0869,-2.0708,-2.0568,-2.0428,-2.0261,-2.0173,-2.0173,-2.0059,-1.9193,-1.78,-1.5582,-1.4334,-1.2799,-1.0417,-0.9828,-0.9554,-0.9228,-0.9347,-0.9414,-0.9466,-0.9497,-0.9399,-0.9157,-0.8969,-0.8706,-0.8333,-0.8267,-0.7878,-0.7291,-0.7228,-0.6931,-0.6392,-0.6392,-0.6349,-0.639,-0.639,-0.6415,-1.5697,-1.6226,-1.6722,-1.8102,-1.8618,-1.8841,-1.8992,-1.8652,-1.8676,0.0,0.0,0.0,0.0,0.0,0.0,0.0,0.0,0.0,0.0,0.0,0.0,0.0,0.0,0.0,0.0,0.0,0.0,0.0,0.0,0.0,0.0,0.0,0.0,0.0,-3.627,-3.659,-3.6818,-3.6685,-3.6442,-3.6131,-3.5858,-3.5247,-3.4445,-3.3991,-3.3854,-3.3805,-3.3481,-3.3281,-3.3281,-3.3281,-3.3281,-3.3231,-3.2757,-3.2291,-3.1892,-3.1923,-3.2062,-3.2284,-3.2587,-3.2669,-3.2612,-3.2028,-3.1787,-3.1682,-3.1064,-3.0411,-2.9618,-2.8164,-2.7323,-2.6286,-2.4077,-2.2973,-2.2237,-2.1299,-2.1109,-2.1049,-2.0822,-2.0775,-2.0708,-2.0481,-2.038,-2.0318,-2.0318,-1.9328,-1.7928,-1.5934,-1.4669,-1.3009,-1.0702,-1.0073,-0.9717,-0.9333,-0.9364,-0.939,-0.9284,-0.9318,-0.9142,-0.8694,-0.8519,-0.843,-0.8274,-0.8304,-0.7972,-0.7337,-0.7337,-0.7046,-0.652,-0.652,-0.652,-0.652,-0.652,-0.652,-1.5141,-1.588,-1.6612,-1.7459,-1.8235,-1.8965,-1.9588,-2.0015,0.0,-2.1231,0.0,0.0,0.0,0.0,0.0,0.0,0.0,0.0,0.0,0.0,0.0,0.0,0.0,0.0,0.0,0.0,0.0,0.0,0.0,0.0,0.0,0.0,0.0,0.0,0.0,-3.5476,-3.6353,-3.5634,-3.5385,-3.5667,-3.515,-3.4396,-3.3431,-3.3381,-3.3331,-3.3331,-3.3331,-3.3281,-3.3281,-3.3281,-3.3281,-3.3281,-3.298,-3.2364,-3.1687,-3.202,-3.2015,-3.1921,-3.2483,-3.2669,-3.2612,-3.2028,-3.1787,-3.1682,-3.1064,-3.0411,-2.9499,-2.7624,-2.6606,-2.57,-2.3658,-2.2668,-2.1985,-2.1299,-2.1109,-2.1102,-2.1082,-2.1076,-2.1069,-2.1049,-2.0796,-2.0543,-2.0543,-1.9197,-1.7635,-1.6361,-1.448,-1.2697,-1.1389,-1.0403,-0.9734,-0.9591,-0.9588,-0.9465,-0.9251,-0.9027,-0.883,-0.8621,-0.8454,-0.8397,-0.8405,-0.8505,-0.8235,-0.7514,-0.7514,-0.7183,-0.652,-0.652,-0.652,-0.652,-0.652,-0.652,-1.5077,-1.5844,-1.6684,-1.7924,-1.9047,0.0,0.0,-2.1576,-2.2521,-2.3902,-2.4414,0.0,0.0,0.0,0.0,0.0,0.0,0.0,0.0,0.0,0.0,0.0,0.0,0.0,0.0,0.0,0.0,0.0,0.0,0.0,0.0,0.0,0.0,0.0,0.0,-3.4325,-3.4352,-3.4555,-3.4576,-3.4414,-3.4315,-3.3953,-3.3281,-3.3281,-3.3281,-3.3281,-3.3281,-3.3281,-3.3281,-3.3281,-3.3281,-3.3281,-3.298,-3.2454,-3.19,-3.2162,-3.2276,-3.2295,-3.2455,-3.2715,-3.2898,-3.2315,-3.196,-3.173,-3.1276,-3.0567,-2.9499,-2.7547,-2.6598,-2.5517,-2.3106,-2.2292,-2.1922,-2.1235,-2.1109,-2.1109,-2.1109,-2.1109,-2.1109,-2.1109,-2.0862,-2.0412,-1.9693,-1.8734,-1.7295,-1.5189,-1.408,-1.2807,-1.1187,-1.0503,-1.0009,-0.9625,-0.933,-0.9152,-0.9221,-0.8929,-0.8673,-0.8584,-0.8481,-0.8448,-0.8522,-0.8366,-0.8058,-0.7526,-0.7323,-0.6987,-0.652,-0.652,-0.652,-0.652,-0.652,-0.652,-1.5077,-1.5666,-1.6446,-1.8095,-1.9562,0.0,-2.2405,-2.3408,-2.4462,-2.6036,-2.678,0.0,0.0,0.0,0.0,0.0,0.0,0.0,0.0,0.0,0.0,0.0,0.0,0.0,0.0,0.0,0.0,0.0,0.0,0.0,0.0,0.0,0.0,0.0,0.0,-3.3288,-3.2971,-3.3383,-3.354,-3.3553,-3.352,-3.3456,-3.3281,-3.3281,-3.3281,-3.3281,-3.3281,-3.3281,-3.3281,-3.3281,-3.3281,-3.3281,-3.3081,-3.2718,-3.2296,-3.2476,-3.2547,-3.2469,-3.2355,-3.2619,-3.2849,-3.2261,-3.2021,-3.1903,-3.1441,-3.0743,-2.9608,-2.7598,-2.6598,-2.5517,-2.2918,-2.2174,-2.1985,-2.1418,-2.1172,-2.1109,-2.1109,-2.1109,-2.1109,-2.1109,-2.0729,-2.0094,-1.9048,-1.8086,-1.6738,-1.4387,-1.3535,-1.2661,-1.1138,-1.059,-1.0073,-0.9576,-0.9099,-0.882,-0.8977,-0.8683,-0.8475,-0.8475,-0.8306,-0.827,-0.8451,-0.8192,-0.7858,-0.7323,-0.7121,-0.6853,-0.652,-0.652,-0.652,-0.652,-0.652,-0.652,-1.507,-1.5309,-1.5792,-1.7819,0.0,0.0,-2.4365,-2.5535,-2.6332,-2.7401,0.0,-2.9035,0.0,0.0,0.0,0.0,0.0,0.0,0.0,0.0,0.0,0.0,0.0,0.0,0.0,0.0,0.0,0.0,0.0,0.0,0.0,0.0,0.0,0.0,0.0,0.0,-3.2488,-3.1942,-3.223,-3.3289,-3.2769,-3.2764,-3.3281,-3.3281,-3.3281,-3.3281,-3.3281,-3.3281,-3.3281,-3.3281,-3.3281,-3.3281,-3.3281,-3.3131,-3.2948,-3.3043,-3.2756,-3.2311,-3.2201,-3.2289,-3.2291,-3.1799,-3.1927,-3.219,-3.1498,-3.0859,-2.9903,-2.7615,-2.6545,-2.5578,-2.323,-2.2362,-2.2048,-2.167,-2.1362,-2.1109,-2.1109,-2.1109,-2.1109,-2.1109,-2.0545,-1.9781,-1.867,-1.7378,-1.5889,-1.4137,-1.2964,-1.2045,-1.1314,-1.0654,-1.0035,-0.9371,-0.8973,-0.8719,-0.8534,-0.8287,-0.817,-0.817,-0.8018,-0.7936,-0.8117,-0.8125,-0.7722,-0.6985,-0.6985,-0.6853,-0.652,-0.652,-0.652,-0.652,-0.652,-0.652,-1.4444,-1.5107,0.0,-1.8554,0.0,0.0,0.0,-2.6955,0.0,0.0,-3.0202,0.0,0.0,0.0,0.0,0.0,0.0,0.0,0.0,0.0,0.0,0.0,0.0,0.0,0.0,0.0,0.0,0.0,0.0,0.0,0.0,0.0,0.0,0.0,0.0,0.0,-3.116,-3.1182,-3.1391,-3.1691,-3.2252,-3.2764,-3.3281,-3.3281,-3.3281,-3.3281,-3.3281,-3.3281,-3.3281,-3.3281,-3.3281,-3.3281,-3.3281,-3.3131,-3.2903,-3.2938,-3.2851,-3.2592,-3.2156,-3.2083,-3.2192,-3.1985,-3.1666,-3.1432,-3.1341,-3.0392,-2.9025,-2.7194,-2.6042,-2.5018,-2.3355,-2.2668,-2.2299,-2.1734,-2.1544,-2.1362,-2.1172,-2.1109,-2.1109,-2.1109,-2.0545,-1.952,-1.7759,-1.6726,-1.5298,-1.2828,-1.2173,-1.167,-1.0833,-1.0176,-0.9712,-0.9562,-0.8763,-0.8343,-0.8412,-0.8144,-0.7954,-0.7791,-0.7776,-0.7824,-0.7934,-0.7548,-0.7252,-0.6985,-0.6786,-0.6451,-0.6048,-0.6048,-0.5981,-0.5716,-0.5982,-0.6048,-1.4069,-1.5108,0.0,-1.8917,-2.099,-2.3308,-2.6794,0.0,0.0,0.0,0.0,0.0,0.0,0.0,0.0,0.0,0.0,0.0,0.0,0.0,0.0,0.0,0.0,0.0,0.0,0.0,0.0,0.0,0.0,0.0,0.0,0.0,0.0,0.0,0.0,0.0,-3.0623,-3.0766,-3.0894,-3.1019,-3.1616,-3.2271,-3.296,-3.296,-3.296,-3.296,-3.296,-3.3086,-3.3281,-3.3281,-3.3281,-3.3281,-3.3281,-3.3181,-3.3042,-3.3042,-3.291,-3.2594,-3.1962,-3.1857,-3.1869,-3.1566,-3.14,-3.122,-3.092,-3.0072,-2.8778,-2.6831,-2.5737,-2.4764,-2.3479,-2.2918,-2.2668,-2.2111,-2.1796,-2.1544,-2.1355,-2.1172,-2.1109,-2.1109,-2.0545,-1.9456,-1.7367,-1.6462,-1.5038,-1.2239,-1.1582,-1.1125,-1.0575,-1.0082,-0.968,-0.9446,-0.8722,-0.8213,-0.818,-0.7953,-0.7734,-0.7544,-0.7469,-0.7451,-0.7428,-0.7178,-0.6918,-0.6786,-0.6587,-0.6317,-0.5912,-0.578,-0.558,-0.5381,-0.558,-0.5796,-1.3839,0.0,0.0,-1.8994,-2.1386,0.0,0.0,0.0,0.0,0.0,0.0,0.0,0.0,0.0,0.0,0.0,0.0,0.0,0.0,0.0,0.0,0.0,0.0,0.0,0.0,0.0,0.0,0.0,0.0,0.0,0.0,0.0,0.0,0.0,0.0,0.0,-3.0668,-3.0668,-3.0776,0.0,-3.1031,-3.1537,-3.24,-3.2443,-3.2512,-3.2558,-3.25,-3.2787,-3.3281,-3.3281,-3.3281,-3.3281,-3.3281,-3.3281,-3.3281,-3.3281,-3.2969,-3.2443,-3.1834,-3.1551,-3.1339,-3.0881,-3.1018,-3.1182,-3.0347,-2.965,-2.8715,-2.6589,-2.5501,-2.4702,-2.3417,-2.3106,-2.3043,-2.2731,-2.2174,-2.167,-2.1607,-2.1362,-2.1109,-2.1109,-2.0545,-1.9456,-1.7367,-1.6462,-1.5038,-1.2239,-1.1185,-1.067,-1.0531,-1.0175,-0.9745,-0.9168,-0.8735,-0.8293,-0.7928,-0.7739,-0.7543,-0.7362,-0.7091,-0.6888,-0.6693,-0.6817,-0.6786,-0.652,-0.652,-0.6317,-0.5845,-0.558,-0.5381,-0.5314,-0.5381,-0.5623,-1.3416,-1.4603,0.0,0.0,0.0,0.0,0.0,0.0,0.0,0.0,0.0,0.0,0.0,0.0,0.0,0.0,0.0,0.0,0.0,0.0,0.0,0.0,0.0,0.0,0.0,0.0,0.0,0.0,0.0,0.0,0.0,0.0,0.0,0.0,0.0,-3.1484,-3.1172,-3.1005,-3.0941,0.0,-3.1193,-3.1449,-3.1646,-3.2229,-3.2718,-3.3086,-3.2661,-3.2787,-3.3281,-3.3281,-3.3281,-3.3281,-3.3281,-3.3281,-3.3281,-3.3281,-3.2969,-3.2443,-3.2026,-3.1489,-3.0936,-3.0723,-3.0154,-2.9482,-2.9479,-2.8407,-2.69,-2.5976,-2.5018,-2.41,-2.3293,-2.3106,-2.3113,-2.2988,-2.2675,-2.223,-2.1734,-2.1544,-2.1418,-2.1172,-2.0545,-1.9456,-1.7367,-1.6462,-1.5038,-1.2239,-1.1185,-1.0707,-1.0673,-1.0045,-0.9522,-0.9291,-0.8519,-0.7922,-0.7747,-0.754,-0.7216,-0.6882,-0.6793,-0.6619,-0.63,-0.6487,-0.6587,-0.652,-0.652,-0.6185,-0.5513,-0.5448,-0.5112,-0.4575,-0.5112,-0.5285,0.0,0.0,0.0,-2.0366,0.0,0.0,0.0,0.0,0.0,0.0,0.0,0.0,0.0,0.0,0.0,0.0,0.0,0.0,0.0,0.0,0.0,0.0,0.0,0.0,0.0,0.0,0.0,0.0,0.0,0.0,0.0,0.0,0.0,0.0,-3.1893,-3.1673,-3.1306,-3.1184,-3.1107,-3.0984,-3.1118,-3.1284,-3.1402,-3.1689,-3.1926,-3.219,-3.2156,-3.2431,-3.2925,-3.3178,-3.3281,-3.3281,-3.3281,-3.3281,-3.3281,-3.3281,-3.3031,-3.2656,-3.2331,-3.1669,-3.0911,-3.0306,-2.9561,-2.8784,-2.8211,-2.7356,-2.6287,-2.5331,-2.4593,-2.3922,-2.3293,-2.3106,-2.3106,-2.3106,-2.2856,-2.2487,-2.1922,-2.1734,-2.1481,-2.1172,-2.0545,-1.9456,-1.7367,-1.5359,-1.3477,-1.2041,-1.1185,-1.0721,-1.0721,-1.0059,-0.9568,-0.9429,-0.8597,-0.7997,-0.788,-0.7649,-0.7295,-0.6805,-0.6817,-0.6626,-0.6236,-0.6315,-0.6408,-0.652,-0.652,-0.6185,-0.5646,-0.5446,-0.518,-0.4845,-0.528,-0.5405,-1.2057,0.0,-1.6761,-2.1503,0.0,0.0,0.0,0.0,0.0,0.0,0.0,0.0,0.0,0.0,0.0,0.0,0.0,0.0,0.0,0.0,0.0,0.0,0.0,0.0,0.0,0.0,0.0,0.0,0.0,0.0,0.0,0.0,-3.2451,-3.2069,-3.2081,-3.1849,-3.1395,-3.135,-3.1273,-3.1107,-3.1062,-3.1117,-3.124,-3.1009,-3.102,-3.1169,-3.149,-3.1961,-3.2523,-3.296,-3.3201,-3.3281,-3.3281,-3.3281,-3.3231,-3.3181,-3.2969,-3.2718,-3.2432,-3.1823,-3.0961,-2.9838,-2.9086,-2.8391,-2.7094,-2.6469,-2.5999,-2.4988,-2.4446,-2.4046,-2.3362,-2.3175,-2.3168,-2.3106,-2.2918,-2.2613,-2.2174,-2.1859,-2.1544,-2.1172,-2.0284,-1.8996,-1.7109,-1.4058,-1.178,-1.178,-1.1185,-1.0721,-1.0721,-1.0127,-0.9675,-0.9537,-0.8711,-0.8209,-0.813,-0.7856,-0.7472,-0.6957,-0.6884,-0.6655,-0.6215,-0.6245,-0.6337,-0.6496,-0.6512,-0.6317,-0.5912,-0.5647,-0.5455,-0.5401,-0.5527,-0.5605,0.0,0.0,-1.7879,0.0,0.0,0.0,0.0,0.0,0.0,0.0,0.0,0.0,0.0,0.0,0.0,0.0,0.0,0.0,0.0,0.0,0.0,0.0,0.0,0.0,0.0,0.0,0.0,0.0,0.0,0.0,0.0,-3.2248,-3.2299,-3.2332,-3.2356,-3.2125,-3.1661,-3.1661,-3.1617,-3.1617,-3.135,-3.1074,-3.0727,-3.0682,-3.1044,-3.1698,-3.1283,-3.1639,-3.2489,-3.2569,-3.2868,-3.3281,-3.3281,-3.3142,-3.293,-3.2645,-3.237,-3.2128,-3.2066,-3.1527,-3.0713,-2.9765,-2.8635,-2.7503,-2.6945,-2.6033,-2.5259,-2.542,-2.501,-2.4363,-2.3736,-2.3549,-2.3487,-2.3168,-2.3043,-2.2863,-2.2237,-2.2041,-2.1859,-2.1235,-1.9106,-1.7109,-1.6268,-1.3735,-1.178,-1.178,-1.1185,-1.0721,-1.0721,-1.0127,-0.9675,-0.9537,-0.8793,-0.8301,-0.8136,-0.7988,-0.7612,-0.6959,-0.6812,-0.649,-0.6063,-0.6153,-0.6241,-0.6333,-0.6415,-0.6317,-0.5912,-0.5845,-0.5681,-0.548,-0.5828,-0.5775,-1.1414,-1.4231,-1.6884,0.0,0.0,0.0,0.0,0.0,0.0,0.0,0.0,0.0,0.0,0.0,0.0,0.0,0.0,0.0,0.0,0.0,0.0,0.0,0.0,0.0,0.0,0.0,0.0,0.0,0.0,0.0,-3.1448,-3.1763,-3.1834,-3.1677,-3.1816,-3.1705,-3.1271,-3.156,-3.1705,-3.1705,-3.1439,-3.1172,-3.0982,-3.0713,-3.0697,-3.0905,-3.0985,-3.1421,-3.2158,-3.2374,-3.2799,-3.3281,-3.3281,-3.3019,-3.2594,-3.2106,-3.1801,-3.1545,-3.175,-3.1249,-3.0443,-2.9702,-2.871,-2.7546,-2.6519,-2.5908,-2.556,-2.5575,-2.5197,-2.4734,-2.4046,-2.3736,-2.3549,-2.3175,-2.3106,-2.2918,-2.223,-2.2111,-2.1796,-2.0729,-1.8594,-1.6786,-1.6143,-1.3669,-1.178,-1.178,-1.1185,-1.0721,-1.0721,-1.0127,-0.9706,-0.9644,-0.8916,-0.8375,-0.8266,-0.8147,-0.7762,-0.7135,-0.6972,-0.6696,-0.6194,-0.6188,-0.6247,-0.639,-0.65,-0.6386,-0.625,-0.63,-0.6209,-0.6113,-0.6412,-0.6145,0.0,0.0,0.0,0.0,0.0,0.0,0.0,0.0,0.0,0.0,0.0,0.0,0.0,0.0,0.0,0.0,0.0,0.0,0.0,0.0,0.0,0.0,0.0,0.0,0.0,0.0,0.0,0.0,0.0,0.0,-3.1044,-3.1373,-3.1463,-3.1223,-3.1343,-3.1247,-3.091,-3.144,-3.1705,-3.1705,-3.1484,-3.135,-3.1306,-3.0937,-3.0623,-3.0432,-3.0687,-3.118,-3.1848,-3.2144,-3.2684,-3.3281,-3.3281,-3.2908,-3.2207,-3.1637,-3.1238,-3.1043,-3.1124,-3.0785,-3.012,-2.9493,-2.8608,-2.7538,-2.6296,-2.5908,-2.5872,-2.5809,-2.5513,-2.505,-2.4417,-2.3984,-2.3611,-2.3168,-2.3106,-2.2918,-2.223,-2.1985,-2.1481,-2.0361,-1.8407,-1.6786,-1.6143,-1.3669,-1.178,-1.178,-1.1185,-1.0721,-1.0721,-1.0127,-0.9728,-0.9728,-0.8976,-0.8448,-0.8421,-0.8334,-0.7945,-0.7274,-0.7134,-0.6842,-0.6276,-0.6239,-0.628,-0.6417,-0.651,-0.652,-0.652,-0.6523,-0.6566,-0.6455,-0.6607,-0.6264,0.0,0.0,0.0,0.0,0.0,0.0,0.0,0.0,0.0,0.0,0.0,0.0,0.0,0.0,0.0,0.0,0.0,0.0,0.0,0.0,0.0,0.0,0.0,0.0,0.0,0.0,0.0,0.0,0.0,0.0,-3.1436,-3.1305,-3.1312,-3.1567,-3.1288,-3.1048,-3.091,-3.144,-3.1705,-3.1705,-3.1705,-3.1528,-3.1306,-3.1261,-3.1139,-3.0939,-3.0432,-3.0824,-3.1813,-3.1777,-3.2374,-3.3281,-3.3281,-3.2757,-3.1913,-3.1146,-3.0692,-3.0391,-3.0162,-2.9911,-2.9544,-2.8923,-2.7994,-2.6948,-2.6526,-2.5917,-2.5579,-2.6344,-2.6075,-2.5418,-2.4734,-2.4355,-2.3922,-2.3238,-2.3106,-2.2918,-2.223,-2.1607,-2.0919,-2.0234,-1.8407,-1.6786,-1.6143,-1.3669,-1.178,-1.178,-1.1185,-1.0721,-1.0721,-1.0127,-0.9728,-0.9728,-0.905,-0.8535,-0.8426,-0.8413,-0.8034,-0.7279,-0.7203,-0.6883,-0.625,-0.6266,-0.6315,-0.6325,-0.6411,-0.652,-0.652,-0.6527,-0.6369,-0.6109,-0.6127,-0.5789,0.0,0.0,0.0,0.0,0.0,0.0,0.0,0.0,0.0,0.0,0.0,0.0,0.0,0.0,0.0,0.0,0.0,0.0,0.0,0.0,0.0,0.0,0.0,0.0,0.0,0.0,0.0,0.0,0.0,0.0,-3.0765,-3.074,-3.0675,-3.0633,-3.0683,-3.0659,-3.0586,-3.064,-3.0862,-3.1199,-3.1199,-3.1336,-3.1528,-3.1229,-3.1139,-3.1184,-3.0668,-3.1032,-3.198,-3.1969,-3.2485,-3.3281,-3.3281,-3.2656,-3.1618,-3.0619,-2.9838,-2.927,-2.8933,-2.8678,-2.8485,-2.8392,-2.7781,-2.6995,-2.6453,-2.6255,-2.6168,-2.644,-2.6265,-2.5778,-2.5103,-2.4479,-2.3922,-2.3238,-2.2926,-2.2731,-2.248,-2.1922,-2.1172,-2.0297,-1.8407,-1.685,-1.6408,-1.4132,-1.2441,-1.2441,-1.1846,-1.1317,-1.1049,-1.0256,-0.9728,-0.9728,-0.9056,-0.8571,-0.853,-0.8527,-0.831,-0.7807,-0.7478,-0.7145,-0.6747,-0.646,-0.6343,-0.6402,-0.6504,-0.652,-0.652,-0.6513,-0.6419,-0.6109,-0.5896,-0.5476,-0.7525,0.0,0.0,0.0,0.0,0.0,0.0,0.0,0.0,0.0,0.0,0.0,0.0,0.0,0.0,0.0,0.0,0.0,0.0,0.0,0.0,0.0,0.0,0.0,0.0,0.0,0.0,0.0,0.0,0.0,-3.0086,-3.0086,-2.9934,-2.953,-2.9767,-2.9839,-2.9699,-2.9777,-3.0001,-3.035,-3.0742,-3.106,-3.1265,-3.1146,-3.1139,-3.1184,-3.0937,-3.1203,-3.1879,-3.2041,-3.243,-3.2879,-3.2989,-3.2342,-3.1197,-3.0037,-2.9207,-2.8485,-2.8092,-2.7833,-2.7745,-2.7877,-2.742,-2.6708,-2.6415,-2.6275,-2.6328,-2.6448,-2.6336,-2.5953,-2.5288,-2.4425,-2.3673,-2.3238,-2.2926,-2.2738,-2.2606,-2.2048,-2.1362,-2.0418,-1.8472,-1.6915,-1.6537,-1.4656,-1.3161,-1.303,-1.2503,-1.1975,-1.1446,-1.0389,-0.9728,-0.9728,-0.9056,-0.8587,-0.8587,-0.8587,-0.8456,-0.8125,-0.7788,-0.745,-0.7049,-0.6724,-0.6523,-0.652,-0.652,-0.652,-0.652,-0.6515,-0.6339,-0.5866,-0.5607,-0.492,0.0,0.0,0.0,0.0,0.0,0.0,0.0,0.0,0.0,0.0,0.0,0.0,0.0,0.0,0.0,0.0,0.0,0.0,0.0,0.0,0.0,0.0,0.0,0.0,0.0,0.0,0.0,0.0,0.0,-2.9884,-2.9484,-2.9447,-2.9156,-2.8439,-2.8636,-2.8612,-2.8269,-2.8915,-2.9244,-2.9292,-3.0314,-3.0702,-3.0502,-3.1012,-3.1172,-3.1029,-3.1184,-3.1333,-3.1391,-3.189,-3.2114,-3.2094,-3.2258,-3.1688,-3.063,-2.9513,-2.8741,-2.8184,-2.7593,-2.7377,-2.7377,-2.7377,-2.6781,-2.6089,-2.627,-2.6092,-2.5953,-2.6371,-2.6328,-2.5953,-2.5226,-2.4108,-2.3106,-2.3106,-2.3106,-2.2988,-2.2675,-2.2111,-2.1418,-2.0736,-1.8658,-1.6915,-1.6602,-1.5047,-1.3809,-1.3481,-1.3083,-1.2557,-1.1846,-1.0591,-0.9661,-0.9661,-0.9056,-0.8587,-0.8587,-0.8587,-0.8456,-0.8123,-0.8125,-0.7789,-0.7051,-0.6985,-0.6853,-0.652,-0.652,-0.652,-0.6453,-0.652,-0.6118,-0.5384,-0.512,-0.4194,-0.6934,0.0,0.0,0.0,0.0,0.0,0.0,0.0,0.0,0.0,0.0,0.0,0.0,0.0,0.0,0.0,0.0,0.0,0.0,0.0,0.0,0.0,0.0,0.0,0.0,0.0,0.0,0.0,-2.8598,-2.861,-2.847,-2.8616,-2.8613,-2.8388,-2.8198,-2.794,-2.7704,-2.7466,-2.7722,-2.8526,-2.8638,-2.929,-3.026,-3.0226,-3.0507,-3.0972,-3.0859,-3.0794,-3.0879,-3.1529,-3.1792,-3.1775,-3.1379,-3.0823,-3.0099,-2.887,-2.8092,-2.7593,-2.7008,-2.68,-2.68,-2.68,-2.6354,-2.5815,-2.5867,-2.5874,-2.5902,-2.6004,-2.6074,-2.5823,-2.4664,-2.3736,-2.3106,-2.3106,-2.3106,-2.3043,-2.2988,-2.2425,-2.167,-2.0799,-1.8658,-1.6985,-1.6866,-1.5443,-1.4141,-1.3809,-1.3411,-1.2754,-1.1512,-1.0389,-0.9594,-0.9319,-0.8853,-0.8587,-0.8587,-0.8587,-0.8587,-0.8456,-0.8256,-0.7858,-0.739,-0.7121,-0.6853,-0.652,-0.652,-0.6384,-0.6048,-0.6384,-0.6118,-0.5384,-0.429,-0.327,-0.7528,0.0,0.0,0.0,0.0,0.0,0.0,0.0,0.0,0.0,0.0,0.0,0.0,0.0,0.0,0.0,0.0,0.0,0.0,0.0,0.0,0.0,0.0,0.0,0.0,0.0,0.0,0.0,-2.8109,-2.7972,-2.7662,-2.7591,-2.7536,-2.7465,-2.7322,-2.7036,-2.6699,-2.6404,-2.6667,-2.7407,-2.7754,-2.8433,-2.9422,-2.9669,-2.9997,-3.04,-3.0541,-3.0532,-3.0465,-3.1039,-3.1202,-3.1167,-3.0639,-3.0093,-2.9481,-2.8305,-2.7618,-2.7152,-2.6745,-2.6591,-2.6591,-2.6591,-2.619,-2.5688,-2.5688,-2.5787,-2.5876,-2.5876,-2.582,-2.5464,-2.4355,-2.3611,-2.3106,-2.3106,-2.3106,-2.3106,-2.3106,-2.2543,-2.1859,-2.0982,-1.8722,-1.698,-1.6802,-1.5443,-1.4272,-1.3744,-1.3346,-1.2622,-1.138,-1.0187,-0.9389,-0.9117,-0.8787,-0.8587,-0.8587,-0.8587,-0.8587,-0.8587,-0.839,-0.8058,-0.7526,-0.7323,-0.6987,-0.652,-0.652,-0.625,-0.5713,-0.6048,-0.5749,-0.4725,-0.3758,-0.2915,-0.8537,-0.866,0.0,0.0,0.0,0.0,0.0,-1.0851,0.0,0.0,0.0,0.0,0.0,0.0,0.0,0.0,0.0,0.0,0.0,0.0,0.0,0.0,0.0,0.0,0.0,0.0,-2.7822,-2.7885,-2.7848,-2.7563,-2.6909,-2.6614,-2.6352,-2.6164,-2.6352,-2.6144,-2.5571,-2.5708,-2.595,-2.6279,-2.7254,-2.7947,-2.8317,-2.9256,-2.9589,-2.9527,-3.0234,-3.0442,-3.0216,-3.0442,-3.0523,-3.0405,-2.9967,-2.9487,-2.8867,-2.7755,-2.7161,-2.6944,-2.6691,-2.6591,-2.6591,-2.6591,-2.619,-2.5688,-2.5688,-2.5787,-2.5893,-2.592,-2.5528,-2.4919,-2.4293,-2.3611,-2.3106,-2.3106,-2.3106,-2.3106,-2.3106,-2.2543,-2.1922,-2.1299,-1.8978,-1.698,-1.6667,-1.5508,-1.4338,-1.3613,-1.3149,-1.2491,-1.1314,-0.9984,-0.9117,-0.905,-0.8784,-0.8587,-0.8587,-0.8587,-0.8587,-0.8587,-0.8587,-0.8256,-0.7526,-0.7459,-0.7123,-0.652,-0.6386,-0.6051,-0.5314,-0.5579,-0.5046,-0.3856,-0.3435,-0.2915,-0.8802,-0.8687,-0.8619,0.0,0.0,0.0,0.0,-0.9827,0.0,0.0,0.0,0.0,0.0,0.0,0.0,0.0,0.0,0.0,0.0,0.0,0.0,0.0,0.0,0.0,0.0,0.0,-2.6061,-2.6522,-2.6288,-2.6098,-2.6105,-2.6436,-2.6424,-2.598,-2.6387,-2.6222,-2.5382,-2.549,-2.5726,-2.6062,-2.6549,-2.7215,-2.8084,-2.8671,-2.9134,-2.9527,-3.0054,-3.0261,-3.0216,-3.0261,-3.0255,-3.009,-2.9108,-2.8603,-2.8344,-2.718,-2.6745,-2.6691,-2.6646,-2.6591,-2.6591,-2.6591,-2.619,-2.5688,-2.5688,-2.5787,-2.5946,-2.6004,-2.5611,-2.4919,-2.4293,-2.3611,-2.3106,-2.3106,-2.3106,-2.3106,-2.3106,-2.2543,-2.1985,-2.1607,-1.9489,-1.7695,-1.733,-1.6423,-1.5318,-1.4338,-1.394,-1.3021,-1.1049,-1.0057,-0.9325,-0.8787,-0.8653,-0.8587,-0.8587,-0.8587,-0.8587,-0.8587,-0.8323,-0.7992,-0.7526,-0.7254,-0.692,-0.652,-0.5917,-0.5379,-0.4908,-0.4708,-0.4232,-0.3435,-0.3084,-0.2559,-0.9417,-0.9282,-0.9115,-0.8939,0.0,0.0,0.0,0.0,0.0,0.0,0.0,0.0,0.0,0.0,0.0,0.0,0.0,0.0,0.0,0.0,0.0,0.0,0.0,0.0,0.0,0.0,-2.4983,-2.4995,-2.4667,-2.465,-2.5066,-2.568,-2.5885,-2.5618,-2.6129,-2.5973,-2.5052,-2.5345,-2.5613,-2.5843,-2.6299,-2.6904,-2.7633,-2.8367,-2.885,-2.9137,-2.9894,-3.0216,-3.0216,-3.0216,-3.0004,-2.9645,-2.877,-2.8237,-2.7839,-2.6943,-2.6591,-2.6591,-2.6591,-2.6591,-2.6582,-2.6418,-2.6081,-2.5679,-2.5514,-2.5665,-2.5921,-2.605,-2.5594,-2.4919,-2.4293,-2.3611,-2.3106,-2.3106,-2.3106,-2.3106,-2.3106,-2.2543,-2.1985,-2.167,-2.0195,-1.8792,-1.8098,-1.719,-1.6148,-1.5038,-1.4189,-1.3009,-1.1439,-1.0183,-0.9253,-0.892,-0.872,-0.8587,-0.8587,-0.8587,-0.852,-0.839,-0.8189,-0.7858,-0.7257,-0.7118,-0.6853,-0.652,-0.5783,-0.5111,-0.457,-0.4035,-0.3469,-0.2985,-0.2847,-0.2395,0.0,0.0,0.0,0.0,0.0,-0.9282,0.0,0.0,0.0,0.0,0.0,0.0,0.0,0.0,0.0,0.0,0.0,0.0,0.0,0.0,0.0,0.0,0.0,0.0,0.0,0.0,-2.387,-2.3412,-2.3128,-2.3233,-2.3866,-2.4741,-2.5158,-2.5097,-2.5733,-2.5695,-2.4942,-2.5362,-2.5689,-2.5865,-2.637,-2.6829,-2.7183,-2.8125,-2.8528,-2.8541,-2.9499,-2.9886,-2.9886,-2.9886,-2.957,-2.8977,-2.8502,-2.8026,-2.7528,-2.6766,-2.6518,-2.6591,-2.6591,-2.6537,-2.6473,-2.6181,-2.5844,-2.5595,-2.5412,-2.5608,-2.5921,-2.605,-2.5594,-2.4919,-2.4293,-2.3611,-2.3106,-2.3106,-2.3106,-2.3106,-2.3106,-2.2543,-2.2048,-2.1734,-2.0969,-1.9954,-1.8798,-1.7893,-1.685,-1.5614,-1.4306,-1.3066,-1.1762,-1.0177,-0.9183,-0.905,-0.8787,-0.8587,-0.8587,-0.8587,-0.8454,-0.8192,-0.8058,-0.7722,-0.7121,-0.6985,-0.6786,-0.652,-0.5783,-0.5042,-0.43,-0.3564,-0.2982,-0.2613,-0.2613,-0.2232,0.0,0.0,0.0,0.0,-0.9565,0.0,0.0,0.0,0.0,0.0,0.0,0.0,0.0,0.0,0.0,0.0,0.0,0.0,0.0,0.0,0.0,0.0,0.0,0.0,0.0,0.0,-2.1989,-2.195,-2.1776,-2.1946,-2.2493,-2.4013,-2.472,-2.4431,-2.5349,-2.5691,-2.5411,-2.5751,-2.612,-2.6421,-2.6898,-2.7051,-2.6967,-2.7741,-2.7974,-2.7833,-2.8549,-2.8863,-2.8863,-2.8863,-2.8441,-2.7804,-2.7849,-2.7754,-2.749,-2.6439,-2.627,-2.6591,-2.6591,-2.6418,-2.6127,-2.6127,-2.5734,-2.536,-2.5715,-2.5866,-2.5921,-2.605,-2.5594,-2.4919,-2.4293,-2.3611,-2.3106,-2.3106,-2.3106,-2.3106,-2.3106,-2.2543,-2.2111,-2.2048,-2.1481,-2.0602,-1.9264,-1.8693,-1.7723,-1.5694,-1.4777,-1.3468,-1.1111,-1.0123,-0.9392,-0.872,-0.8653,-0.8587,-0.8587,-0.8587,-0.8587,-0.852,-0.7925,-0.7526,-0.7459,-0.6855,-0.652,-0.652,-0.5783,-0.5042,-0.43,-0.3564,-0.2846,-0.2269,-0.2269,-0.1884,0.0,0.0,0.0,0.0,0.0,0.0,0.0,0.0,-0.8864,0.0,0.0,0.0,0.0,0.0,0.0,0.0,0.0,0.0,0.0,0.0,0.0,0.0,0.0,0.0,0.0,0.0,0.0,0.0,0.0,-1.9969,-2.1017,-2.2657,-2.3711,-2.399,-2.5182,-2.5641,-2.5333,-2.6035,-2.644,-2.6513,-2.699,-2.7015,-2.6697,-2.7289,-2.7327,-2.7027,-2.7597,-2.7814,-2.7814,-2.7814,-2.7494,-2.6965,-2.6667,-2.6734,-2.6872,-2.6237,-2.6224,-2.6591,-2.6591,-2.6527,-2.6354,-2.5962,-2.5467,-2.5061,-2.5711,-2.5876,-2.5921,-2.605,-2.5594,-2.4919,-2.4293,-2.3611,-2.3106,-2.3106,-2.3106,-2.3106,-2.3106,-2.2543,-2.2111,-2.2111,-2.1544,-2.0792,-1.9845,-1.9194,-1.8279,-1.6597,-1.4833,-1.3198,-1.1567,-1.018,-0.9253,-0.8917,-0.872,-0.8587,-0.8587,-0.8587,-0.8523,-0.8323,-0.7588,-0.7187,-0.7187,-0.6721,-0.652,-0.652,-0.5783,-0.5042,-0.43,-0.3564,-0.2766,-0.1834,-0.1834,-0.1586,-1.0635,0.0,0.0,0.0,0.0,0.0,0.0,0.0,0.0,0.0,0.0,0.0,0.0,0.0,0.0,0.0,0.0,0.0,0.0,0.0,0.0,0.0,0.0,0.0,0.0,0.0,0.0,0.0,0.0,0.0,-1.9265,-2.1073,-2.2399,-2.3225,-2.4612,-2.5386,-2.5405,-2.6236,-2.665,-2.668,-2.7047,-2.6921,-2.6437,-2.6846,-2.6695,-2.6256,-2.6609,-2.6809,-2.6809,-2.6809,-2.6542,-2.6129,-2.5645,-2.5833,-2.6262,-2.5946,-2.6133,-2.6591,-2.6591,-2.6527,-2.6364,-2.5743,-2.5247,-2.5005,-2.5711,-2.5876,-2.5921,-2.605,-2.5594,-2.4919,-2.4293,-2.3611,-2.3106,-2.3106,-2.3106,-2.3106,-2.3106,-2.2543,-2.2111,-2.2111,-2.1544,-2.0862,-2.0234,-1.9444,-1.8332,-1.6786,-1.4633,-1.2738,-1.1501,-1.0044,-0.905,-0.8984,-0.872,-0.8587,-0.8587,-0.8587,-0.839,-0.7992,-0.7455,-0.7054,-0.6853,-0.6518,-0.6317,-0.6317,-0.558,-0.4908,-0.4168,-0.3497,-0.2623,-0.1616,-0.1616,-0.1366,0.0,0.0,0.0,-0.9698,0.0,0.0,0.0,0.0,-0.8556,0.0,0.0,0.0,0.0,0.0,0.0,0.0,0.0,0.0,0.0,0.0,0.0,0.0,0.0,0.0,0.0,0.0,0.0,0.0,0.0,0.0,-1.7138,-1.9228,-2.0817,-2.1841,-2.3407,-2.4805,-2.595,-2.6327,-2.6714,-2.7167,-2.7179,-2.6839,-2.6229,-2.6421,-2.6145,-2.5538,-2.5704,-2.5742,-2.5742,-2.5742,-2.5606,-2.5333,-2.503,-2.5302,-2.5787,-2.5537,-2.5903,-2.6591,-2.6591,-2.6409,-2.6017,-2.5395,-2.5221,-2.5258,-2.576,-2.5876,-2.5921,-2.605,-2.5594,-2.4919,-2.4293,-2.3611,-2.3106,-2.3106,-2.3106,-2.3106,-2.3106,-2.2543,-2.2111,-2.2111,-2.1544,-2.0862,-2.0234,-1.9194,-1.7829,-1.5759,-1.3927,-1.2161,-1.0455,-0.9585,-0.8984,-0.8653,-0.8587,-0.8587,-0.8587,-0.8587,-0.8323,-0.7593,-0.7526,-0.7192,-0.652,-0.6115,-0.5912,-0.5912,-0.5175,-0.4505,-0.3835,-0.3431,-0.2623,-0.1616,-0.1616,-0.123,0.0,0.0,-1.018,-0.9741,0.0,0.0,0.0,0.0,0.0,0.0,0.0,0.0,0.0,0.0,0.0,0.0,0.0,0.0,0.0,0.0,0.0,0.0,0.0,0.0,0.0,0.0,0.0,0.0,-1.4208,0.0,0.0,-1.7618,-1.934,-2.0817,-2.282,-2.4374,-2.5383,-2.6434,-2.7059,-2.719,-2.719,-2.6768,-2.6001,-2.5971,-2.5527,-2.473,-2.4707,-2.4686,-2.4686,-2.4686,-2.4637,-2.4548,-2.4449,-2.49,-2.5528,-2.5424,-2.5885,-2.6591,-2.6591,-2.6245,-2.5798,-2.5624,-2.5468,-2.5379,-2.578,-2.6105,-2.6287,-2.6117,-2.5594,-2.4919,-2.4293,-2.3611,-2.3106,-2.3106,-2.3106,-2.3043,-2.2793,-2.223,-2.167,-2.1488,-2.1109,-2.0539,-1.9903,-1.8536,-1.698,-1.5303,-1.2947,-1.1045,-0.9994,-0.9256,-0.872,-0.8587,-0.8587,-0.8587,-0.8587,-0.839,-0.8192,-0.7925,-0.7457,-0.7054,-0.6853,-0.6248,-0.578,-0.558,-0.4842,-0.4104,-0.3431,-0.3028,-0.2289,-0.1279,-0.1279,-0.102,-1.0904,-1.0742,0.0,-1.0154,-0.9713,0.0,-0.8676,0.0,0.0,0.0,0.0,0.0,0.0,0.0,0.0,0.0,0.0,0.0,0.0,0.0,0.0,0.0,0.0,0.0,0.0,0.0,-1.2763,-1.2748,-1.2964,0.0,0.0,0.0,-1.8009,-1.9764,-2.2204,-2.4026,-2.5111,-2.6513,-2.719,-2.719,-2.719,-2.6768,-2.6001,-2.5872,-2.5381,-2.4592,-2.4466,-2.439,-2.4301,-2.4301,-2.4251,-2.422,-2.4367,-2.4836,-2.5424,-2.5424,-2.5885,-2.6591,-2.6473,-2.619,-2.5789,-2.5569,-2.5555,-2.5608,-2.5823,-2.6199,-2.644,-2.6158,-2.5594,-2.4919,-2.4293,-2.3611,-2.3106,-2.3106,-2.3106,-2.2988,-2.2543,-2.172,-2.1026,-2.0786,-2.0335,-1.989,-1.9514,-1.8086,-1.6527,-1.5103,-1.2491,-1.0455,-0.9794,-0.9056,-0.8587,-0.8587,-0.8587,-0.8587,-0.8587,-0.8323,-0.8058,-0.7925,-0.7321,-0.6918,-0.6851,-0.6115,-0.5647,-0.5381,-0.4642,-0.3969,-0.3228,-0.2961,-0.2289,-0.1077,-0.1077,-0.0812]},{"header":{"parameterUnit":"m.s-1","parameterCategory":1,"la1":30.6,"la2":29.2853,"lo1":-89.7004,"lo2":-87.6739,"dy":0.0162,"dx":0.0183,"nx":112,"ny":82,"refTime":"2026-03-20T12:00:00:Z","depth":0,"parameterNumber":3,"parameterNumberName":"V-component_of_WINDS"},"data":[0.0,0.0,0.0,0.0,0.0,0.0,0.0,0.0,0.0,0.0,0.0,0.0,0.0,0.0,0.0,0.0,0.0,0.0,0.0,0.0,0.0,0.0,0.0,0.0,0.0,0.0,0.0,0.0,0.0,0.0,0.0,0.0,0.0,0.0,0.0,0.0,0.0,0.0,0.0,0.0,0.0,0.0,0.0,0.0,0.0,0.0,0.0,0.0,0.0,0.0,0.0,0.0,0.0,0.0,0.0,0.0,0.0,0.0,0.0,0.0,0.0,0.0,0.0,0.0,0.0,0.0,0.0,0.0,0.0,0.0,0.0,0.0,0.0,0.0,0.0,0.0,0.0,0.0,0.0,0.0,0.0,0.0,0.0,0.0,0.0,0.0,0.0,0.0,0.0,0.0,0.0,1.9709,2.1608,2.2191,2.081,1.9731,1.8449,1.686,0.0,0.0,0.0,0.0,0.0,0.0,0.0,0.0,0.0,0.0,0.0,0.0,0.0,0.0,0.0,0.0,0.0,0.0,0.0,0.0,0.0,0.0,0.0,0.0,0.0,0.0,0.0,0.0,0.0,0.0,0.0,0.0,0.0,0.0,0.0,0.0,0.0,0.0,0.0,0.0,0.0,0.0,0.0,0.0,0.0,0.0,0.0,0.0,0.0,0.0,0.0,0.0,0.0,0.0,0.0,0.0,0.0,0.0,0.0,0.0,0.0,0.0,0.0,0.0,0.0,0.0,0.0,0.0,0.0,0.0,0.0,0.0,0.0,0.0,0.0,0.0,0.0,0.0,0.0,0.0,0.0,0.0,0.0,0.0,0.0,0.0,0.0,0.0,0.0,0.0,0.0,0.0,0.0,0.0,0.0,0.0,0.0,0.0,0.0,0.0,0.0,0.0,0.0,0.0,2.118,2.4478,2.5043,2.4802,2.3898,2.1826,1.9678,1.7574,0.0,0.0,0.0,0.0,0.0,0.0,0.0,0.0,0.0,0.0,0.0,0.0,0.0,0.0,0.0,0.0,0.0,0.0,0.0,0.0,0.0,0.0,0.0,0.0,0.0,0.0,0.0,0.0,0.0,0.0,0.0,0.0,0.0,0.0,0.0,0.0,0.0,0.0,0.0,0.0,0.0,0.0,0.0,0.0,0.0,0.0,0.0,0.0,0.0,0.0,0.0,0.0,0.0,0.0,0.0,0.0,0.0,0.0,0.0,0.0,0.0,0.0,0.0,0.0,0.0,0.0,0.0,0.0,0.0,0.0,0.0,0.0,0.0,0.0,0.0,0.0,0.0,0.0,0.0,0.0,0.0,0.0,0.0,0.0,0.0,0.0,0.0,0.0,0.0,0.0,0.0,0.0,0.0,0.0,0.0,0.0,0.0,0.0,0.0,0.0,0.0,0.0,0.0,2.034,2.3567,2.5234,2.6702,2.6738,2.4708,2.267,2.0381,1.7771,1.4772,0.0,0.0,0.0,0.0,0.0,0.0,0.0,0.0,0.0,0.0,0.0,0.0,0.0,0.0,0.0,0.0,0.0,0.0,0.0,0.0,0.0,0.0,0.0,0.0,0.0,0.0,0.0,0.0,0.0,0.0,0.0,0.0,0.0,0.0,0.0,0.0,0.0,0.0,0.0,0.0,0.0,0.0,0.0,0.0,0.0,0.0,0.0,0.0,0.0,0.0,0.0,0.0,0.0,0.0,0.0,0.0,0.0,0.0,0.0,0.0,0.0,0.0,0.0,0.0,0.0,0.0,0.0,0.0,0.0,0.0,0.0,0.0,0.0,0.0,0.0,0.0,0.0,0.0,0.0,0.0,0.0,0.0,0.0,0.0,0.0,0.0,0.0,0.0,0.0,0.0,0.0,0.0,0.0,0.0,0.0,0.0,0.0,0.0,0.0,0.0,0.0,0.0,2.2987,2.5223,2.5771,2.8106,2.8411,2.5346,2.353,2.1198,1.8057,1.4854,0.0,0.0,0.0,0.0,0.0,0.0,0.0,0.0,0.0,0.0,0.0,0.0,0.0,0.0,0.0,0.0,0.0,0.0,0.0,0.0,0.0,0.0,0.0,0.0,0.0,0.0,0.0,0.0,0.0,0.0,0.0,0.0,0.0,0.0,0.0,0.0,0.0,0.0,0.0,0.0,0.0,0.0,0.0,0.0,0.0,0.0,0.0,0.0,0.0,0.0,0.0,0.0,0.0,0.0,0.0,0.0,0.0,0.0,0.0,0.0,0.0,0.0,0.0,0.0,0.0,0.0,0.0,0.0,0.0,0.0,0.0,0.0,0.0,0.0,0.0,0.0,0.0,0.0,0.0,0.0,0.0,0.0,0.0,0.0,0.0,0.0,0.0,0.0,0.0,0.0,0.0,0.0,0.0,0.0,0.0,0.0,0.0,0.0,0.0,0.0,0.0,0.0,2.374,2.5895,2.8019,3.0032,2.9973,2.6823,2.5064,2.2553,1.8857,1.5096,0.0,0.0,0.0,0.0,0.0,0.0,0.0,0.0,0.0,0.0,0.0,0.0,0.0,0.0,0.0,0.0,0.0,0.0,0.0,0.0,0.0,0.0,0.0,0.0,0.0,0.0,0.0,0.0,0.0,0.0,0.0,0.0,0.0,0.0,0.0,0.0,0.0,0.0,0.0,0.0,0.0,0.0,0.0,0.0,0.0,0.0,0.0,0.0,0.0,0.0,0.0,0.0,0.0,0.0,0.0,0.0,0.0,0.0,0.0,0.0,0.0,0.0,0.0,0.0,0.0,0.0,0.0,0.0,0.0,0.0,0.0,0.0,0.0,0.0,0.0,0.0,0.0,0.0,0.0,0.0,0.0,0.0,0.0,0.0,0.0,0.0,0.0,0.0,0.0,0.0,0.0,0.0,0.0,0.0,0.0,0.0,0.0,0.0,0.0,0.0,0.0,0.0,2.4637,2.7041,0.0,3.0647,3.0829,2.7706,2.5504,2.2694,1.8946,0.0,0.0,0.0,0.0,0.0,0.0,0.0,0.0,0.0,0.0,0.0,0.0,0.0,0.0,0.0,0.0,0.0,0.0,0.0,0.0,0.0,0.0,0.0,0.0,0.0,0.0,0.0,0.0,0.0,0.0,0.0,0.0,0.0,0.0,0.0,0.0,0.0,0.0,0.0,0.0,0.0,0.0,0.0,0.0,0.0,0.0,0.0,0.0,0.0,0.0,0.0,0.0,0.0,0.0,0.0,0.0,0.0,0.0,0.0,0.0,0.0,0.0,0.0,0.0,0.0,0.0,0.0,0.0,0.0,0.0,0.0,0.0,0.0,0.0,0.0,0.0,0.0,0.0,0.0,0.0,0.0,0.0,0.0,0.0,0.0,0.0,0.0,0.0,0.0,0.0,0.0,0.0,0.0,0.0,0.0,0.0,0.0,0.0,0.0,0.0,0.0,0.0,2.1049,2.4722,2.7339,0.0,3.0858,3.1117,2.7768,2.5526,2.2694,1.8946,0.0,0.0,0.0,0.0,0.0,0.0,0.0,0.0,0.0,0.0,0.0,0.0,0.0,0.0,0.0,0.0,0.0,0.0,0.0,0.0,0.0,0.0,0.0,0.0,0.0,0.0,0.0,0.0,0.0,0.0,0.0,0.0,0.0,0.0,0.0,0.0,0.0,0.0,0.0,0.0,0.0,0.0,0.0,0.0,0.0,0.0,0.0,0.0,0.0,0.0,0.0,0.0,0.0,0.0,0.0,0.0,0.0,0.0,0.0,0.0,0.0,0.0,0.0,0.0,0.0,0.0,0.0,0.0,0.0,0.0,0.0,0.0,0.0,0.0,0.0,0.0,0.0,0.0,0.0,0.0,0.0,0.0,0.0,0.0,0.0,0.0,0.0,0.0,0.0,0.0,0.0,0.0,0.0,0.0,0.0,0.0,0.0,0.0,0.0,0.0,0.0,0.0,2.0076,2.3749,2.6579,2.8125,3.0729,3.0808,2.6932,2.5187,2.2694,0.0,0.0,0.0,0.0,0.0,0.0,0.0,0.0,0.0,0.0,0.0,0.0,0.0,0.0,0.0,0.0,0.0,0.0,0.0,0.0,0.0,0.0,0.0,0.0,0.0,0.0,0.0,0.0,0.0,0.0,0.0,0.0,0.0,0.0,0.0,0.0,0.0,0.0,0.0,0.0,0.0,0.0,0.0,0.0,0.0,0.0,0.0,0.0,0.0,0.0,0.0,0.0,0.0,0.0,0.0,0.0,0.0,0.0,0.0,0.0,0.0,0.0,0.0,0.0,0.0,0.0,0.0,0.0,0.0,0.0,0.0,0.0,0.0,0.0,0.0,0.0,0.0,0.0,0.0,0.0,0.0,0.0,0.0,0.0,0.0,0.0,0.0,0.0,0.0,0.0,0.0,0.0,0.0,0.0,0.0,0.0,0.0,0.0,0.0,0.0,0.0,0.0,0.0,0.0,2.3206,2.5709,2.7165,2.8882,2.9035,2.6791,2.4669,2.2083,1.891,0.0,0.0,0.0,0.0,0.0,0.0,0.0,0.0,0.0,0.0,0.0,0.0,0.0,0.0,0.0,0.0,0.0,0.0,0.0,0.0,0.0,0.0,0.0,0.0,0.0,0.0,0.0,0.0,0.0,0.0,0.0,0.0,0.0,0.0,0.0,0.0,0.0,0.0,0.0,0.0,0.0,0.0,0.0,0.0,0.0,0.0,0.0,0.0,0.0,0.0,0.0,0.0,0.0,0.0,0.0,0.0,0.0,0.0,0.0,0.0,0.0,0.0,0.0,0.0,0.0,0.0,0.0,0.0,0.0,0.0,0.0,0.0,0.0,0.0,0.0,0.0,0.0,0.0,0.0,0.0,0.0,0.0,0.0,0.0,0.0,0.0,0.0,0.0,0.0,0.0,0.0,0.0,0.0,0.0,0.0,0.0,0.0,0.0,0.0,0.0,0.0,0.0,1.939,2.2674,2.4998,2.5844,2.7423,2.7543,2.5388,2.3633,2.1396,1.8448,0.0,0.0,0.0,0.0,0.0,0.0,0.0,0.0,0.0,0.0,0.0,0.0,0.0,0.0,0.0,0.0,0.0,0.0,0.0,0.0,0.0,0.0,0.0,0.0,0.0,0.0,0.0,0.0,0.0,0.0,0.0,0.0,0.0,0.0,0.0,0.0,0.0,0.0,0.0,0.0,0.0,0.0,0.0,0.0,0.0,0.0,0.0,0.0,0.0,0.0,0.0,0.0,0.0,0.0,0.0,0.0,0.0,0.0,0.0,0.0,0.0,0.0,0.0,0.0,0.0,0.0,0.0,0.0,0.0,0.0,0.0,0.0,0.0,0.0,0.0,0.0,0.0,0.0,0.0,0.0,0.0,0.0,0.0,0.0,0.0,0.0,0.0,0.0,0.0,0.0,0.0,0.0,0.0,0.0,0.0,0.0,0.0,0.0,0.0,0.0,0.0,0.0,1.8585,2.2086,2.4354,2.4484,2.6231,2.6244,2.344,2.2411,2.072,1.7986,0.0,0.0,0.0,0.0,0.0,0.0,0.0,0.0,0.0,0.0,0.0,0.0,0.0,0.0,0.0,0.0,0.0,0.0,0.0,0.0,0.0,0.0,0.0,0.0,0.0,0.0,0.0,0.0,0.0,0.0,0.0,0.0,0.0,0.0,0.0,0.0,0.0,0.0,0.0,0.0,0.0,0.0,0.0,0.0,0.0,0.0,0.0,0.0,0.0,0.0,0.0,0.0,0.0,0.0,0.0,0.0,0.0,0.0,0.0,0.0,1.7621,0.0,0.0,0.0,0.0,0.0,0.0,0.0,0.0,0.0,0.0,0.0,0.0,0.0,0.0,0.0,0.0,0.0,0.0,0.0,0.0,0.0,0.0,0.0,0.0,0.0,0.0,0.0,0.0,0.0,0.0,0.0,0.0,0.0,0.0,0.0,0.0,0.0,0.0,0.0,0.0,0.0,1.8519,2.1123,2.3135,2.4302,2.4778,2.4765,2.4098,2.2201,2.0573,1.9471,0.0,0.0,0.0,0.0,0.0,0.0,0.0,0.0,0.0,0.0,0.0,0.0,0.0,0.0,0.0,0.0,0.0,0.0,0.0,0.0,0.0,0.0,0.0,0.0,0.0,0.0,0.0,0.0,0.0,0.0,0.0,0.0,0.0,0.0,0.0,0.0,0.0,0.0,0.0,0.0,0.0,0.0,0.0,0.0,0.0,0.0,0.0,0.0,0.0,0.0,0.0,0.0,0.0,0.0,0.0,0.0,0.0,0.0,0.0,0.0,0.0,2.0263,0.0,0.0,0.0,0.0,0.0,0.0,0.0,0.0,0.0,0.0,0.0,0.0,0.0,0.0,0.0,0.0,0.0,0.0,0.0,0.0,0.0,0.0,0.0,0.0,0.0,0.0,0.0,0.0,0.0,0.0,0.0,0.0,0.0,0.0,0.0,0.0,0.0,0.0,0.0,0.0,1.8458,2.0763,2.2535,2.3656,2.4088,2.3992,2.3255,2.2078,2.0802,1.9454,1.7603,0.0,0.0,0.0,0.0,0.0,0.0,0.0,0.0,0.0,0.0,0.0,0.0,0.0,0.0,0.0,0.0,0.0,0.0,0.0,0.0,0.0,0.0,0.0,0.0,0.0,0.0,0.0,0.0,0.0,0.0,0.0,0.0,0.0,0.0,0.0,0.0,0.0,0.0,0.0,0.0,0.0,0.0,0.0,0.0,0.0,0.0,0.0,0.0,0.0,0.0,0.0,0.0,0.0,0.0,2.7291,2.8469,2.8315,2.8715,2.9373,2.767,2.5903,2.4147,0.0,0.0,0.0,0.0,0.0,0.0,0.0,0.0,0.0,0.0,0.0,0.0,0.0,0.0,0.0,0.0,0.0,0.0,0.0,0.0,0.0,0.0,0.0,0.0,0.0,2.6754,2.6279,0.0,0.0,0.0,0.0,0.0,0.0,0.0,0.0,0.0,0.0,0.0,0.0,1.8628,2.0749,2.2289,2.3019,2.3834,2.3741,2.2335,2.2224,2.1364,1.9359,1.8499,1.718,0.0,0.0,0.0,0.0,0.0,0.0,0.0,0.0,0.0,0.0,0.0,0.0,0.0,0.0,0.0,0.0,0.0,0.0,0.0,0.0,0.0,0.0,0.0,0.0,0.0,0.0,0.0,0.0,0.0,0.0,0.0,0.0,1.3595,1.4899,0.0,0.0,0.0,0.0,0.0,0.0,0.0,0.0,0.0,0.0,0.0,0.0,0.0,0.0,2.3992,2.5796,2.749,2.916,3.0856,3.2012,3.2704,3.3081,3.3567,3.4124,3.4417,0.0,2.6784,2.538,0.0,0.0,0.0,0.0,0.0,0.0,0.0,0.0,0.0,0.0,0.0,0.0,0.0,0.0,0.0,0.0,0.0,0.0,0.0,0.0,0.0,0.0,3.0188,3.0682,3.1237,3.1568,0.0,2.8734,2.6156,2.4654,0.0,0.0,0.0,0.0,0.0,0.0,0.0,0.0,1.9545,2.1064,2.2289,2.3019,2.3834,2.3965,2.3105,2.3112,2.2502,2.1058,1.9729,1.8657,1.7834,1.6424,0.0,0.0,0.0,0.0,0.0,0.0,0.0,0.0,0.0,0.0,0.0,0.0,0.0,0.0,0.0,0.0,0.0,0.0,0.0,0.0,0.0,0.0,0.0,0.0,0.0,0.0,0.0,0.0,0.0,1.3305,1.4387,1.5718,1.5566,1.5434,0.0,0.0,0.0,0.0,0.0,0.0,0.0,0.0,0.0,2.1874,2.2772,2.4401,2.6872,2.8863,3.09,3.2934,3.4441,3.5619,3.6549,3.665,3.6866,3.7079,3.7241,3.5663,3.2809,3.0163,2.8127,2.6498,0.0,0.0,0.0,0.0,0.0,2.4274,2.5866,2.6008,0.0,0.0,0.0,0.0,0.0,0.0,0.0,0.0,0.0,0.0,0.0,0.0,0.0,3.3965,3.4553,3.4903,3.4694,3.3538,3.173,0.0,2.7161,2.5172,2.2221,0.0,0.0,0.0,0.0,0.0,2.0319,2.1395,2.2464,2.3646,2.408,2.4189,2.3954,2.3986,2.3463,2.2113,2.1562,2.059,1.9047,1.8404,1.7307,0.0,0.0,0.0,0.0,0.0,0.0,0.0,0.0,0.0,0.0,0.0,0.0,0.0,0.0,0.0,0.0,0.0,0.0,0.0,0.0,0.0,0.0,0.0,0.0,0.0,0.0,0.0,0.0,1.4898,1.5654,1.6847,1.6733,1.6724,0.0,0.0,0.0,0.0,0.0,0.0,2.0408,2.1017,2.2294,2.4361,2.5585,2.7155,2.9134,3.1311,3.341,3.5401,3.6816,3.8091,3.9131,3.8969,3.8978,3.9067,3.8788,3.8308,3.7442,3.4116,3.1876,3.0375,2.8348,2.7611,2.7777,2.8511,2.9109,2.979,3.1479,3.1698,3.1144,3.0679,0.0,2.826,2.7115,0.0,0.0,0.0,0.0,2.9982,3.1491,3.3984,3.6268,3.689,3.7501,3.7769,3.7183,3.7184,3.6203,0.0,3.0566,2.8643,2.5541,0.0,0.0,0.0,0.0,2.0533,2.1737,2.2653,2.3656,2.4869,2.5345,2.5482,2.5244,2.5272,2.4655,2.3077,2.2959,2.201,1.9929,1.9757,1.8789,1.6857,0.0,0.0,0.0,0.0,0.0,0.0,0.0,0.0,0.0,0.0,0.0,0.0,0.0,0.0,0.0,0.0,0.0,0.0,0.0,0.0,0.0,0.0,0.0,0.0,0.0,0.0,0.0,0.0,0.0,1.9294,1.9562,0.0,0.0,0.0,0.0,2.1448,2.1506,2.2376,2.4298,2.4573,2.5537,2.7432,2.821,2.9286,3.0675,3.2951,3.4635,3.5706,3.7674,3.9032,3.9763,3.9563,3.9699,4.0109,3.9773,3.9219,3.8333,3.575,3.4411,3.3821,3.1639,3.1512,3.262,3.3179,3.3971,3.5099,3.7011,3.7378,3.6897,3.6446,3.4305,3.1902,3.1639,3.0808,0.0,0.0,3.2035,3.3565,3.498,3.7114,3.907,3.9739,4.0319,4.0556,4.0016,4.001,3.886,0.0,3.3203,3.1865,2.9269,0.0,2.5875,2.4348,2.418,2.4234,2.4316,2.5579,2.6578,2.6841,2.8158,2.8544,2.7263,2.7211,2.6317,2.4165,2.3447,2.238,2.0808,2.0073,1.9314,1.851,1.6992,0.0,0.0,0.0,0.0,0.0,0.0,0.0,0.0,0.0,0.0,0.0,0.0,0.0,0.0,0.0,0.0,0.0,0.0,0.0,0.0,0.0,0.0,0.0,0.0,0.0,0.0,0.0,0.0,2.1369,2.1669,0.0,0.0,2.3699,2.4014,2.4832,2.5694,2.6338,2.664,2.7084,2.8026,2.9508,3.0612,3.1806,3.31,3.4733,3.609,3.7134,3.8304,3.9271,3.991,3.9795,3.9727,3.9651,3.9002,3.8591,3.8238,3.703,3.6539,3.6415,3.5099,3.5166,3.6084,3.6818,3.7467,3.8166,3.9608,4.01,4.002,3.9546,3.8363,3.7059,3.6843,3.6073,3.5287,3.5414,3.5808,3.6432,3.7471,3.8724,3.9909,4.0596,4.0816,4.0613,3.9505,3.8964,3.8098,3.6122,3.559,3.487,3.2915,3.0797,2.9054,2.8082,2.711,2.6708,2.7317,2.8415,2.9593,3.0746,3.1498,3.1548,3.0599,2.9235,2.7684,2.5959,2.4672,2.3518,2.2444,2.2159,2.1176,1.9403,1.891,1.7795,0.0,0.0,0.0,0.0,0.0,0.0,0.0,0.0,0.0,0.0,0.0,0.0,0.0,0.0,0.0,0.0,0.0,0.0,0.0,0.0,0.0,0.0,0.0,0.0,0.0,0.0,2.0503,2.2512,2.3144,2.4012,2.5485,2.5862,2.6268,2.694,2.7937,2.8438,2.818,2.8583,2.9435,3.0675,3.1896,3.3029,3.4079,3.549,3.6757,3.7923,3.8859,3.9681,4.0323,4.0423,4.0227,3.978,3.8925,3.8536,3.8492,3.7965,3.7916,3.8207,3.7665,3.8081,3.9088,4.0055,4.0781,4.138,4.2327,4.2637,4.2589,4.2287,4.169,4.1078,4.0879,4.0123,3.9277,3.9114,3.8829,3.8693,3.9232,3.9796,4.036,4.0791,4.0864,4.0496,3.9312,3.833,3.7619,3.7397,3.7059,3.6411,3.5035,3.3215,3.1617,3.0716,2.9318,2.8728,2.9653,3.0904,3.2279,3.375,3.4597,3.4542,3.3277,3.112,2.9085,2.7284,2.5495,2.4128,2.3299,2.3297,2.2324,2.0239,1.979,1.8548,1.6438,0.0,0.0,0.0,0.0,0.0,0.0,0.0,0.0,0.0,0.0,0.0,0.0,0.0,0.0,0.0,0.0,0.0,0.0,0.0,0.0,0.0,0.0,0.0,1.6782,1.9378,2.1438,2.2669,2.4041,2.512,2.5706,2.638,2.7108,2.7716,2.8066,2.8497,2.9066,2.911,2.9665,3.0962,3.2023,3.2885,3.3536,3.5194,3.6646,3.7915,3.9289,4.0329,4.0997,4.14,4.1249,4.0636,3.9634,3.9204,3.9146,3.8478,3.8575,3.9101,3.9152,4.0102,4.1624,4.2789,4.3849,4.4773,4.5303,4.5136,4.4708,4.4708,4.4275,4.371,4.3482,4.2691,4.1849,4.1612,4.0932,4.0237,4.0254,4.037,4.051,4.0527,4.0634,4.0508,3.9712,3.847,3.7719,3.8422,3.7559,3.6452,3.5604,3.4768,3.3692,3.2204,3.082,0.0,3.1274,3.3053,3.4634,3.5744,3.7388,3.7512,3.5206,3.2876,3.0483,2.8057,2.5764,2.4119,2.324,2.3281,2.2615,2.1101,1.9635,1.8113,1.658,0.0,0.0,0.0,0.0,0.0,0.0,0.0,0.0,0.0,0.0,0.0,0.0,0.0,0.0,0.0,0.0,0.0,0.0,0.0,0.0,0.0,0.0,1.3846,1.6669,1.8921,2.1042,2.3138,2.3979,2.5074,2.6852,2.7222,2.7875,2.9063,2.9201,2.9292,2.9459,2.9052,2.9513,3.1026,3.1636,3.2624,3.3988,3.5576,3.6792,3.765,3.9036,3.9974,4.0505,4.0944,4.0997,4.0636,3.9634,3.9204,3.9146,3.8478,3.8575,3.9169,3.9948,4.0805,4.1726,4.3116,4.4091,4.4735,4.4882,4.4988,4.507,4.507,4.501,4.481,4.4113,4.2876,4.1534,4.0847,3.97,3.885,3.937,3.9995,4.0646,4.1169,4.1405,4.1297,4.0542,3.8849,3.7564,3.7771,3.7521,3.7197,3.6968,3.5359,3.3997,3.3625,3.1844,0.0,3.3547,3.5612,3.7479,3.908,4.0338,4.0123,3.7854,3.427,3.095,0.0,2.5764,2.4119,2.324,2.3822,2.3726,2.2766,2.1292,1.9769,0.0,0.0,0.0,0.0,0.0,0.0,0.0,0.0,0.0,0.0,0.0,0.0,0.0,0.0,0.0,0.0,0.0,0.0,0.0,0.0,0.0,0.0,1.1714,1.3913,1.6105,1.8462,2.0749,2.2719,2.3636,2.4678,2.607,2.6638,2.7258,2.8205,2.8552,2.8712,2.8707,2.8397,2.8838,3.0276,3.0899,3.2095,3.3895,3.518,3.6475,3.773,3.9,3.9979,4.0631,4.138,4.1568,0.0,4.0357,4.0002,3.9944,3.9276,3.9268,0.0,0.0,0.0,0.0,0.0,4.3889,4.4248,4.4248,4.4463,4.4759,4.4759,4.4896,4.4922,4.4063,4.2483,4.0806,3.9983,3.8448,3.7295,3.8374,3.9261,4.015,4.118,4.1587,4.1507,4.0771,3.8981,3.7599,3.7909,0.0,0.0,3.7538,3.6195,3.4901,3.4302,3.2906,3.2669,3.4659,3.7039,3.9079,4.0542,4.1898,4.1742,3.9405,3.6021,0.0,0.0,0.0,2.4974,2.3795,2.3905,0.0,0.0,0.0,0.0,0.0,0.0,0.0,0.0,2.356,2.4304,0.0,0.0,0.0,0.0,0.0,0.0,0.0,0.0,0.0,0.0,0.0,0.0,0.0,0.0,0.0,0.0,1.1564,1.3799,1.525,1.7849,2.0165,2.1638,2.2814,2.3633,2.4045,2.485,2.554,2.598,2.6718,2.717,2.7248,0.0,0.0,0.0,0.0,3.1293,3.3288,3.4353,3.5857,3.7815,3.9041,4.0083,4.0958,4.2102,4.2433,4.2063,4.1381,4.1091,4.1047,4.0379,4.0261,4.0494,4.0572,4.1124,4.2008,4.3111,4.3589,4.371,4.374,0.0,0.0,4.4319,4.455,4.4699,4.3809,4.2023,4.0164,3.9343,3.755,3.6191,3.7652,3.8633,3.9597,4.0984,4.1597,4.1673,4.1007,3.9375,3.8185,3.8755,3.8341,3.781,3.762,3.6967,3.6021,3.4603,3.391,3.3988,3.5242,3.7768,3.9831,4.086,0.0,0.0,4.0118,3.7764,3.505,3.1801,2.8645,2.6256,2.4834,2.4089,2.3729,2.38,2.4008,2.4239,2.4449,2.7129,2.9057,3.0215,2.8524,2.8619,0.0,0.0,0.0,0.0,0.0,0.0,0.0,0.0,0.0,0.0,0.0,0.0,0.0,0.0,0.0,0.8684,1.0723,1.2652,1.4406,1.6119,1.792,1.9918,2.0287,2.0854,2.2018,2.1961,2.2503,2.4097,2.4657,2.5111,2.5601,2.5528,0.0,2.8096,2.8479,2.9797,3.2198,3.3731,3.5205,3.6625,0.0,0.0,4.0474,4.1675,4.2175,4.2063,4.1381,4.1091,4.1047,4.0379,4.0417,4.0929,4.1583,4.2607,4.3721,4.3955,4.4219,4.4513,4.4658,4.5007,4.541,4.558,4.5975,4.6109,4.4801,4.3183,0.0,4.0265,3.87,3.7669,3.8565,3.9783,4.1001,4.188,4.2796,4.3406,4.327,4.2146,4.1015,4.0549,4.0342,3.9652,3.7828,3.6942,3.6275,3.5591,3.4481,3.462,3.7037,3.8742,4.0299,4.1849,4.2873,4.2485,4.0175,3.8208,3.5528,3.1832,2.8637,2.6758,2.6442,2.6284,2.6219,2.6219,2.7059,2.7579,2.779,3.0449,3.3051,3.5408,3.3786,3.3573,0.0,0.0,0.0,0.0,0.0,0.0,0.0,0.0,0.0,0.0,0.0,0.2968,0.3968,0.0,0.6693,0.8191,0.9969,1.1612,1.2998,1.4154,1.5814,1.8461,1.901,1.9523,2.0494,2.0617,2.1192,2.2696,2.334,2.4002,2.4815,2.4909,2.5853,2.7786,2.8463,2.9993,3.2542,3.3894,3.5324,3.6744,3.8407,3.9475,3.9998,4.1213,4.1745,4.1731,4.14,4.1324,4.1377,4.1181,4.1412,4.1912,4.2288,4.2873,4.3453,4.3523,4.3799,4.414,4.4424,4.4919,4.5431,4.5763,4.6287,4.6583,4.5483,4.3809,4.2066,4.095,3.9326,3.8159,3.9242,4.0375,4.1491,4.2591,4.3382,4.3911,4.3911,4.3211,4.2378,4.1602,4.1464,4.0739,3.8528,3.7534,3.6741,3.5871,3.5084,3.5286,3.7169,3.8866,4.0383,4.1662,4.2492,4.2509,4.1393,3.9002,3.6413,3.3728,3.0906,2.9174,2.8765,2.8374,2.7947,2.7501,2.9298,3.0374,3.0608,3.3731,3.6474,3.8807,3.8875,3.9136,0.0,0.0,0.0,0.0,0.0,0.0,0.0,0.0,0.1147,0.1755,0.2467,0.3287,0.4296,0.5535,0.6765,0.7924,0.9409,1.0762,1.1728,1.2598,1.4083,1.6721,1.772,1.8407,1.9092,1.9549,2.0253,2.1303,2.222,2.3132,2.4044,2.4651,2.5798,2.7656,2.8869,3.0661,3.3111,3.4283,3.5584,3.7062,3.8496,3.9312,3.9574,4.0716,4.1198,4.1213,4.1297,4.1507,4.1785,4.1995,4.2284,4.2581,4.2581,4.2656,4.2717,4.3009,4.337,4.3776,4.423,4.4812,4.5457,4.5924,4.66,4.706,4.6333,4.4739,4.3014,4.2286,4.0578,3.9242,4.0426,4.117,4.1948,4.3176,4.3783,4.4116,4.4143,4.389,4.3396,4.2627,4.2375,4.1663,3.9648,3.843,3.7349,3.6188,3.5812,3.608,3.7263,3.8939,4.0376,4.1234,4.1933,4.2356,4.239,3.9733,3.7455,3.6055,3.38,3.2072,3.1106,3.0437,2.9694,2.8839,3.1293,3.2883,3.3475,3.6881,3.9623,4.1724,4.3316,4.3956,0.1371,0.1028,0.0795,0.0706,0.0477,0.0402,0.0,0.0,0.2168,0.3005,0.3974,0.4886,0.5709,0.6306,0.7047,0.8239,0.9147,1.0124,1.1318,1.2199,1.3154,1.4232,1.5238,1.6289,1.744,1.7871,1.8483,1.9492,2.0994,2.2058,2.262,2.4196,2.5772,2.7322,2.895,3.0825,3.2918,3.4407,3.5699,3.6756,3.8405,3.9237,3.938,4.0287,4.0575,4.0431,4.0873,4.1409,4.2051,4.2092,4.2133,4.2175,4.2175,4.2386,4.2773,4.3506,4.4083,4.4567,4.5159,4.5798,4.6465,4.7225,4.7994,4.8461,4.7841,4.7022,4.6143,4.5399,4.4045,4.2817,4.2997,4.3088,4.3244,4.3583,4.4289,4.4912,4.503,4.5111,4.4967,4.4343,4.3732,4.2862,4.138,3.9508,3.7968,3.722,3.6791,3.7223,3.9061,3.981,4.0515,4.1381,4.1608,4.169,4.1724,4.0016,3.8567,3.7689,3.603,3.4376,3.2797,3.2648,3.2221,3.1403,3.3315,3.5177,3.6948,3.9783,4.2569,4.5247,4.6213,4.6296,0.0986,0.0928,0.0,0.0,0.0931,0.1082,0.1808,0.257,0.3477,0.4634,0.5761,0.6733,0.7117,0.7359,0.7701,0.0,0.8874,0.9508,1.0492,1.1395,1.2209,1.2899,1.3745,1.4832,1.6306,1.6883,1.7751,1.9183,2.0568,2.2026,2.3608,2.4775,2.6366,2.839,2.9938,3.16,3.3529,3.4966,3.6085,3.6956,3.845,3.9237,3.9349,4.0085,4.0374,4.0345,4.0972,4.1549,4.2092,4.2092,4.2092,4.2092,4.2242,4.2474,4.2729,4.3076,4.3472,4.3957,4.4572,4.5405,4.6256,4.6965,4.7902,4.875,4.8509,4.7946,4.7394,4.7073,4.5906,4.4756,4.4756,4.4473,4.4234,4.4317,4.4729,4.514,4.5177,4.53,4.5252,4.4729,4.4474,4.3956,4.2621,4.102,3.9711,3.9079,3.7341,3.6633,3.802,3.8552,3.9503,4.1345,4.2002,4.2482,4.2965,4.1924,4.1107,4.0773,3.9231,3.8037,3.7336,3.6409,3.5547,3.4775,3.6652,3.8344,3.9834,4.2544,4.5045,4.7256,4.7666,4.7939,0.0813,0.0,0.0,0.1402,0.1439,0.1675,0.2573,0.3468,0.4489,0.5721,0.682,0.7614,0.7913,0.779,0.0,0.848,0.8738,0.9204,1.0188,1.1072,1.192,1.2672,1.3275,1.4152,1.542,1.6059,1.7123,1.8886,2.0346,2.2173,2.4375,2.5514,2.7053,2.9228,3.0762,3.2354,3.3981,3.5391,3.6417,3.7108,3.8554,3.9237,3.9336,4.0012,4.0331,4.0417,4.1029,4.1606,4.2092,4.2092,4.2133,4.2216,4.2366,4.2541,4.2769,4.2769,4.301,4.3409,4.4089,4.4977,4.5953,4.6604,4.7688,4.8738,4.8769,4.8523,4.8193,4.8193,4.731,4.6312,4.6312,4.5852,4.5416,4.5443,4.5494,4.5512,4.561,4.5561,4.5442,4.5214,4.5192,4.4945,4.408,4.2622,4.1459,4.1051,3.8409,3.6635,3.7145,3.7515,3.8549,4.0669,4.182,4.2767,4.3596,4.3132,4.2797,4.2797,4.1702,4.0958,4.075,3.9867,3.9061,3.8322,3.9991,4.144,4.2585,4.4997,4.7034,4.8659,4.8941,4.9421,0.0,0.0,0.1425,0.1947,0.1944,0.2038,0.3035,0.3993,0.4972,0.5967,0.6519,0.7066,0.7778,0.7314,0.7214,0.8327,0.8832,0.9497,1.0693,1.1612,1.2589,1.3739,1.4019,1.436,0.0,1.5404,1.6413,1.811,2.0251,2.2307,2.4106,2.597,2.768,2.9249,3.1218,3.2833,3.3993,3.5571,3.664,3.7108,3.8554,3.9237,3.9336,4.0012,4.0417,4.0603,4.0887,4.1409,4.2092,4.2092,4.2201,4.2392,4.2392,4.2662,4.2981,4.2981,4.3115,4.3409,4.4089,4.4918,4.5841,4.6569,4.7588,4.8564,4.8738,4.8877,4.8968,4.8968,4.8426,4.7821,4.7821,4.7395,4.6963,4.709,4.6696,4.6357,4.6679,4.6257,4.5912,4.6291,4.6028,4.5829,4.5979,4.4245,4.2884,4.2995,4.0337,3.8054,3.7307,3.7429,3.7981,3.897,4.0544,4.189,4.276,4.2816,4.2797,4.2797,4.2742,4.237,4.159,4.2449,4.2604,4.1863,4.2986,4.4146,4.5285,4.706,4.8487,4.9586,5.0436,5.0847,0.0,0.0,0.1633,0.1958,0.2233,0.2676,0.3716,0.4699,0.5456,0.5846,0.62,0.6386,0.6337,0.6379,0.675,0.7721,0.8749,0.9873,1.111,1.2394,1.3488,1.4336,1.4763,0.0,0.0,0.0,0.0,1.8586,2.081,2.3114,2.5376,2.6904,2.8489,3.0221,3.1821,3.3166,3.4239,3.5667,3.664,3.7108,3.8981,4.0117,4.0562,4.1147,4.1225,4.0887,4.1296,4.1717,4.2092,4.2242,4.2366,4.2433,4.2688,4.3156,4.366,4.3509,4.3852,4.4337,4.4163,4.4805,4.5769,4.6304,4.7388,4.8515,4.8595,4.8784,4.9001,4.9001,4.8477,4.7889,4.7889,4.7522,4.713,4.7187,4.6848,4.6579,4.6873,4.6488,4.6211,4.6649,4.6874,4.7063,4.7329,4.6421,4.4986,4.2882,4.0231,3.8217,3.7554,3.7551,3.8405,4.0437,4.1156,4.2075,4.3485,4.3596,4.3596,4.3596,4.3676,4.3867,4.417,4.413,4.428,4.4701,4.5261,4.6099,4.7185,4.8422,4.9504,5.0474,5.075,5.1235,0.1057,0.153,0.193,0.2188,0.253,0.3009,0.3858,0.4654,0.5208,0.5218,0.5128,0.5036,0.5087,0.5359,0.5994,0.7224,0.8661,1.0058,1.147,1.2827,1.4038,1.501,1.5438,0.0,0.0,0.0,0.0,1.8912,2.1078,2.3457,2.6003,2.7665,2.9271,3.0867,3.2426,3.3624,3.4544,3.5775,3.6836,3.7637,3.9163,4.054,4.1616,4.2086,4.2194,4.2067,4.2134,4.2299,4.2522,4.2453,4.2459,4.2662,4.2915,4.3437,4.4109,4.4148,4.4619,4.5107,4.4534,4.503,4.6001,4.6356,4.7438,4.8515,4.8515,4.8736,4.9001,4.9001,4.8663,4.8308,4.8308,4.8175,4.8019,4.8019,4.77,4.7472,4.7804,4.7497,4.7314,4.7793,4.8049,4.825,4.847,4.7494,4.5773,4.313,4.1081,3.9412,3.8143,3.8232,3.9209,4.1243,4.1721,4.2471,4.3878,4.4005,4.4005,4.4005,4.4411,4.5073,4.596,4.6017,4.6518,4.754,4.78,4.8292,4.9029,4.9623,5.0254,5.0899,5.1211,5.1703,0.1742,0.2095,0.2328,0.2625,0.2886,0.3093,0.3522,0.3946,0.4244,0.4101,0.3396,0.3093,0.0,0.0,0.4997,0.6753,0.8475,1.0137,1.1644,1.2924,1.4275,0.0,0.0,0.0,0.0,0.0,0.0,1.9204,0.0,2.3476,2.5931,2.8137,2.9949,3.1216,3.3039,3.4299,3.4823,3.5955,3.7228,3.8616,3.9217,4.0526,4.2438,4.2707,4.3253,4.395,4.3311,4.3162,4.3257,4.2685,4.2692,4.2996,4.3065,4.3603,4.4402,4.49,4.5384,4.5788,4.5259,4.5646,4.6391,4.6807,4.7638,4.8515,4.8515,4.8736,4.9001,4.9001,4.9001,4.9001,4.9001,4.9246,4.9518,4.9518,4.9142,4.8933,4.942,4.9203,4.9077,4.9611,4.9466,4.9255,4.932,4.7459,4.5424,4.3863,4.2928,4.1552,3.9129,3.9496,4.0347,4.1348,4.2176,4.3035,4.3989,4.4098,4.4132,4.415,4.505,4.5997,4.6947,4.8034,4.9112,5.0187,5.0407,5.0565,5.0701,5.0701,5.0794,5.0985,5.1818,5.2291,0.2244,0.259,0.2912,0.2958,0.306,0.3219,0.3481,0.3622,0.3476,0.2733,0.1985,0.1611,0.0,0.0,0.0,0.577,0.7949,0.0,1.1474,1.3007,0.0,0.0,0.0,1.7947,1.861,1.965,0.0,0.0,2.2982,2.4813,2.701,2.9014,3.0636,3.175,3.3438,3.4629,3.5379,3.7045,3.8269,3.9064,4.0214,4.1383,4.2565,4.3052,4.3503,4.3979,4.3819,4.3499,4.3104,4.3307,4.3145,4.2854,4.3666,4.4426,4.5132,4.5743,4.6738,4.7777,4.7744,4.7364,4.6896,4.7015,4.7704,4.8515,4.8515,4.8736,4.9001,4.9001,4.9001,4.9001,4.9001,4.9246,4.9518,4.9518,4.9142,4.8962,4.9528,4.9364,4.9299,4.9875,4.9737,4.9311,4.8688,4.7589,4.6434,4.5443,4.4599,4.3205,4.0802,4.0655,4.1176,4.2179,4.3008,4.3886,4.4881,4.5574,4.5953,4.6013,4.645,4.7137,4.8118,4.8644,4.9384,5.0399,5.0521,5.0624,5.0701,5.0757,5.1155,5.1884,5.2144,5.2971,0.2986,0.3044,0.3131,0.3199,0.3363,0.3485,0.3378,0.3227,0.2821,0.1848,0.0943,0.0,0.0,0.0,0.0,0.0,0.0,0.0,1.1239,1.2909,1.4499,0.0,1.7253,0.0,1.9734,2.0997,2.2271,0.0,2.4507,2.5664,2.7282,2.9649,3.133,3.2167,3.3956,3.5586,3.6991,3.7929,3.8843,3.9732,4.0522,4.1512,4.2718,4.3216,4.3987,4.4806,0.0,4.4211,4.3976,4.3969,4.3855,4.3793,4.4355,4.5072,4.5822,4.6605,4.7713,4.8907,4.927,4.9132,4.8795,4.8627,4.8779,4.9001,4.9082,4.9053,4.9001,4.9001,4.9001,4.9001,4.9001,4.9246,4.95,4.956,4.9527,4.9642,5.0242,5.0403,5.0532,5.0871,5.0767,5.038,4.9536,4.8397,4.7351,4.6562,4.5425,4.4196,4.2838,4.2378,4.252,4.3461,4.3976,4.4652,4.5649,4.6264,4.665,4.678,4.7081,4.7698,4.8725,4.8988,4.9554,5.0573,5.0623,5.0673,5.0738,5.0801,5.1341,5.226,5.2707,5.3622,0.384,0.3443,0.3187,0.3414,0.372,0.384,0.3281,0.2859,0.2271,0.1234,0.0,-0.0557,0.0122,0.0,0.2187,0.4209,0.0,0.9063,1.0914,1.2682,1.4469,1.6239,1.7256,1.8668,2.0797,2.2194,2.366,2.5391,2.5967,2.6645,2.747,3.0173,3.2033,3.2851,3.4799,3.6761,3.8727,3.8783,3.9311,4.0398,4.067,4.1524,4.2889,4.3444,4.4509,4.5851,0.0,0.0,4.5128,4.4616,4.4637,4.4944,4.5075,4.5603,4.6421,4.7384,4.8466,4.956,5.0237,5.0845,5.121,5.0694,5.0192,4.9821,4.9999,4.9637,4.9154,4.9154,4.9086,4.9001,4.9001,4.9246,4.9547,4.9708,5.0114,5.0602,5.1131,5.1701,5.2103,5.1998,5.1995,5.1738,5.0949,4.9517,4.8159,4.7241,4.581,4.4837,4.4727,4.4102,4.3991,4.4887,4.507,4.5544,4.6547,4.6934,4.7252,4.7567,4.7897,4.8523,4.9495,4.9644,5.0132,5.101,5.1039,5.101,5.0975,5.1153,5.1672,5.2499,5.3435,5.4304,0.4734,0.3886,0.3299,0.3725,0.4005,0.4009,0.3214,0.2656,0.0,0.0,0.0,-0.1327,-0.0704,0.0089,0.0,0.3379,0.0,0.0,0.0,0.0,1.4233,0.0,0.0,0.0,0.0,0.0,0.0,0.0,0.0,0.0,2.9265,3.0972,3.2978,3.5319,3.6496,3.7559,3.852,3.9945,4.0502,4.0264,4.1756,4.2703,4.3177,4.3918,4.4833,4.588,0.0,0.0,4.4967,4.4997,4.4906,4.4763,4.5509,4.602,4.6466,4.7904,4.9171,5.0336,5.1169,5.2061,5.259,5.1145,5.0709,5.0756,5.0789,5.0379,4.9898,4.9898,4.9475,4.9001,4.9001,4.9246,4.956,4.982,5.0307,5.0884,5.1398,5.2132,5.2524,5.21,5.1995,5.1738,5.0949,4.9994,4.8857,4.7333,4.6305,4.5497,4.4943,4.4651,4.4854,4.5788,4.6522,4.733,4.8287,4.9301,5.0284,5.1137,5.1513,5.1885,5.2288,5.2384,5.2525,5.276,5.2779,5.2464,5.1883,5.2612,5.3111,5.3407,5.4283,5.5171,0.5399,0.4351,0.3646,0.4103,0.4514,0.4557,0.3605,0.0,0.0,0.0,0.0,-0.151,-0.0916,0.0,0.0,0.0,0.0,0.0,0.0,0.0,0.0,0.0,0.0,0.0,0.0,0.0,0.0,0.0,0.0,0.0,2.9912,3.2018,3.4252,3.6436,3.7368,3.8565,4.0087,4.0825,4.1384,4.1863,4.262,4.3249,4.3782,4.4294,4.5032,4.588,4.588,0.0,4.5446,4.5535,4.5581,4.568,4.615,4.6572,4.7117,4.8315,4.9503,5.0681,5.157,5.252,5.3213,5.2438,5.1883,5.1596,5.1678,5.1203,5.0591,5.0202,4.9847,4.9475,4.9103,4.9246,4.959,4.9919,5.0758,5.1612,5.2126,5.2586,5.2846,5.265,5.2619,5.2509,5.2123,5.1022,4.9811,4.8581,4.7389,4.6525,4.6193,4.6119,4.6284,4.6725,4.7535,4.8401,4.9342,5.051,5.1474,5.217,5.2523,5.281,5.3089,5.3131,5.3172,5.3203,5.3203,5.3041,5.2722,5.3217,5.3735,5.4287,5.475,5.5443,0.5975,0.482,0.4021,0.4514,0.5023,0.5092,0.397,0.307,0.0,0.0,-0.0847,-0.1523,-0.0915,0.0,0.0,0.0,0.0,0.0,0.0,0.0,0.0,0.0,0.0,0.0,0.0,0.0,0.0,0.0,0.0,0.0,3.104,3.349,3.5618,3.7204,3.8102,3.9499,4.1449,4.1459,4.2076,4.3248,4.3266,4.3658,4.4406,4.4727,4.5261,4.588,4.588,0.0,0.0,4.588,4.6194,4.6594,4.6594,4.7033,4.7709,4.8547,4.9623,5.0811,5.1643,5.2626,5.3501,5.3501,5.2994,5.2404,5.2537,5.2046,5.1319,5.0727,5.0338,4.9965,4.939,4.9365,4.9649,5.0272,5.1296,5.2298,5.2779,5.2977,5.3063,5.3185,5.3185,5.3185,5.3185,5.1885,5.0527,4.974,4.8291,4.726,4.7112,4.7294,4.7514,4.7698,4.8438,4.9362,5.049,5.1493,5.23,5.2826,5.3187,5.3472,5.3731,5.3741,5.3741,5.3741,5.3751,5.3686,5.357,5.3889,5.4347,5.4907,5.5152,5.565,0.6514,0.5248,0.429,0.4889,0.5346,0.5316,0.401,0.0,0.0,0.0099,-0.1075,-0.1599,-0.0926,0.0,0.0,0.0,0.0,0.0,0.0,0.0,0.0,0.0,0.0,0.0,0.0,0.0,0.0,0.0,0.0,0.0,0.0,3.5581,3.6985,3.8056,3.922,4.0227,4.1043,4.181,4.2421,4.2883,4.3671,4.4268,4.4684,4.5201,4.5595,4.588,0.0,0.0,0.0,4.588,4.6194,4.6594,4.6594,4.7033,4.7666,4.837,4.9519,5.0811,5.1512,5.2501,5.3501,5.3501,5.345,5.3365,5.3399,5.2841,5.2181,5.2114,5.1133,5.0067,4.9999,4.9739,4.982,5.1166,5.1939,5.2518,5.3039,5.3164,5.3185,5.3185,5.3185,5.3185,5.3185,5.1885,5.0567,4.9801,4.8329,4.7075,4.6457,4.7084,4.7878,4.8688,4.9467,5.0635,5.2306,5.2944,5.3679,5.469,5.5014,5.5262,5.5472,5.5472,5.5472,5.5472,5.5525,5.519,5.4468,5.5404,5.5533,5.4927,5.5773,5.6214,0.7252,0.6159,0.5251,0.5378,0.5467,0.5123,0.3675,0.0,0.1264,-0.0073,-0.1199,-0.1621,-0.0617,0.0325,0.0,0.0,0.0,0.0,0.0,0.0,0.0,0.0,0.0,0.0,0.0,0.0,0.0,0.0,0.0,0.0,0.0,3.7031,3.8166,3.939,4.0201,4.093,4.1633,4.199,4.2624,4.3516,4.392,4.4569,4.5429,4.564,4.579,4.588,0.0,0.0,0.0,4.588,4.6194,4.6594,4.6594,4.7033,4.7709,4.8506,4.9583,5.0811,5.1606,5.2607,5.3501,5.3501,5.3501,5.3501,5.3501,5.3281,5.2926,5.2435,5.1877,5.1249,5.0481,5.0287,5.054,5.1601,5.2179,5.2654,5.3103,5.3185,5.3185,5.3185,5.3185,5.3185,5.3185,5.2373,5.1444,5.0711,4.9786,4.8905,4.8201,4.8436,4.9008,4.9828,5.0564,5.1516,5.2832,5.3723,5.4509,5.514,5.5364,5.5527,5.5684,5.5703,5.5724,5.5756,5.5776,5.5673,5.5441,5.5885,5.5967,5.5702,5.6103,5.6291,0.7874,0.6993,0.616,0.5797,0.5414,0.4757,0.0,0.0,0.051,-0.0475,-0.1418,-0.1634,-0.0268,0.0952,0.2373,0.0,0.0,0.0,0.0,0.0,0.0,0.0,0.0,0.0,0.0,0.0,0.0,0.0,0.0,0.0,0.0,3.8056,3.9064,4.0332,4.0859,4.1409,4.2092,4.2092,4.2629,4.3689,4.3689,4.4269,4.5329,4.5329,4.5329,4.5329,0.0,0.0,0.0,4.5518,4.5902,4.6314,4.6521,4.7033,4.7709,4.8506,4.9583,5.0735,5.1606,5.2555,5.3433,5.3467,5.3501,5.3501,5.3501,5.3501,5.3382,5.2807,5.2569,5.2206,5.1005,5.0979,5.1397,5.1993,5.2408,5.2743,5.3103,5.3185,5.3185,5.3185,5.3185,5.3206,5.323,5.2734,5.2101,5.1417,5.0827,5.0145,4.9217,4.9333,4.974,5.0289,5.1052,5.1973,5.3147,5.4273,5.5037,5.5339,5.5468,5.5573,5.5703,5.5724,5.5756,5.5797,5.5846,5.5905,5.5999,5.6084,5.6149,5.6199,5.6278,5.6298,0.8255,0.7666,0.6912,0.6082,0.5255,0.4156,0.0,0.0872,-0.0393,-0.1139,-0.1772,-0.1657,0.0067,0.1602,0.3184,0.4992,0.0,0.0,0.0,0.0,0.0,0.0,0.0,0.0,0.0,0.0,0.0,0.0,0.0,0.0,0.0,3.8662,3.9664,4.0645,4.1142,4.162,4.2092,4.2092,4.2397,4.3007,4.3007,4.3355,4.4008,4.4008,4.4008,0.0,0.0,0.0,0.0,4.4647,4.5201,4.5666,4.6329,4.7033,4.7666,4.837,4.9358,5.0528,5.1385,5.2378,5.323,5.3433,5.3501,5.3501,5.3501,5.3501,5.3501,5.3501,5.3207,5.2669,5.1656,5.1846,5.2305,5.2383,5.2608,5.2868,5.3143,5.3185,5.3185,5.3185,5.3185,5.3209,5.3297,5.2799,5.2215,5.1677,5.1067,5.0187,4.8786,4.9305,4.9803,4.9803,5.0721,5.1931,5.3461,5.4585,5.5275,5.5492,5.5562,5.5629,5.5703,5.5766,5.5797,5.5797,5.5924,5.599,5.5999,5.6137,5.6199,5.6199,5.6278,5.6291,0.8191,0.7926,0.7539,0.6452,0.5702,0.4756,0.2957,0.1323,-0.0024,-0.086,-0.1658,-0.1657,0.0134,0.1711,0.3359,0.5257,0.7104,0.0,0.0,0.0,0.0,0.0,0.0,0.0,0.0,0.0,0.0,0.0,0.0,0.0,0.0,3.885,3.9851,4.1128,4.1465,4.1758,4.2092,4.2092,4.2397,4.2992,4.2992,4.334,4.3993,4.3993,0.0,0.0,0.0,0.0,0.0,4.4197,4.4806,4.5607,4.5813,4.653,4.7467,4.816,4.9157,5.0281,5.1048,5.2112,5.3213,5.3264,5.3382,5.3501,5.3501,5.3501,5.3501,5.3501,5.3273,5.3063,5.3282,5.2976,5.2784,5.337,5.3207,5.2977,5.3164,5.3185,5.3185,5.3185,5.3185,5.3209,5.3297,5.3379,5.3255,5.2778,5.2254,5.1621,5.0761,5.0347,5.0144,5.0144,5.0961,5.2157,5.3746,5.4307,5.4886,5.558,5.5671,5.5703,5.5766,5.5787,5.5846,5.5933,5.5981,5.5989,5.6005,5.6133,5.6228,5.6278,5.6285,5.6614,0.8346,0.8173,0.7802,0.6725,0.5969,0.504,0.3279,0.1683,0.0343,-0.0561,-0.148,-0.1581,0.0244,0.1863,0.3529,0.5437,0.0,0.0,0.0,0.0,0.0,0.0,0.0,0.0,0.0,0.0,0.0,0.0,0.0,0.0,0.0,0.0,4.0126,4.1354,4.1507,4.1773,4.2092,4.2092,4.2281,4.2658,4.2658,4.2876,4.3282,4.3282,0.0,0.0,0.0,0.0,0.0,4.3785,4.4361,4.5154,4.5658,4.6418,4.7307,4.832,4.9309,5.0252,5.1065,5.204,5.3007,5.3144,5.3348,5.3501,5.3501,5.3501,5.3501,5.3551,5.3639,5.3839,5.4307,5.4171,5.3954,5.4114,5.3826,5.3469,5.3259,5.3185,5.3185,5.3185,5.3185,5.3248,5.3359,5.3699,5.3789,5.3365,5.3186,5.2768,5.1832,5.1242,5.0782,5.0476,5.093,5.1919,5.356,5.4085,5.4729,5.5645,5.5703,5.5735,5.5787,5.5826,5.5895,5.599,5.5989,5.6005,5.6037,5.6145,5.6238,5.6311,5.6641,5.7087,0.0,0.8391,0.7806,0.6969,0.6183,0.5175,0.3512,0.2064,0.0,-0.0155,-0.1141,-0.1274,0.0552,0.2184,0.3851,0.5695,0.0,0.0,0.0,0.0,0.0,0.0,0.0,0.0,0.0,0.0,0.0,0.0,0.0,0.0,0.0,0.0,4.0487,4.1396,4.1438,4.1662,4.2092,4.2092,4.2092,4.2092,4.2092,4.2092,4.2092,4.2092,0.0,0.0,0.0,0.0,0.0,4.3448,4.3961,4.4477,4.5732,4.6595,4.7235,4.8736,4.9694,5.0393,5.1327,5.2092,5.2659,5.3076,5.3348,5.3467,5.3518,5.3501,5.3534,5.3651,5.4173,5.4735,5.4853,5.5355,5.5575,5.4759,5.4473,5.4197,5.3463,5.3243,5.3185,5.3185,5.3185,5.3269,5.3459,5.3776,5.3893,5.3637,5.387,5.3578,5.2162,5.1942,5.1587,5.0789,5.075,5.1433,5.3068,5.3881,5.4707,5.5645,5.5703,5.5735,5.5797,5.5875,5.5924,5.5999,5.6005,5.6037,5.6106,5.6163,5.6278,5.6408,5.723,5.7676,0.7855,0.0,0.7979,0.7329,0.6974,0.6393,0.0,0.3598,0.2441,0.1391,0.0503,0.0464,0.2275,0.3812,0.5455,0.0,0.0,0.0,0.0,0.0,0.0,0.0,0.0,0.0,0.0,0.0,0.0,0.0,0.0,0.0,0.0,0.0,4.0859,4.1619,4.1619,4.1758,4.2092,4.2092,4.2092,4.2092,4.2092,4.2092,4.2092,4.2242,0.0,0.0,0.0,0.0,4.363,4.3796,4.4301,4.5023,4.5486,4.661,4.7991,4.8663,4.976,5.0951,5.1327,5.1967,5.2659,5.3076,5.323,5.3298,5.3467,5.3501,5.3534,5.3651,5.4173,5.4857,5.5536,5.5749,5.5871,5.6168,5.5299,5.4344,5.4161,5.3628,5.3185,5.3185,5.3185,5.3269,5.3459,5.3737,5.4048,5.4451,5.4172,5.3689,5.2988,5.2308,5.1587,5.0789,5.1241,5.2049,5.3106,5.3374,5.4115,5.5607,5.5703,5.5745,5.5875,5.5895,5.5923,5.6005,5.6057,5.6122,5.617,5.6192,5.6588,5.7308,5.7502,5.8318,0.748,0.7712,0.7805,0.7652,0.7477,0.705,0.5942,0.4798,0.3762,0.2933,0.0,0.0,0.0,0.0,0.0,0.0,0.0,0.0,0.0,0.0,0.0,0.0,0.0,0.0,0.0,0.0,0.0,0.0,0.0,0.0,0.0,0.0,4.1367,4.1856,4.1883,4.1939,4.2092,4.2092,4.2133,4.2242,4.2242,4.2284,4.2392,4.2688,0.0,0.0,0.0,0.0,4.4212,4.4212,4.4542,4.511,4.5611,4.6531,4.7705,4.8834,4.9882,5.083,5.1467,5.2109,5.2659,5.2972,5.311,5.323,5.3433,5.3551,5.3634,5.3783,5.4301,5.5013,5.5907,5.6312,5.6489,5.674,5.6143,5.5299,5.4564,5.4069,5.3647,5.328,5.3185,5.323,5.338,5.368,5.4088,5.4632,5.46,5.4174,5.3315,5.2799,5.2049,5.0827,5.1414,5.2404,5.3683,5.3799,5.4337,5.5607,5.5735,5.5776,5.5895,5.5924,5.6173,5.6626,5.6687,5.6936,5.7383,5.7377,5.765,5.8156,5.8564,5.9277,0.7346,0.7478,0.7589,0.7965,0.7842,0.7444,0.679,0.0,0.0,0.0,0.0,0.0,0.0,0.0,0.0,0.0,0.0,0.0,0.0,0.0,0.0,0.0,0.0,0.0,0.0,0.0,0.0,0.0,0.0,0.0,0.0,0.0,0.0,4.1947,4.1947,4.199,4.2092,4.2133,4.2242,4.2514,4.25,4.2662,4.289,4.326,4.356,0.0,0.0,0.0,4.4761,4.4761,4.4874,4.5123,4.5925,4.6506,4.7204,4.8939,4.9961,5.0602,5.175,5.2338,5.2605,5.2834,5.3007,5.3195,5.3433,5.3568,5.375,5.4045,5.4537,5.5207,5.6111,5.6793,5.7175,5.702,5.6895,5.6436,5.506,5.4675,5.4381,5.3702,5.3573,5.3576,5.3684,5.4011,5.437,5.4723,5.5109,5.4887,5.3554,5.3269,5.2606,5.1048,5.1606,5.275,5.4357,5.4733,5.5186,5.5868,5.5843,5.5894,5.6088,5.629,5.6768,5.7586,5.7598,5.7986,5.8806,5.8803,5.8875,5.903,5.9768,6.0197,0.7507,0.7819,0.8045,0.8278,0.8211,0.7959,0.7471,0.6946,0.0,0.0,0.0,0.0,0.0,0.0,0.0,0.0,0.0,0.0,0.0,0.0,0.0,0.0,0.0,0.0,0.0,0.0,0.0,0.0,0.0,0.0,0.0,0.0,0.0,4.1236,4.125,4.1526,4.2092,4.2284,4.2541,4.2915,4.3101,4.3379,4.3732,4.395,4.4243,0.0,0.0,4.5247,4.5625,4.5625,4.5625,4.5698,4.614,4.6933,4.7887,4.847,4.9721,5.1258,5.2089,5.239,5.248,5.2816,5.2903,5.3024,5.3399,5.3568,5.3832,5.4428,5.497,5.5502,5.6266,5.6923,5.7443,5.7739,5.7299,5.673,5.6492,5.5904,5.5372,5.5244,5.5225,5.5269,5.5395,5.5673,5.5771,5.5553,5.586,5.5668,5.4372,5.3614,5.2818,5.1808,5.2491,5.3414,5.4414,5.5852,5.6739,5.6883,5.621,5.6165,5.6975,5.7775,5.8291,5.8498,5.8506,5.8602,5.881,5.879,5.9186,5.9904,6.004,6.0506,0.7464,0.768,0.784,0.8331,0.8373,0.8252,0.8034,0.7674,0.7452,0.0,0.0,0.0,0.0,0.0,0.0,0.0,0.0,0.0,0.0,0.0,0.0,0.0,0.0,0.0,0.0,0.0,0.0,0.0,0.0,0.0,0.0,0.0,0.0,0.0,4.0902,4.125,4.1555,4.2216,4.2754,4.3165,4.3379,4.3732,4.4289,4.4594,4.4843,4.503,0.0,4.5609,4.5807,4.5807,4.5807,4.5844,4.6171,4.6702,4.7389,4.8744,5.006,5.1258,5.2125,5.2409,5.2445,5.2781,5.2903,5.2989,5.3399,5.3685,5.3996,5.4631,5.5104,5.5618,5.6492,5.7051,5.7504,5.7886,5.7721,5.7336,5.6895,5.651,5.6124,5.5666,5.5614,5.5614,5.5677,5.5939,5.6029,5.5714,5.5927,5.5717,5.4541,5.3678,5.2834,5.2,5.2673,5.3732,5.5091,5.6373,5.732,5.7814,5.7033,5.6975,5.7919,5.8363,5.885,5.9378,5.9405,5.9677,6.0189,6.0189,6.0409,6.0798,6.0798,6.1031,0.7237,0.7395,0.7533,0.8178,0.8363,0.8438,0.858,0.8525,0.8659,0.0,0.0,0.0,0.0,0.0,0.0,0.0,0.0,0.0,0.0,0.0,0.0,0.0,0.0,0.0,0.0,0.0,0.0,0.0,0.0,0.0,0.0,0.0,0.0,0.0,4.0459,4.0906,4.1252,4.2202,4.2952,4.3442,4.3693,4.4212,4.4889,4.521,4.5336,4.5373,4.5662,4.5807,4.5807,4.5807,4.5807,4.5844,4.6136,4.6439,4.695,4.904,5.0206,5.0921,5.2023,5.2409,5.2445,5.2781,5.2903,5.2989,5.3399,5.3751,5.4126,5.483,5.5254,5.5733,5.6722,5.722,5.7553,5.7927,5.7997,5.7831,5.7207,5.7079,5.6895,5.6271,5.6183,5.6206,5.6206,5.6533,5.6645,5.6264,5.6465,5.635,5.5381,5.4348,5.34,5.2596,5.3106,5.4291,5.6231,5.7215,5.8133,5.9051,5.8307,5.8142,5.8874,5.9087,5.9547,6.0297,6.0297,6.0666,6.1393,6.1393,6.1393,6.1393,6.1393,6.1393,0.6761,0.707,0.7396,0.775,0.8119,0.8543,0.9108,0.9843,0.0,1.12,0.0,0.0,0.0,0.0,0.0,0.0,0.0,0.0,0.0,0.0,0.0,0.0,0.0,0.0,0.0,0.0,0.0,0.0,0.0,0.0,0.0,0.0,0.0,0.0,0.0,4.0275,4.1636,4.2279,4.302,4.3849,4.4289,4.4927,4.5698,4.5735,4.5771,4.5771,4.5771,4.5807,4.5807,4.5807,4.5807,4.5807,4.6024,4.6436,4.7089,4.8954,4.9772,5.0226,5.1858,5.2409,5.2445,5.2781,5.2903,5.2989,5.3399,5.3751,5.419,5.5104,5.5624,5.607,5.6941,5.7363,5.7649,5.7927,5.7997,5.7978,5.7923,5.7905,5.7886,5.7831,5.7923,5.8013,5.8013,5.8431,5.8595,5.801,5.8347,5.8481,5.7914,5.6472,5.5203,5.4395,5.4376,5.5448,5.7997,5.908,5.9978,6.0857,6.0151,5.9745,5.9803,6.0518,6.1009,6.12,6.12,6.126,6.1393,6.1393,6.1393,6.1393,6.1393,6.1393,0.6713,0.7054,0.7472,0.8239,0.911,0.0,0.0,1.1382,1.2709,1.422,1.5367,0.0,0.0,0.0,0.0,0.0,0.0,0.0,0.0,0.0,0.0,0.0,0.0,0.0,0.0,0.0,0.0,0.0,0.0,0.0,0.0,0.0,0.0,0.0,0.0,4.0367,4.1213,4.2387,4.3274,4.385,4.462,4.5262,4.5807,4.5807,4.5807,4.5807,4.5807,4.5807,4.5807,4.5807,4.5807,4.5807,4.6024,4.6349,4.6851,4.8134,4.8996,4.973,5.1067,5.185,5.2266,5.2605,5.2799,5.2938,5.323,5.3617,5.419,5.5099,5.5607,5.6154,5.7188,5.751,5.7673,5.795,5.7997,5.7997,5.7997,5.7997,5.7997,5.7997,5.8106,5.8246,5.8431,5.8745,5.8859,5.8469,5.8646,5.8677,5.8232,5.6671,5.5352,5.4587,5.5015,5.6193,5.8219,5.9746,6.0751,6.1079,6.0344,6.0112,6.0634,6.0972,6.121,6.1297,6.1302,6.1322,6.1393,6.1393,6.1393,6.1393,6.1393,6.1393,0.6713,0.6975,0.743,0.8655,1.0048,0.0,1.2355,1.348,1.4844,1.6747,1.8448,0.0,0.0,0.0,0.0,0.0,0.0,0.0,0.0,0.0,0.0,0.0,0.0,0.0,0.0,0.0,0.0,0.0,0.0,0.0,0.0,0.0,0.0,0.0,0.0,4.0471,4.1081,4.2251,4.322,4.3925,4.4684,4.5316,4.5807,4.5807,4.5807,4.5807,4.5807,4.5807,4.5807,4.5807,4.5807,4.5807,4.5952,4.6187,4.6555,4.7474,4.8252,4.9056,5.0181,5.1078,5.1812,5.2134,5.2511,5.2834,5.311,5.3517,5.4108,5.5052,5.5607,5.6154,5.7264,5.7577,5.7649,5.7862,5.7973,5.7997,5.7997,5.7997,5.7997,5.7997,5.8133,5.8356,5.8624,5.8927,5.9101,5.9074,5.9215,5.9248,5.9017,5.749,5.6055,5.5012,5.5489,5.6483,5.7902,5.9427,6.0306,6.0306,6.0053,6.0275,6.1098,6.1192,6.1236,6.1302,6.1306,6.1337,6.1393,6.1393,6.1393,6.1393,6.1393,6.1393,0.6729,0.6816,0.7218,0.8909,0.0,0.0,1.5299,1.6189,1.6937,1.8439,0.0,2.2889,0.0,0.0,0.0,0.0,0.0,0.0,0.0,0.0,0.0,0.0,0.0,0.0,0.0,0.0,0.0,0.0,0.0,0.0,0.0,0.0,0.0,0.0,0.0,0.0,4.1489,4.1911,4.2771,4.4076,4.4488,4.5096,4.5807,4.5807,4.5807,4.5807,4.5807,4.5807,4.5807,4.5807,4.5807,4.5807,4.5807,4.5916,4.6191,4.7081,4.7661,4.8129,4.9232,5.0199,5.1055,5.1386,5.1973,5.2659,5.3076,5.345,5.3946,5.5087,5.5653,5.6126,5.7138,5.7504,5.7625,5.7768,5.7904,5.7997,5.7997,5.7997,5.7997,5.7997,5.8219,5.8483,5.8766,5.914,5.9558,6.0038,6.0342,6.0552,6.0673,5.9285,5.7649,5.5999,5.5866,5.6242,5.71,5.8044,5.8593,5.8593,5.9403,6.028,6.1143,6.1201,6.1234,6.1302,6.1302,6.1337,6.1393,6.1393,6.1393,6.1393,6.1393,6.1393,0.7781,0.799,0.0,1.0793,0.0,0.0,0.0,1.7841,0.0,0.0,2.3649,0.0,0.0,0.0,0.0,0.0,0.0,0.0,0.0,0.0,0.0,0.0,0.0,0.0,0.0,0.0,0.0,0.0,0.0,0.0,0.0,0.0,0.0,0.0,0.0,0.0,4.1351,4.214,4.2714,4.3123,4.4189,4.5096,4.5807,4.5807,4.5807,4.5807,4.5807,4.5807,4.5807,4.5807,4.5807,4.5807,4.5807,4.5916,4.6128,4.6391,4.7025,4.7868,4.8467,4.9286,5.0169,5.1063,5.1675,5.2183,5.2942,5.3717,5.4445,5.5296,5.5848,5.6357,5.7087,5.7363,5.7528,5.7745,5.7815,5.7904,5.7973,5.7997,5.7997,5.7997,5.8219,5.8551,5.9006,5.9307,5.9692,6.0351,6.0506,6.0387,5.9907,5.8457,5.7268,5.6759,5.5721,5.541,5.6289,5.6604,5.7046,5.7719,5.8568,5.9428,6.0261,6.0921,6.1271,6.1302,6.1344,6.1381,6.1402,6.1402,6.1409,6.1473,6.1428,6.1402,0.8813,0.9213,0.0,1.2432,1.48,1.7129,1.9377,0.0,0.0,0.0,0.0,0.0,0.0,0.0,0.0,0.0,0.0,0.0,0.0,0.0,0.0,0.0,0.0,0.0,0.0,0.0,0.0,0.0,0.0,0.0,0.0,0.0,0.0,0.0,0.0,0.0,4.129,4.1864,4.2327,4.2695,4.3516,4.4417,4.5365,4.5365,4.5365,4.5365,4.5365,4.5539,4.5807,4.5807,4.5807,4.5807,4.5807,4.588,4.6004,4.6004,4.6458,4.7203,4.761,4.836,4.9309,5.015,5.099,5.1831,5.2623,5.3561,5.4554,5.5473,5.5989,5.6447,5.7036,5.7264,5.7363,5.7601,5.7721,5.7815,5.7886,5.7973,5.7997,5.7997,5.8219,5.8572,5.9103,5.9361,5.9758,6.0493,6.0642,6.039,5.9596,5.8671,5.7848,5.7214,5.6261,5.5785,5.5987,5.5705,5.5913,5.6825,5.7702,5.8571,5.942,6.0651,6.131,6.1344,6.1386,6.1394,6.1396,6.1428,6.1466,6.1503,6.1466,6.1603,0.9826,0.0,0.0,1.3831,1.6596,0.0,0.0,0.0,0.0,0.0,0.0,0.0,0.0,0.0,0.0,0.0,0.0,0.0,0.0,0.0,0.0,0.0,0.0,0.0,0.0,0.0,0.0,0.0,0.0,0.0,0.0,0.0,0.0,0.0,0.0,0.0,4.1256,4.1256,4.1686,0.0,4.2613,4.3308,4.4492,4.4654,4.4749,4.4812,4.4733,4.5128,4.5807,4.5807,4.5807,4.5807,4.5807,4.5807,4.5807,4.5807,4.6008,4.6333,4.6754,4.7556,4.8488,4.8943,5.0124,5.1512,5.2167,5.3215,5.4433,5.5589,5.6118,5.6474,5.7061,5.7188,5.7213,5.7338,5.7577,5.7768,5.7792,5.7904,5.7997,5.7997,5.8219,5.8572,5.9103,5.9361,5.9758,6.0493,6.0717,6.0512,5.9723,5.9606,5.9025,5.7476,5.7168,5.6761,5.5965,5.5064,5.4973,5.5924,5.6726,5.7656,5.8741,6.0417,6.1344,6.1393,6.1393,6.1394,6.1402,6.1466,6.1503,6.1509,6.1503,6.1933,1.0743,1.1383,0.0,0.0,0.0,0.0,0.0,0.0,0.0,0.0,0.0,0.0,0.0,0.0,0.0,0.0,0.0,0.0,0.0,0.0,0.0,0.0,0.0,0.0,0.0,0.0,0.0,0.0,0.0,0.0,0.0,0.0,0.0,0.0,0.0,4.0662,4.0901,4.1052,4.1247,0.0,4.2155,4.2598,4.2962,4.4157,4.5033,4.5539,4.4954,4.5128,4.5807,4.5807,4.5807,4.5807,4.5807,4.5807,4.5807,4.5807,4.6008,4.6333,4.6598,4.7127,4.7865,4.8811,4.9692,5.0681,5.2236,5.3425,5.4548,5.5706,5.6357,5.6776,5.7112,5.7188,5.7206,5.7257,5.7381,5.7534,5.7745,5.7815,5.7862,5.7973,5.8219,5.8572,5.9103,5.9361,5.9758,6.0493,6.0717,6.0723,6.0531,6.0025,5.9279,5.8248,5.7004,5.5926,5.5122,5.3652,5.346,5.506,5.5327,5.6449,5.8706,6.0454,6.1386,6.1393,6.1393,6.1428,6.1472,6.1497,6.1526,6.1568,6.1526,6.1962,0.0,0.0,0.0,1.7356,0.0,0.0,0.0,0.0,0.0,0.0,0.0,0.0,0.0,0.0,0.0,0.0,0.0,0.0,0.0,0.0,0.0,0.0,0.0,0.0,0.0,0.0,0.0,0.0,0.0,0.0,0.0,0.0,0.0,0.0,4.0366,4.0539,4.0799,4.0916,4.1,4.1117,4.1578,4.199,4.2438,4.3318,4.3943,4.4306,4.4259,4.4638,4.5317,4.5665,4.5807,4.5807,4.5807,4.5807,4.5807,4.5807,4.5988,4.6207,4.6388,4.6842,4.7485,4.8382,4.9319,5.0362,5.1689,5.3115,5.4499,5.5423,5.6224,5.6873,5.7112,5.7188,5.7188,5.7188,5.7289,5.7455,5.7673,5.7745,5.7839,5.7973,5.8219,5.8572,5.9103,5.9656,6.0169,6.0533,6.0717,6.08,6.08,6.0517,5.9984,5.9116,5.7959,5.6902,5.607,5.4426,5.4041,5.5423,5.552,5.6507,5.8713,6.0079,6.0973,6.1393,6.1393,6.1428,6.144,6.1478,6.152,6.1567,6.1904,6.256,1.2084,0.0,1.5359,1.9319,0.0,0.0,0.0,0.0,0.0,0.0,0.0,0.0,0.0,0.0,0.0,0.0,0.0,0.0,0.0,0.0,0.0,0.0,0.0,0.0,0.0,0.0,0.0,0.0,0.0,0.0,0.0,0.0,3.9718,4.0226,4.0242,4.0401,4.073,4.0765,4.0848,4.1,4.1034,4.1482,4.2218,4.2388,4.2597,4.29,4.3342,4.399,4.4764,4.5365,4.5697,4.5807,4.5807,4.5807,4.5844,4.588,4.6008,4.6187,4.6317,4.6738,4.7336,4.7983,4.9011,5.0181,5.1225,5.2799,5.4356,5.515,5.6054,5.6821,5.7105,5.7181,5.7163,5.7188,5.7264,5.7406,5.7577,5.7697,5.7815,5.7973,5.829,5.8681,5.9178,5.9996,6.0604,6.0604,6.0717,6.08,6.08,6.0922,6.0659,5.9791,5.9167,5.841,5.7396,5.5896,5.5357,5.6153,5.6063,5.6759,5.8518,5.9419,6.0293,6.116,6.1315,6.1394,6.1396,6.146,6.1575,6.1737,6.2392,6.3268,0.0,0.0,1.6967,0.0,0.0,0.0,0.0,0.0,0.0,0.0,0.0,0.0,0.0,0.0,0.0,0.0,0.0,0.0,0.0,0.0,0.0,0.0,0.0,0.0,0.0,0.0,0.0,0.0,0.0,0.0,0.0,3.8517,3.9008,4.0016,4.0046,4.0207,4.0524,4.0524,4.0558,4.0558,4.0765,4.1049,4.1431,4.1464,4.2241,4.3529,4.3058,4.3548,4.4717,4.4828,4.5238,4.5807,4.5807,4.5932,4.606,4.6191,4.6337,4.6528,4.6547,4.6961,4.7521,4.7982,4.8733,4.9872,5.1899,5.3081,5.4014,5.5618,5.6339,5.6707,5.6951,5.7028,5.7054,5.7163,5.7213,5.7307,5.7553,5.7607,5.7697,5.795,5.8584,5.9178,5.9415,6.0091,6.0604,6.0604,6.0717,6.08,6.08,6.0922,6.0659,5.9791,5.9727,5.9068,5.7434,5.639,5.593,5.6172,5.5482,5.5874,5.769,5.8545,5.938,6.0254,6.1031,6.1394,6.1396,6.1402,6.1829,6.2632,6.2679,6.3605,1.2402,1.4576,1.6592,0.0,0.0,0.0,0.0,0.0,0.0,0.0,0.0,0.0,0.0,0.0,0.0,0.0,0.0,0.0,0.0,0.0,0.0,0.0,0.0,0.0,0.0,0.0,0.0,0.0,0.0,0.0,3.7148,3.7521,3.8023,3.8685,3.9202,3.9592,3.9936,4.0305,4.0489,4.0489,4.0696,4.0901,4.1021,4.1223,4.1769,4.2537,4.2647,4.3248,4.4161,4.4559,4.5144,4.5807,4.5807,4.5972,4.6227,4.6496,4.6705,4.6878,4.674,4.71,4.7671,4.7998,4.8984,5.0339,5.1767,5.312,5.4348,5.516,5.5934,5.6546,5.6821,5.6951,5.7028,5.7181,5.7188,5.7264,5.7534,5.7601,5.7721,5.8133,5.8749,5.927,5.9469,6.0106,6.0604,6.0604,6.0717,6.08,6.08,6.0922,6.0852,6.0466,6.0104,5.959,5.8816,5.7965,5.7506,5.7587,5.678,5.7109,5.8933,5.8875,5.9438,6.0798,6.1199,6.1407,6.1401,6.1887,6.2348,6.2769,6.3682,6.4552,0.0,0.0,0.0,0.0,0.0,0.0,0.0,0.0,0.0,0.0,0.0,0.0,0.0,0.0,0.0,0.0,0.0,0.0,0.0,0.0,0.0,0.0,0.0,0.0,0.0,0.0,0.0,0.0,0.0,0.0,3.6029,3.6571,3.7084,3.7541,3.8277,3.8933,3.9474,4.0151,4.0489,4.0489,4.0662,4.0765,4.0799,4.1055,4.129,4.1503,4.214,4.2916,4.3734,4.4243,4.4986,4.5807,4.5807,4.6028,4.6426,4.6793,4.7084,4.7236,4.7135,4.7404,4.7853,4.8127,4.9179,5.0588,5.1749,5.312,5.4395,5.4878,5.5662,5.6428,5.6662,5.6847,5.7003,5.7163,5.7188,5.7264,5.7534,5.7649,5.7839,5.8305,5.8828,5.927,5.9469,6.0106,6.0604,6.0604,6.0717,6.08,6.08,6.0922,6.0987,6.0987,6.051,6.0112,5.9919,5.93,5.8861,5.8711,5.8099,5.835,5.971,5.936,5.9749,6.105,6.1296,6.1393,6.1393,6.206,6.2468,6.2735,6.4212,6.5051,0.0,0.0,0.0,0.0,0.0,0.0,0.0,0.0,0.0,0.0,0.0,0.0,0.0,0.0,0.0,0.0,0.0,0.0,0.0,0.0,0.0,0.0,0.0,0.0,0.0,0.0,0.0,0.0,0.0,0.0,3.561,3.5854,3.6339,3.7124,3.7537,3.8341,3.9474,4.0151,4.0489,4.0489,4.0489,4.0627,4.0799,4.0833,4.095,4.1151,4.1503,4.2426,4.3687,4.3737,4.4559,4.5807,4.5807,4.6136,4.6652,4.7168,4.7488,4.7704,4.7803,4.7984,4.8211,4.8495,4.9104,5.0152,5.2201,5.3138,5.3777,5.523,5.5918,5.6263,5.6546,5.6689,5.6873,5.7156,5.7188,5.7264,5.7534,5.7792,5.8065,5.8349,5.8828,5.927,5.9469,6.0106,6.0604,6.0604,6.0717,6.08,6.08,6.0922,6.0987,6.0987,6.1012,6.0731,5.9957,5.9861,5.9519,5.875,5.8661,5.8699,5.8849,5.9613,6.0079,6.0176,6.0992,6.1393,6.1393,6.1451,6.19,6.273,6.3631,6.4545,0.0,0.0,0.0,0.0,0.0,0.0,0.0,0.0,0.0,0.0,0.0,0.0,0.0,0.0,0.0,0.0,0.0,0.0,0.0,0.0,0.0,0.0,0.0,0.0,0.0,0.0,0.0,0.0,0.0,0.0,3.5159,3.5207,3.5444,3.5867,3.6567,3.7525,3.8711,3.9041,3.9413,3.9844,3.9844,4.0108,4.0627,4.0882,4.095,4.0916,4.1256,4.2226,4.3516,4.35,4.4406,4.5807,4.5807,4.6207,4.6876,4.7489,4.7983,4.8354,4.8511,4.8685,4.8844,4.8807,4.9606,5.0769,5.1778,5.2949,5.4101,5.4664,5.5376,5.6077,5.6383,5.6635,5.6873,5.7156,5.7282,5.7338,5.7437,5.7673,5.7973,5.8327,5.8828,5.9252,5.9417,6.0019,6.0472,6.0472,6.0591,6.0692,6.0722,6.088,6.0987,6.0987,6.1051,6.0983,6.0692,6.0673,6.0565,6.0317,5.9827,5.9809,6.0386,6.0201,6.0351,6.0914,6.1237,6.1393,6.1393,6.1963,6.2385,6.273,6.4163,6.5043,1.1671,0.0,0.0,0.0,0.0,0.0,0.0,0.0,0.0,0.0,0.0,0.0,0.0,0.0,0.0,0.0,0.0,0.0,0.0,0.0,0.0,0.0,0.0,0.0,0.0,0.0,0.0,0.0,0.0,0.0,3.461,3.461,3.4587,3.4575,3.5397,3.6278,3.717,3.7856,3.84,3.8846,3.9259,3.9754,4.0288,4.0774,4.095,4.0916,4.1055,4.1881,4.3082,4.3301,4.4228,4.5568,4.5825,4.6404,4.7134,4.7836,4.837,4.8844,4.9026,4.9195,4.929,4.9148,4.9851,5.0899,5.1425,5.27,5.398,5.4226,5.5061,5.5975,5.63,5.668,5.6977,5.7156,5.7282,5.7356,5.7388,5.7625,5.7904,5.8264,5.8808,5.9234,5.9381,5.9893,6.0299,6.0328,6.0439,6.0546,6.0648,6.0858,6.0987,6.0987,6.1051,6.1099,6.1099,6.1099,6.1137,6.1201,6.0694,6.0677,6.1275,6.0781,6.0784,6.1393,6.1393,6.1393,6.1393,6.1983,6.2276,6.2342,6.4091,6.5244,0.0,0.0,0.0,0.0,0.0,0.0,0.0,0.0,0.0,0.0,0.0,0.0,0.0,0.0,0.0,0.0,0.0,0.0,0.0,0.0,0.0,0.0,0.0,0.0,0.0,0.0,0.0,0.0,0.0,3.4759,3.3918,3.395,3.3763,3.3297,3.4052,3.4632,3.4987,3.6596,3.743,3.7492,3.88,3.9563,3.984,4.0507,4.0901,4.1083,4.0916,4.1392,4.2422,4.3097,4.3999,4.5097,4.5962,4.6759,4.7505,4.8161,4.8671,4.9063,4.9398,4.9518,4.9518,4.9518,4.9842,5.0384,5.128,5.2333,5.3359,5.4068,5.5043,5.5975,5.6328,5.6794,5.7188,5.7188,5.7188,5.7257,5.7381,5.7601,5.7862,5.8152,5.8728,5.9234,5.9363,5.9796,6.0114,6.0188,6.0256,6.0368,6.0591,6.0843,6.0997,6.0997,6.1051,6.1099,6.1099,6.1099,6.1137,6.1182,6.1201,6.1225,6.1295,6.1302,6.1337,6.1393,6.1393,6.1393,6.14,6.1393,6.1434,6.1542,6.3289,6.508,1.2256,0.0,0.0,0.0,0.0,0.0,0.0,0.0,0.0,0.0,0.0,0.0,0.0,0.0,0.0,0.0,0.0,0.0,0.0,0.0,0.0,0.0,0.0,0.0,0.0,0.0,0.0,0.0,3.4007,3.387,3.363,3.3505,3.3354,3.3238,3.368,3.4046,3.4288,3.5076,3.5966,3.6925,3.7406,3.8431,3.9975,4.0294,4.0669,4.1102,4.1138,4.1333,4.1635,4.2222,4.3558,4.5275,4.5763,4.6679,4.782,4.8526,4.9026,4.9398,4.9742,4.9877,4.9877,4.9877,5.0092,5.0393,5.063,5.1896,5.3254,5.3464,5.4666,5.6014,5.6555,5.6951,5.7188,5.7188,5.7188,5.7213,5.7257,5.748,5.7768,5.8129,5.8728,5.9234,5.9308,5.9715,6.0057,6.0114,6.0184,6.0327,6.0635,6.0858,6.1008,6.0991,6.1061,6.1099,6.1099,6.1099,6.1099,6.1137,6.1164,6.1236,6.1294,6.1306,6.1337,6.1393,6.1393,6.1388,6.1402,6.1388,6.1434,6.1542,6.3331,6.5113,1.358,0.0,0.0,0.0,0.0,0.0,0.0,0.0,0.0,0.0,0.0,0.0,0.0,0.0,0.0,0.0,0.0,0.0,0.0,0.0,0.0,0.0,0.0,0.0,0.0,0.0,0.0,0.0,3.3499,3.341,3.3186,3.2736,3.2527,3.2587,3.2706,3.2943,3.3267,3.3948,3.4831,3.5961,3.6581,3.7732,3.9311,4.0003,4.0538,4.0896,4.118,4.1357,4.1454,4.1661,4.3045,4.5032,4.5746,4.6898,4.8226,4.8903,4.9316,4.9619,4.9906,5.0011,5.0011,5.0011,5.0178,5.0415,5.0415,5.1721,5.3201,5.3201,5.4592,5.6199,5.6689,5.7003,5.7188,5.7188,5.7188,5.7188,5.7188,5.7412,5.7697,5.8042,5.8708,5.9215,5.9327,5.9715,6.0026,6.0129,6.0198,6.0354,6.066,6.0872,6.1,6.1002,6.107,6.1099,6.1099,6.1099,6.1099,6.1099,6.1146,6.121,6.1297,6.1302,6.1322,6.1393,6.1393,6.1401,6.1434,6.1402,6.1823,6.2654,6.3717,6.513,1.5321,1.5744,0.0,0.0,0.0,0.0,0.0,1.8746,0.0,0.0,0.0,0.0,0.0,0.0,0.0,0.0,0.0,0.0,0.0,0.0,0.0,0.0,0.0,0.0,0.0,0.0,3.3231,3.3305,3.3336,3.3141,3.2643,3.2,3.1685,3.1739,3.1685,3.1856,3.2219,3.3203,3.4125,3.4953,3.6249,3.734,3.8355,3.9628,4.0354,4.064,4.114,4.1423,4.1588,4.1423,4.2595,4.4655,4.5816,4.7189,4.8642,4.9307,4.9637,4.9755,4.9935,5.0011,5.0011,5.0011,5.0178,5.0415,5.0415,5.1721,5.3236,5.344,5.4902,5.6465,5.6715,5.7003,5.7188,5.7188,5.7188,5.7188,5.7188,5.7412,5.7673,5.7927,5.8626,5.9215,5.9344,5.9698,6.001,6.0159,6.0242,6.0382,6.0673,6.0886,6.1002,6.1012,6.1051,6.1099,6.1099,6.1099,6.1099,6.1099,6.1099,6.1164,6.1297,6.1306,6.1326,6.1393,6.1407,6.1441,6.1509,6.1446,6.2374,6.4201,6.4205,6.513,1.5598,1.5752,1.5833,0.0,0.0,0.0,0.0,1.7866,0.0,0.0,0.0,0.0,0.0,0.0,0.0,0.0,0.0,0.0,0.0,0.0,0.0,0.0,0.0,0.0,0.0,0.0,3.1545,3.2102,3.2319,3.2372,3.2165,3.25,3.2485,3.194,3.244,3.2599,3.2342,3.337,3.4295,3.514,3.6043,3.7202,3.8478,3.9282,4.0008,4.064,4.1271,4.1555,4.1588,4.1555,4.281,4.4821,4.558,4.7137,4.897,4.9671,4.9906,4.9935,4.9982,5.0011,5.0011,5.0011,5.0178,5.0415,5.0415,5.1721,5.3493,5.4981,5.5875,5.6465,5.6715,5.7003,5.7188,5.7188,5.7188,5.7188,5.7188,5.7412,5.7649,5.7792,5.8458,5.9026,5.9215,5.9473,5.9767,6.001,6.0084,6.0289,6.0722,6.0914,6.103,6.107,6.1089,6.1099,6.1099,6.1099,6.1099,6.1099,6.1155,6.1219,6.1297,6.1291,6.1329,6.1393,6.1454,6.1484,6.1504,6.1539,6.2474,6.4205,6.4203,6.5125,1.6686,1.6918,1.7008,1.708,0.0,0.0,0.0,0.0,0.0,0.0,0.0,0.0,0.0,0.0,0.0,0.0,0.0,0.0,0.0,0.0,0.0,0.0,0.0,0.0,0.0,0.0,3.051,3.1004,3.129,3.1551,3.1796,3.2356,3.2542,3.2206,3.2848,3.3021,3.2648,3.3481,3.4379,3.5326,3.6032,3.6945,3.8033,3.9044,3.9708,4.0103,4.1146,4.1588,4.1588,4.1588,4.2652,4.4367,4.5379,4.6879,4.8585,4.9622,5.0011,5.0011,5.0011,5.0011,4.9993,5.008,5.0235,5.0397,5.0481,5.1759,5.3591,5.5391,5.6162,5.6465,5.6715,5.7003,5.7188,5.7188,5.7188,5.7188,5.7188,5.7412,5.7649,5.7768,5.8238,5.8706,5.8965,5.9215,5.9488,5.9758,5.9965,6.0232,6.061,6.0853,6.1001,6.1051,6.108,6.1099,6.1099,6.1099,6.1108,6.1146,6.1173,6.1236,6.131,6.1287,6.1337,6.1393,6.1467,6.1507,6.149,6.1567,6.2286,6.3602,6.3608,6.4545,0.0,0.0,0.0,0.0,0.0,1.8265,0.0,0.0,0.0,0.0,0.0,0.0,0.0,0.0,0.0,0.0,0.0,0.0,0.0,0.0,0.0,0.0,0.0,0.0,0.0,0.0,2.9477,2.9966,3.021,3.0622,3.1244,3.2025,3.2419,3.2268,3.3011,3.3336,3.31,3.381,3.4638,3.56,3.6295,3.6927,3.7587,3.8979,3.9628,3.9738,4.1166,4.1802,4.1802,4.1802,4.2526,4.3779,4.5063,4.6528,4.8043,4.9296,4.9873,5.0011,5.0011,5.004,5.0051,5.016,5.0313,5.0506,5.0969,5.2071,5.3591,5.5391,5.6162,5.6465,5.6715,5.7003,5.7188,5.7188,5.7188,5.7188,5.7188,5.7412,5.7625,5.7745,5.8006,5.8363,5.8725,5.8986,5.9252,5.957,5.9877,6.018,6.0508,6.0814,6.0992,6.1012,6.107,6.1099,6.1099,6.1099,6.1117,6.1192,6.121,6.1234,6.1306,6.1302,6.1344,6.1393,6.1467,6.1493,6.149,6.1576,6.2077,6.2993,6.2993,6.3926,0.0,0.0,0.0,0.0,1.8822,0.0,0.0,0.0,0.0,0.0,0.0,0.0,0.0,0.0,0.0,0.0,0.0,0.0,0.0,0.0,0.0,0.0,0.0,0.0,0.0,0.0,2.783,2.88,2.9029,2.939,3.0054,3.1794,3.2435,3.1696,3.2962,3.3709,3.3798,3.4642,3.5461,3.6282,3.7022,3.749,3.7719,3.9253,4.0044,4.0309,4.1831,4.2491,4.2491,4.2491,4.2868,4.3539,4.4459,4.6076,4.7975,4.8695,4.9407,5.0011,5.0011,5.008,5.0189,5.0189,5.0369,5.0864,5.2432,5.3032,5.3591,5.5391,5.6162,5.6465,5.6715,5.7003,5.7188,5.7188,5.7188,5.7188,5.7188,5.7412,5.7601,5.7625,5.7839,5.8179,5.8635,5.884,5.9119,5.9609,5.9823,6.0131,6.069,6.0903,6.102,6.108,6.1089,6.1099,6.1099,6.1099,6.1099,6.1108,6.1227,6.1297,6.1306,6.1356,6.1393,6.1393,6.1467,6.1493,6.149,6.1576,6.2083,6.3006,6.3006,6.3937,0.0,0.0,0.0,0.0,0.0,0.0,0.0,0.0,1.8428,0.0,0.0,0.0,0.0,0.0,0.0,0.0,0.0,0.0,0.0,0.0,0.0,0.0,0.0,0.0,0.0,0.0,0.0,0.0,0.0,2.7932,2.8861,3.0759,3.1826,3.1836,3.3041,3.3796,3.4003,3.5184,3.5978,3.6408,3.7148,3.7612,3.7863,3.9521,4.0418,4.0736,4.2395,4.3139,4.3139,4.3139,4.3366,4.3789,4.4382,4.5727,4.7495,4.8449,4.9321,5.0011,5.0011,5.0022,5.0092,5.0274,5.0526,5.1099,5.2716,5.3201,5.3591,5.5391,5.6162,5.6465,5.6715,5.7003,5.7188,5.7188,5.7188,5.7188,5.7188,5.7412,5.7601,5.7601,5.7815,5.8111,5.8462,5.8638,5.8868,5.9344,5.9769,6.0151,6.0565,6.0834,6.1001,6.1032,6.108,6.1099,6.1099,6.1099,6.1127,6.1155,6.125,6.1299,6.1299,6.1371,6.1393,6.1393,6.1467,6.1493,6.149,6.1576,6.1813,6.2258,6.2258,6.3183,1.842,0.0,0.0,0.0,0.0,0.0,0.0,0.0,0.0,0.0,0.0,0.0,0.0,0.0,0.0,0.0,0.0,0.0,0.0,0.0,0.0,0.0,0.0,0.0,0.0,0.0,0.0,0.0,0.0,0.0,2.7449,2.9543,3.0972,3.153,3.2884,3.3841,3.4411,3.5618,3.6429,3.6722,3.7227,3.7655,3.802,3.98,4.0814,4.1214,4.2999,4.3748,4.3748,4.3748,4.3956,4.4248,4.453,4.566,4.7255,4.8163,4.9148,5.0011,5.0011,5.0022,5.0109,5.0387,5.0637,5.1127,5.2716,5.3201,5.3591,5.5391,5.6162,5.6465,5.6715,5.7003,5.7188,5.7188,5.7188,5.7188,5.7188,5.7412,5.7601,5.7601,5.7815,5.8106,5.8349,5.8535,5.8811,5.927,5.9798,6.025,6.0578,6.0836,6.1012,6.1022,6.108,6.1099,6.1099,6.1099,6.1146,6.1219,6.1267,6.1314,6.1337,6.1373,6.1394,6.1394,6.1466,6.1504,6.1539,6.158,6.1624,6.1697,6.1697,6.2622,0.0,0.0,0.0,1.8335,0.0,0.0,0.0,0.0,1.8938,0.0,0.0,0.0,0.0,0.0,0.0,0.0,0.0,0.0,0.0,0.0,0.0,0.0,0.0,0.0,0.0,0.0,0.0,0.0,0.0,0.0,2.571,2.8306,2.9938,3.0339,3.2291,3.3907,3.515,3.5988,3.6769,3.7478,3.7494,3.7714,3.8164,4.0107,4.1238,4.1777,4.3637,4.4474,4.4474,4.4474,4.4575,4.4776,4.4923,4.6,4.7494,4.7651,4.8717,5.0011,5.0011,5.0063,5.0246,5.0519,5.0585,5.0937,5.2671,5.3201,5.3591,5.5391,5.6162,5.6465,5.6715,5.7003,5.7188,5.7188,5.7188,5.7188,5.7188,5.7412,5.7601,5.7601,5.7815,5.8106,5.8349,5.8638,5.9006,5.9592,6.0026,6.0449,6.0846,6.095,6.1022,6.1089,6.1099,6.1099,6.1099,6.1099,6.1155,6.1289,6.1297,6.1337,6.1393,6.1395,6.1396,6.1396,6.1462,6.1534,6.1599,6.1604,6.1624,6.1697,6.1697,6.2625,0.0,0.0,1.8318,1.8224,0.0,0.0,0.0,0.0,0.0,0.0,0.0,0.0,0.0,0.0,0.0,0.0,0.0,0.0,0.0,0.0,0.0,0.0,0.0,0.0,0.0,0.0,0.0,0.0,2.1466,0.0,0.0,2.7194,2.9429,3.0862,3.259,3.4171,3.5586,3.6635,3.7243,3.751,3.751,3.7788,3.8367,4.0376,4.1555,4.2193,4.4231,4.5113,4.5113,4.5113,4.514,4.5211,4.5264,4.622,4.7634,4.7689,4.8683,5.0011,5.0011,5.0149,5.0359,5.0425,5.0941,5.1748,5.2857,5.3524,5.4196,5.5532,5.6162,5.6465,5.6715,5.7003,5.7188,5.7188,5.7188,5.7213,5.7313,5.7534,5.7768,5.7857,5.7997,5.8201,5.8422,5.8788,5.9215,5.9711,6.0265,6.0702,6.0944,6.1021,6.108,6.1099,6.1099,6.1099,6.1099,6.1146,6.1192,6.1227,6.1286,6.1314,6.1337,6.1382,6.1428,6.1466,6.1528,6.1582,6.1604,6.1644,6.1676,6.1705,6.1705,6.2316,1.8512,1.8606,0.0,1.8556,1.8658,0.0,1.8712,0.0,0.0,0.0,0.0,0.0,0.0,0.0,0.0,0.0,0.0,0.0,0.0,0.0,0.0,0.0,0.0,0.0,0.0,0.0,1.7934,1.8635,2.0155,0.0,0.0,0.0,2.8474,3.0434,3.2611,3.4392,3.5778,3.6914,3.751,3.751,3.751,3.7788,3.8367,4.0416,4.1622,4.2274,4.4365,4.5274,4.5344,4.5344,4.5371,4.5432,4.5707,4.6586,4.7689,4.7689,4.8683,5.0011,5.0051,5.0178,5.0341,5.0453,5.1116,5.2071,5.2944,5.3717,5.4512,5.5621,5.6162,5.6465,5.6715,5.7003,5.7188,5.7188,5.7188,5.7257,5.7412,5.7708,5.7964,5.8092,5.8231,5.8385,5.8532,5.8927,5.9343,5.9741,6.0382,6.0846,6.0976,6.1051,6.1099,6.1099,6.1099,6.1099,6.1099,6.1155,6.121,6.1227,6.1283,6.131,6.1318,6.1395,6.146,6.1503,6.1563,6.1591,6.1595,6.1648,6.1676,6.1709,6.1709,6.2006]}]]